<?xml version="1.0" encoding="utf-8"?>
<gpx xmlns:xsi="http://www.w3.org/2001/XMLSchema-instance" xmlns:xsd="http://www.w3.org/2001/XMLSchema" version="1.1" creator="Shapelink.com" xmlns="http://www.topografix.com/GPX/1/1" xmlns:gpxtpx="http://www.garmin.com/xmlschemas/TrackPointExtension/v1">
  <metadata>
    <name>Cykling 25.80 km, 2016-04-08</name>
    <desc></desc>
    <author><name>Alexander Engvall</name></author> 
    <time>2016-04-08T16:33:03Z</time>
  </metadata>
  <trk>
    <name>Cykling 25.80 km, 2016-04-08</name>
    <trkseg>
      <trkpt lat="59.33231347646" lon="18.059870230594">
        <ele>68.4</ele>
        <time>2016-04-08T16:33:03Z</time>
      </trkpt>
      <trkpt lat="59.332270980227" lon="18.059901830357">
        <ele>67.4</ele>
        <time>2016-04-08T16:33:04Z</time>
      </trkpt>
      <trkpt lat="59.332213480393" lon="18.059891604439">
        <ele>67.4</ele>
        <time>2016-04-08T16:33:06Z</time>
      </trkpt>
      <trkpt lat="59.332207529244" lon="18.059879953598">
        <ele>67.4</ele>
        <time>2016-04-08T16:33:07Z</time>
      </trkpt>
      <trkpt lat="59.332192693281" lon="18.059676608704">
        <ele>67.4</ele>
        <time>2016-04-08T16:33:11Z</time>
      </trkpt>
      <trkpt lat="59.33215170579" lon="18.05946907286">
        <ele>67.4</ele>
        <time>2016-04-08T16:33:14Z</time>
      </trkpt>
      <trkpt lat="59.332111640308" lon="18.059240079352">
        <ele>67.4</ele>
        <time>2016-04-08T16:33:16Z</time>
      </trkpt>
      <trkpt lat="59.331981720858" lon="18.058772369332">
        <ele>67.4</ele>
        <time>2016-04-08T16:33:21Z</time>
      </trkpt>
      <trkpt lat="59.331950624009" lon="18.058564833488">
        <ele>67.4</ele>
        <time>2016-04-08T16:33:23Z</time>
      </trkpt>
      <trkpt lat="59.331950624009" lon="18.058564833488">
        <ele>67.4</ele>
        <time>2016-04-08T16:33:24Z</time>
      </trkpt>
      <trkpt lat="59.331948193258" lon="18.058501885419">
        <ele>67.4</ele>
        <time>2016-04-08T16:33:25Z</time>
      </trkpt>
      <trkpt lat="59.331953222398" lon="18.058404487741">
        <ele>67.4</ele>
        <time>2016-04-08T16:33:28Z</time>
      </trkpt>
      <trkpt lat="59.33195976028" lon="18.058400212972">
        <ele>67.4</ele>
        <time>2016-04-08T16:33:29Z</time>
      </trkpt>
      <trkpt lat="59.331735544455" lon="18.058194521146">
        <ele>67.4</ele>
        <time>2016-04-08T16:33:53Z</time>
      </trkpt>
      <trkpt lat="59.331716601361" lon="18.058180104278">
        <ele>67.4</ele>
        <time>2016-04-08T16:33:54Z</time>
      </trkpt>
      <trkpt lat="59.331693048222" lon="18.0581581437">
        <ele>67.4</ele>
        <time>2016-04-08T16:33:55Z</time>
      </trkpt>
      <trkpt lat="59.331645606668" lon="18.058129142326">
        <ele>67</ele>
        <time>2016-04-08T16:33:57Z</time>
      </trkpt>
      <trkpt lat="59.331622556443" lon="18.058117323847">
        <ele>66.4</ele>
        <time>2016-04-08T16:33:58Z</time>
      </trkpt>
      <trkpt lat="59.331600344408" lon="18.0581078523">
        <ele>66</ele>
        <time>2016-04-08T16:33:59Z</time>
      </trkpt>
      <trkpt lat="59.331576372174" lon="18.058102487884">
        <ele>65.6</ele>
        <time>2016-04-08T16:34:00Z</time>
      </trkpt>
      <trkpt lat="59.331554411596" lon="18.05809527945">
        <ele>65</ele>
        <time>2016-04-08T16:34:01Z</time>
      </trkpt>
      <trkpt lat="59.331539659452" lon="18.058100811504">
        <ele>65</ele>
        <time>2016-04-08T16:34:02Z</time>
      </trkpt>
      <trkpt lat="59.331469167673" lon="18.058204411788">
        <ele>65</ele>
        <time>2016-04-08T16:34:04Z</time>
      </trkpt>
      <trkpt lat="59.331316617093" lon="18.058429130527">
        <ele>65</ele>
        <time>2016-04-08T16:34:06Z</time>
      </trkpt>
      <trkpt lat="59.331215363741" lon="18.058586374971">
        <ele>65</ele>
        <time>2016-04-08T16:34:07Z</time>
      </trkpt>
      <trkpt lat="59.330886122709" lon="18.058993316216">
        <ele>65</ele>
        <time>2016-04-08T16:34:12Z</time>
      </trkpt>
      <trkpt lat="59.330547158673" lon="18.059364802024">
        <ele>65</ele>
        <time>2016-04-08T16:34:18Z</time>
      </trkpt>
      <trkpt lat="59.330365941995" lon="18.059594298446">
        <ele>65</ele>
        <time>2016-04-08T16:34:23Z</time>
      </trkpt>
      <trkpt lat="59.330108030932" lon="18.059769647794">
        <ele>65</ele>
        <time>2016-04-08T16:34:27Z</time>
      </trkpt>
      <trkpt lat="59.32986679985" lon="18.059931167007">
        <ele>64.6</ele>
        <time>2016-04-08T16:34:30Z</time>
      </trkpt>
      <trkpt lat="59.32978465723" lon="18.059995288542">
        <ele>64.2</ele>
        <time>2016-04-08T16:34:31Z</time>
      </trkpt>
      <trkpt lat="59.329702849886" lon="18.060064271579">
        <ele>63.8</ele>
        <time>2016-04-08T16:34:32Z</time>
      </trkpt>
      <trkpt lat="59.329621880732" lon="18.060123783069">
        <ele>63.4</ele>
        <time>2016-04-08T16:34:33Z</time>
      </trkpt>
      <trkpt lat="59.329539989569" lon="18.060173571555">
        <ele>63</ele>
        <time>2016-04-08T16:34:34Z</time>
      </trkpt>
      <trkpt lat="59.329291717691" lon="18.060370043291">
        <ele>63</ele>
        <time>2016-04-08T16:34:37Z</time>
      </trkpt>
      <trkpt lat="59.328958034252" lon="18.060609681812">
        <ele>63</ele>
        <time>2016-04-08T16:34:41Z</time>
      </trkpt>
      <trkpt lat="59.328694842592" lon="18.060812942887">
        <ele>63</ele>
        <time>2016-04-08T16:34:45Z</time>
      </trkpt>
      <trkpt lat="59.32864471883" lon="18.060807997566">
        <ele>63</ele>
        <time>2016-04-08T16:34:46Z</time>
      </trkpt>
      <trkpt lat="59.328551595921" lon="18.060816714742">
        <ele>63</ele>
        <time>2016-04-08T16:34:48Z</time>
      </trkpt>
      <trkpt lat="59.328496107743" lon="18.06090405414">
        <ele>63</ele>
        <time>2016-04-08T16:34:50Z</time>
      </trkpt>
      <trkpt lat="59.328373229089" lon="18.061148637982">
        <ele>63</ele>
        <time>2016-04-08T16:36:07Z</time>
      </trkpt>
      <trkpt lat="59.328299216912" lon="18.061347540469">
        <ele>63</ele>
        <time>2016-04-08T16:36:10Z</time>
      </trkpt>
      <trkpt lat="59.328277172515" lon="18.061405040303">
        <ele>63</ele>
        <time>2016-04-08T16:36:11Z</time>
      </trkpt>
      <trkpt lat="59.328267198054" lon="18.061508556768">
        <ele>63</ele>
        <time>2016-04-08T16:36:12Z</time>
      </trkpt>
      <trkpt lat="59.328264264389" lon="18.061760516682">
        <ele>63</ele>
        <time>2016-04-08T16:36:14Z</time>
      </trkpt>
      <trkpt lat="59.328216655197" lon="18.062399720376">
        <ele>63</ele>
        <time>2016-04-08T16:36:18Z</time>
      </trkpt>
      <trkpt lat="59.328059746029" lon="18.062962732599">
        <ele>63</ele>
        <time>2016-04-08T16:36:22Z</time>
      </trkpt>
      <trkpt lat="59.327865034492" lon="18.063276048021">
        <ele>63</ele>
        <time>2016-04-08T16:36:25Z</time>
      </trkpt>
      <trkpt lat="59.327750537738" lon="18.063466736246">
        <ele>63.6</ele>
        <time>2016-04-08T16:36:27Z</time>
      </trkpt>
      <trkpt lat="59.327696390664" lon="18.063556003481">
        <ele>64</ele>
        <time>2016-04-08T16:36:28Z</time>
      </trkpt>
      <trkpt lat="59.327642578866" lon="18.063645270716">
        <ele>64.4</ele>
        <time>2016-04-08T16:36:29Z</time>
      </trkpt>
      <trkpt lat="59.32758776124" lon="18.063733196847">
        <ele>64.8</ele>
        <time>2016-04-08T16:36:30Z</time>
      </trkpt>
      <trkpt lat="59.327532273062" lon="18.063827325584">
        <ele>65.4</ele>
        <time>2016-04-08T16:36:31Z</time>
      </trkpt>
      <trkpt lat="59.327156428666" lon="18.064466529278">
        <ele>65.4</ele>
        <time>2016-04-08T16:36:38Z</time>
      </trkpt>
      <trkpt lat="59.326779243166" lon="18.065052759364">
        <ele>65.4</ele>
        <time>2016-04-08T16:36:45Z</time>
      </trkpt>
      <trkpt lat="59.326672038665" lon="18.065221403192">
        <ele>65.4</ele>
        <time>2016-04-08T16:36:48Z</time>
      </trkpt>
      <trkpt lat="59.326585286" lon="18.065259624656">
        <ele>65.4</ele>
        <time>2016-04-08T16:36:52Z</time>
      </trkpt>
      <trkpt lat="59.326549746744" lon="18.065196592768">
        <ele>65.4</ele>
        <time>2016-04-08T16:36:53Z</time>
      </trkpt>
      <trkpt lat="59.326444134804" lon="18.064875230722">
        <ele>64.8</ele>
        <time>2016-04-08T16:36:56Z</time>
      </trkpt>
      <trkpt lat="59.326402392942" lon="18.064777162492">
        <ele>64.4</ele>
        <time>2016-04-08T16:36:57Z</time>
      </trkpt>
      <trkpt lat="59.326357214501" lon="18.064686135058">
        <ele>64</ele>
        <time>2016-04-08T16:36:58Z</time>
      </trkpt>
      <trkpt lat="59.326318406304" lon="18.064587731552">
        <ele>63.6</ele>
        <time>2016-04-08T16:36:59Z</time>
      </trkpt>
      <trkpt lat="59.326280436297" lon="18.06451832942">
        <ele>63</ele>
        <time>2016-04-08T16:37:00Z</time>
      </trkpt>
      <trkpt lat="59.326230647811" lon="18.064525202578">
        <ele>63</ele>
        <time>2016-04-08T16:37:01Z</time>
      </trkpt>
      <trkpt lat="59.326182032791" lon="18.064556634703">
        <ele>63</ele>
        <time>2016-04-08T16:37:02Z</time>
      </trkpt>
      <trkpt lat="59.32602788965" lon="18.064774228827">
        <ele>63</ele>
        <time>2016-04-08T16:37:05Z</time>
      </trkpt>
      <trkpt lat="59.325965779771" lon="18.064867770831">
        <ele>63</ele>
        <time>2016-04-08T16:37:06Z</time>
      </trkpt>
      <trkpt lat="59.325649195408" lon="18.06535232847">
        <ele>63</ele>
        <time>2016-04-08T16:37:11Z</time>
      </trkpt>
      <trkpt lat="59.325453561862" lon="18.065650221196">
        <ele>62.6</ele>
        <time>2016-04-08T16:37:14Z</time>
      </trkpt>
      <trkpt lat="59.325375945468" lon="18.06575801243">
        <ele>62</ele>
        <time>2016-04-08T16:37:15Z</time>
      </trkpt>
      <trkpt lat="59.325300759825" lon="18.065868318234">
        <ele>61.4</ele>
        <time>2016-04-08T16:37:16Z</time>
      </trkpt>
      <trkpt lat="59.325234710453" lon="18.065960686772">
        <ele>61</ele>
        <time>2016-04-08T16:37:17Z</time>
      </trkpt>
      <trkpt lat="59.325171175651" lon="18.066053139129">
        <ele>60.4</ele>
        <time>2016-04-08T16:37:18Z</time>
      </trkpt>
      <trkpt lat="59.324965316187" lon="18.066302333016">
        <ele>60.4</ele>
        <time>2016-04-08T16:37:21Z</time>
      </trkpt>
      <trkpt lat="59.324811927417" lon="18.06642688805">
        <ele>60.4</ele>
        <time>2016-04-08T16:37:23Z</time>
      </trkpt>
      <trkpt lat="59.324577234217" lon="18.066551023989">
        <ele>60.4</ele>
        <time>2016-04-08T16:37:26Z</time>
      </trkpt>
      <trkpt lat="59.324346815786" lon="18.066548509419">
        <ele>60.4</ele>
        <time>2016-04-08T16:37:29Z</time>
      </trkpt>
      <trkpt lat="59.32417213699" lon="18.066533170542">
        <ele>60.8</ele>
        <time>2016-04-08T16:37:32Z</time>
      </trkpt>
      <trkpt lat="59.324121761771" lon="18.066567787789">
        <ele>61.2</ele>
        <time>2016-04-08T16:37:33Z</time>
      </trkpt>
      <trkpt lat="59.324073398208" lon="18.066615899895">
        <ele>61.6</ele>
        <time>2016-04-08T16:37:34Z</time>
      </trkpt>
      <trkpt lat="59.324011791243" lon="18.06663643555">
        <ele>62</ele>
        <time>2016-04-08T16:37:35Z</time>
      </trkpt>
      <trkpt lat="59.3239449875" lon="18.066675159928">
        <ele>62.6</ele>
        <time>2016-04-08T16:37:36Z</time>
      </trkpt>
      <trkpt lat="59.323820683923" lon="18.066766019724">
        <ele>62.6</ele>
        <time>2016-04-08T16:37:38Z</time>
      </trkpt>
      <trkpt lat="59.323445007165" lon="18.067164579069">
        <ele>62.6</ele>
        <time>2016-04-08T16:37:44Z</time>
      </trkpt>
      <trkpt lat="59.323045106716" lon="18.067696997357">
        <ele>62.6</ele>
        <time>2016-04-08T16:37:51Z</time>
      </trkpt>
      <trkpt lat="59.32299028909" lon="18.067799759451">
        <ele>62.6</ele>
        <time>2016-04-08T16:37:52Z</time>
      </trkpt>
      <trkpt lat="59.322850478998" lon="18.068143584989">
        <ele>62.6</ele>
        <time>2016-04-08T16:37:55Z</time>
      </trkpt>
      <trkpt lat="59.322603296767" lon="18.068821093966">
        <ele>62.6</ele>
        <time>2016-04-08T16:38:01Z</time>
      </trkpt>
      <trkpt lat="59.322379416218" lon="18.06959021711">
        <ele>62.6</ele>
        <time>2016-04-08T16:38:07Z</time>
      </trkpt>
      <trkpt lat="59.322392491982" lon="18.07002020858">
        <ele>62.6</ele>
        <time>2016-04-08T16:38:10Z</time>
      </trkpt>
      <trkpt lat="59.322431970731" lon="18.070624459751">
        <ele>62.6</ele>
        <time>2016-04-08T16:38:14Z</time>
      </trkpt>
      <trkpt lat="59.322428534152" lon="18.07078212329">
        <ele>62.6</ele>
        <time>2016-04-08T16:38:15Z</time>
      </trkpt>
      <trkpt lat="59.32237505763" lon="18.071220245203">
        <ele>62.6</ele>
        <time>2016-04-08T16:38:18Z</time>
      </trkpt>
      <trkpt lat="59.322353432328" lon="18.071354523241">
        <ele>62.6</ele>
        <time>2016-04-08T16:38:19Z</time>
      </trkpt>
      <trkpt lat="59.32230381148" lon="18.071616373797">
        <ele>62.6</ele>
        <time>2016-04-08T16:38:21Z</time>
      </trkpt>
      <trkpt lat="59.322226195086" lon="18.07182986079">
        <ele>62.6</ele>
        <time>2016-04-08T16:38:23Z</time>
      </trkpt>
      <trkpt lat="59.322180765188" lon="18.071934047807">
        <ele>62.6</ele>
        <time>2016-04-08T16:38:24Z</time>
      </trkpt>
      <trkpt lat="59.322039027259" lon="18.072180391848">
        <ele>62.6</ele>
        <time>2016-04-08T16:38:27Z</time>
      </trkpt>
      <trkpt lat="59.321946407264" lon="18.072287428711">
        <ele>62.6</ele>
        <time>2016-04-08T16:38:29Z</time>
      </trkpt>
      <trkpt lat="59.321900306814" lon="18.072315759533">
        <ele>63</ele>
        <time>2016-04-08T16:38:30Z</time>
      </trkpt>
      <trkpt lat="59.321854625459" lon="18.072320285759">
        <ele>63.6</ele>
        <time>2016-04-08T16:38:31Z</time>
      </trkpt>
      <trkpt lat="59.321808357371" lon="18.07230762909">
        <ele>64</ele>
        <time>2016-04-08T16:38:32Z</time>
      </trkpt>
      <trkpt lat="59.321762256921" lon="18.072272928024">
        <ele>64.4</ele>
        <time>2016-04-08T16:38:33Z</time>
      </trkpt>
      <trkpt lat="59.321716910842" lon="18.072228923049">
        <ele>65</ele>
        <time>2016-04-08T16:38:34Z</time>
      </trkpt>
      <trkpt lat="59.321673827876" lon="18.072181146219">
        <ele>65.4</ele>
        <time>2016-04-08T16:38:35Z</time>
      </trkpt>
      <trkpt lat="59.321632840385" lon="18.072131190095">
        <ele>65.8</ele>
        <time>2016-04-08T16:38:36Z</time>
      </trkpt>
      <trkpt lat="59.321594032188" lon="18.072082239799">
        <ele>66.2</ele>
        <time>2016-04-08T16:38:37Z</time>
      </trkpt>
      <trkpt lat="59.321551619774" lon="18.072042090498">
        <ele>66.6</ele>
        <time>2016-04-08T16:38:38Z</time>
      </trkpt>
      <trkpt lat="59.321507363342" lon="18.072011328925">
        <ele>67</ele>
        <time>2016-04-08T16:38:39Z</time>
      </trkpt>
      <trkpt lat="59.32146310691" lon="18.071975370574">
        <ele>67</ele>
        <time>2016-04-08T16:38:40Z</time>
      </trkpt>
      <trkpt lat="59.32126948502" lon="18.07181644975">
        <ele>67</ele>
        <time>2016-04-08T16:38:44Z</time>
      </trkpt>
      <trkpt lat="59.32122589914" lon="18.071737827528">
        <ele>67</ele>
        <time>2016-04-08T16:38:45Z</time>
      </trkpt>
      <trkpt lat="59.321188851142" lon="18.07137975276">
        <ele>66.6</ele>
        <time>2016-04-08T16:38:48Z</time>
      </trkpt>
      <trkpt lat="59.321199496155" lon="18.071238853021">
        <ele>66</ele>
        <time>2016-04-08T16:38:49Z</time>
      </trkpt>
      <trkpt lat="59.321206369313" lon="18.071103066241">
        <ele>65.6</ele>
        <time>2016-04-08T16:38:50Z</time>
      </trkpt>
      <trkpt lat="59.321213074833" lon="18.070977673017">
        <ele>65.2</ele>
        <time>2016-04-08T16:38:51Z</time>
      </trkpt>
      <trkpt lat="59.321222965475" lon="18.070861080788">
        <ele>64.6</ele>
        <time>2016-04-08T16:38:52Z</time>
      </trkpt>
      <trkpt lat="59.321233359031" lon="18.070745662025">
        <ele>64.6</ele>
        <time>2016-04-08T16:38:53Z</time>
      </trkpt>
      <trkpt lat="59.321234951592" lon="18.070488924428">
        <ele>64.2</ele>
        <time>2016-04-08T16:38:55Z</time>
      </trkpt>
      <trkpt lat="59.321237969076" lon="18.070349281974">
        <ele>63.8</ele>
        <time>2016-04-08T16:38:56Z</time>
      </trkpt>
      <trkpt lat="59.321245764243" lon="18.070213159918">
        <ele>63.2</ele>
        <time>2016-04-08T16:38:57Z</time>
      </trkpt>
      <trkpt lat="59.32124936846" lon="18.07007469093">
        <ele>62.8</ele>
        <time>2016-04-08T16:38:58Z</time>
      </trkpt>
      <trkpt lat="59.321242998216" lon="18.069930186974">
        <ele>62.4</ele>
        <time>2016-04-08T16:38:59Z</time>
      </trkpt>
      <trkpt lat="59.32123176647" lon="18.069768500123">
        <ele>62.4</ele>
        <time>2016-04-08T16:39:00Z</time>
      </trkpt>
      <trkpt lat="59.321213493928" lon="18.069619134665">
        <ele>62.4</ele>
        <time>2016-04-08T16:39:01Z</time>
      </trkpt>
      <trkpt lat="59.321186252753" lon="18.069475804175">
        <ele>62</ele>
        <time>2016-04-08T16:39:02Z</time>
      </trkpt>
      <trkpt lat="59.321153898619" lon="18.069328031278">
        <ele>61.6</ele>
        <time>2016-04-08T16:39:03Z</time>
      </trkpt>
      <trkpt lat="59.321124729607" lon="18.069179839286">
        <ele>61.2</ele>
        <time>2016-04-08T16:39:04Z</time>
      </trkpt>
      <trkpt lat="59.321100757373" lon="18.069024187403">
        <ele>60.6</ele>
        <time>2016-04-08T16:39:05Z</time>
      </trkpt>
      <trkpt lat="59.321077120415" lon="18.068869289891">
        <ele>60.2</ele>
        <time>2016-04-08T16:39:06Z</time>
      </trkpt>
      <trkpt lat="59.321040407693" lon="18.068548095483">
        <ele>60.2</ele>
        <time>2016-04-08T16:39:08Z</time>
      </trkpt>
      <trkpt lat="59.320987182628" lon="18.067789282076">
        <ele>60.2</ele>
        <time>2016-04-08T16:39:13Z</time>
      </trkpt>
      <trkpt lat="59.320984248963" lon="18.06752407876">
        <ele>60.2</ele>
        <time>2016-04-08T16:39:15Z</time>
      </trkpt>
      <trkpt lat="59.321000761306" lon="18.067062738984">
        <ele>60.2</ele>
        <time>2016-04-08T16:39:18Z</time>
      </trkpt>
      <trkpt lat="59.321009143206" lon="18.066914798449">
        <ele>60.2</ele>
        <time>2016-04-08T16:39:19Z</time>
      </trkpt>
      <trkpt lat="59.321035462372" lon="18.066465025695">
        <ele>60.2</ele>
        <time>2016-04-08T16:39:22Z</time>
      </trkpt>
      <trkpt lat="59.32104401191" lon="18.066310295821">
        <ele>59.8</ele>
        <time>2016-04-08T16:39:23Z</time>
      </trkpt>
      <trkpt lat="59.321054405466" lon="18.066165121313">
        <ele>59.4</ele>
        <time>2016-04-08T16:39:24Z</time>
      </trkpt>
      <trkpt lat="59.321066056307" lon="18.066020701176">
        <ele>59</ele>
        <time>2016-04-08T16:39:25Z</time>
      </trkpt>
      <trkpt lat="59.321077288053" lon="18.065877370686">
        <ele>58.6</ele>
        <time>2016-04-08T16:39:26Z</time>
      </trkpt>
      <trkpt lat="59.321087933066" lon="18.065735297481">
        <ele>58.2</ele>
        <time>2016-04-08T16:39:27Z</time>
      </trkpt>
      <trkpt lat="59.321100003002" lon="18.065443942637">
        <ele>58.2</ele>
        <time>2016-04-08T16:39:29Z</time>
      </trkpt>
      <trkpt lat="59.321168231668" lon="18.064263184384">
        <ele>58.2</ele>
        <time>2016-04-08T16:39:37Z</time>
      </trkpt>
      <trkpt lat="59.321181223613" lon="18.063965878391">
        <ele>58.2</ele>
        <time>2016-04-08T16:39:39Z</time>
      </trkpt>
      <trkpt lat="59.321207123684" lon="18.063399848684">
        <ele>58.2</ele>
        <time>2016-04-08T16:39:43Z</time>
      </trkpt>
      <trkpt lat="59.321251296297" lon="18.062555791354">
        <ele>58.2</ele>
        <time>2016-04-08T16:39:49Z</time>
      </trkpt>
      <trkpt lat="59.321280130033" lon="18.061707375436">
        <ele>58.2</ele>
        <time>2016-04-08T16:39:55Z</time>
      </trkpt>
      <trkpt lat="59.321275687626" lon="18.060835657836">
        <ele>58.2</ele>
        <time>2016-04-08T16:40:01Z</time>
      </trkpt>
      <trkpt lat="59.321275771445" lon="18.059998725121">
        <ele>58.2</ele>
        <time>2016-04-08T16:40:07Z</time>
      </trkpt>
      <trkpt lat="59.321271915771" lon="18.058867839173">
        <ele>58.2</ele>
        <time>2016-04-08T16:40:15Z</time>
      </trkpt>
      <trkpt lat="59.321243417311" lon="18.057918588998">
        <ele>58.2</ele>
        <time>2016-04-08T16:40:22Z</time>
      </trkpt>
      <trkpt lat="59.321249871374" lon="18.05699138322">
        <ele>58.6</ele>
        <time>2016-04-08T16:40:29Z</time>
      </trkpt>
      <trkpt lat="59.321250290469" lon="18.056853333327">
        <ele>59</ele>
        <time>2016-04-08T16:40:30Z</time>
      </trkpt>
      <trkpt lat="59.321249955193" lon="18.056703381136">
        <ele>59.4</ele>
        <time>2016-04-08T16:40:31Z</time>
      </trkpt>
      <trkpt lat="59.321248362632" lon="18.056553093669">
        <ele>59.8</ele>
        <time>2016-04-08T16:40:32Z</time>
      </trkpt>
      <trkpt lat="59.321249703736" lon="18.056401884193">
        <ele>60.2</ele>
        <time>2016-04-08T16:40:33Z</time>
      </trkpt>
      <trkpt lat="59.321257582722" lon="18.056109104426">
        <ele>60.2</ele>
        <time>2016-04-08T16:40:35Z</time>
      </trkpt>
      <trkpt lat="59.321267138088" lon="18.055087350816">
        <ele>60.2</ele>
        <time>2016-04-08T16:40:42Z</time>
      </trkpt>
      <trkpt lat="59.321252385944" lon="18.054792140298">
        <ele>60.2</ele>
        <time>2016-04-08T16:40:44Z</time>
      </trkpt>
      <trkpt lat="59.321216176136" lon="18.054344630657">
        <ele>59.8</ele>
        <time>2016-04-08T16:40:47Z</time>
      </trkpt>
      <trkpt lat="59.321208548607" lon="18.054200126701">
        <ele>59.4</ele>
        <time>2016-04-08T16:40:48Z</time>
      </trkpt>
      <trkpt lat="59.321205279666" lon="18.054054281641">
        <ele>59</ele>
        <time>2016-04-08T16:40:49Z</time>
      </trkpt>
      <trkpt lat="59.321206285494" lon="18.053907514572">
        <ele>58.6</ele>
        <time>2016-04-08T16:40:50Z</time>
      </trkpt>
      <trkpt lat="59.32120829715" lon="18.053761334236">
        <ele>58.2</ele>
        <time>2016-04-08T16:40:51Z</time>
      </trkpt>
      <trkpt lat="59.321208129512" lon="18.053611968778">
        <ele>58.2</ele>
        <time>2016-04-08T16:40:52Z</time>
      </trkpt>
      <trkpt lat="59.321204022381" lon="18.052690043597">
        <ele>58.2</ele>
        <time>2016-04-08T16:40:58Z</time>
      </trkpt>
      <trkpt lat="59.321204273838" lon="18.051928380344">
        <ele>58.2</ele>
        <time>2016-04-08T16:41:03Z</time>
      </trkpt>
      <trkpt lat="59.321200921078" lon="18.050901010861">
        <ele>58.2</ele>
        <time>2016-04-08T16:41:10Z</time>
      </trkpt>
      <trkpt lat="59.321199999069" lon="18.050761787502">
        <ele>58.2</ele>
        <time>2016-04-08T16:41:11Z</time>
      </trkpt>
      <trkpt lat="59.321145600538" lon="18.049949329935">
        <ele>58.2</ele>
        <time>2016-04-08T16:41:17Z</time>
      </trkpt>
      <trkpt lat="59.321118527001" lon="18.049690999777">
        <ele>58.2</ele>
        <time>2016-04-08T16:41:19Z</time>
      </trkpt>
      <trkpt lat="59.321059183149" lon="18.049319765426">
        <ele>58.2</ele>
        <time>2016-04-08T16:41:22Z</time>
      </trkpt>
      <trkpt lat="59.320966982249" lon="18.048714005513">
        <ele>58.2</ele>
        <time>2016-04-08T16:41:27Z</time>
      </trkpt>
      <trkpt lat="59.320957007788" lon="18.048585762443">
        <ele>58.2</ele>
        <time>2016-04-08T16:41:28Z</time>
      </trkpt>
      <trkpt lat="59.320881151593" lon="18.047575827312">
        <ele>58.2</ele>
        <time>2016-04-08T16:41:36Z</time>
      </trkpt>
      <trkpt lat="59.320810827452" lon="18.046691453043">
        <ele>58.6</ele>
        <time>2016-04-08T16:41:43Z</time>
      </trkpt>
      <trkpt lat="59.320800517715" lon="18.046566730371">
        <ele>59</ele>
        <time>2016-04-08T16:41:44Z</time>
      </trkpt>
      <trkpt lat="59.320788028684" lon="18.046442091518">
        <ele>59.4</ele>
        <time>2016-04-08T16:41:45Z</time>
      </trkpt>
      <trkpt lat="59.320776126386" lon="18.046321056882">
        <ele>59.8</ele>
        <time>2016-04-08T16:41:46Z</time>
      </trkpt>
      <trkpt lat="59.32076489464" lon="18.046200441341">
        <ele>60.2</ele>
        <time>2016-04-08T16:41:47Z</time>
      </trkpt>
      <trkpt lat="59.320742514967" lon="18.045833230302">
        <ele>60.2</ele>
        <time>2016-04-08T16:41:50Z</time>
      </trkpt>
      <trkpt lat="59.320728433375" lon="18.045455458069">
        <ele>60.2</ele>
        <time>2016-04-08T16:41:54Z</time>
      </trkpt>
      <trkpt lat="59.320735893266" lon="18.04536065878">
        <ele>60.2</ele>
        <time>2016-04-08T16:41:55Z</time>
      </trkpt>
      <trkpt lat="59.320743436976" lon="18.04515614042">
        <ele>60.2</ele>
        <time>2016-04-08T16:41:57Z</time>
      </trkpt>
      <trkpt lat="59.320709741738" lon="18.044656160085">
        <ele>60.2</ele>
        <time>2016-04-08T16:42:01Z</time>
      </trkpt>
      <trkpt lat="59.320672358464" lon="18.044117455372">
        <ele>60.2</ele>
        <time>2016-04-08T16:42:05Z</time>
      </trkpt>
      <trkpt lat="59.320618798123" lon="18.043737252388">
        <ele>60.2</ele>
        <time>2016-04-08T16:42:08Z</time>
      </trkpt>
      <trkpt lat="59.320549060715" lon="18.043235679492">
        <ele>60.2</ele>
        <time>2016-04-08T16:42:12Z</time>
      </trkpt>
      <trkpt lat="59.3205251723" lon="18.042978355162">
        <ele>60.2</ele>
        <time>2016-04-08T16:42:14Z</time>
      </trkpt>
      <trkpt lat="59.320496170926" lon="18.04216380212">
        <ele>60.2</ele>
        <time>2016-04-08T16:42:20Z</time>
      </trkpt>
      <trkpt lat="59.320461218403" lon="18.041094774594">
        <ele>60.2</ele>
        <time>2016-04-08T16:42:28Z</time>
      </trkpt>
      <trkpt lat="59.320382344724" lon="18.040161617667">
        <ele>60.2</ele>
        <time>2016-04-08T16:42:35Z</time>
      </trkpt>
      <trkpt lat="59.32030305195" lon="18.039358715466">
        <ele>60.2</ele>
        <time>2016-04-08T16:42:41Z</time>
      </trkpt>
      <trkpt lat="59.320274385852" lon="18.038857645484">
        <ele>60.2</ele>
        <time>2016-04-08T16:42:45Z</time>
      </trkpt>
      <trkpt lat="59.320258376423" lon="18.038732587536">
        <ele>60.2</ele>
        <time>2016-04-08T16:42:46Z</time>
      </trkpt>
      <trkpt lat="59.320183274599" lon="18.03818910514">
        <ele>60.2</ele>
        <time>2016-04-08T16:42:50Z</time>
      </trkpt>
      <trkpt lat="59.320103059816" lon="18.037345886">
        <ele>59.8</ele>
        <time>2016-04-08T16:42:56Z</time>
      </trkpt>
      <trkpt lat="59.320087469482" lon="18.037213871075">
        <ele>59.4</ele>
        <time>2016-04-08T16:42:57Z</time>
      </trkpt>
      <trkpt lat="59.320073974623" lon="18.037080766503">
        <ele>59</ele>
        <time>2016-04-08T16:42:58Z</time>
      </trkpt>
      <trkpt lat="59.320058384289" lon="18.036943303343">
        <ele>58.6</ele>
        <time>2016-04-08T16:42:59Z</time>
      </trkpt>
      <trkpt lat="59.320043129231" lon="18.03680692983">
        <ele>58.2</ele>
        <time>2016-04-08T16:43:00Z</time>
      </trkpt>
      <trkpt lat="59.319996442048" lon="18.036234026965">
        <ele>58.2</ele>
        <time>2016-04-08T16:43:04Z</time>
      </trkpt>
      <trkpt lat="59.319985461759" lon="18.035518883257">
        <ele>58.2</ele>
        <time>2016-04-08T16:43:09Z</time>
      </trkpt>
      <trkpt lat="59.319928464839" lon="18.035082437724">
        <ele>58.6</ele>
        <time>2016-04-08T16:43:13Z</time>
      </trkpt>
      <trkpt lat="59.319921507862" lon="18.034971377549">
        <ele>59.4</ele>
        <time>2016-04-08T16:43:14Z</time>
      </trkpt>
      <trkpt lat="59.319916813998" lon="18.034855120596">
        <ele>59.8</ele>
        <time>2016-04-08T16:43:15Z</time>
      </trkpt>
      <trkpt lat="59.319909689383" lon="18.034739701833">
        <ele>60.2</ele>
        <time>2016-04-08T16:43:16Z</time>
      </trkpt>
      <trkpt lat="59.319894601963" lon="18.034518168216">
        <ele>60.2</ele>
        <time>2016-04-08T16:43:18Z</time>
      </trkpt>
      <trkpt lat="59.319865852046" lon="18.034060516476">
        <ele>60.2</ele>
        <time>2016-04-08T16:43:22Z</time>
      </trkpt>
      <trkpt lat="59.319819583958" lon="18.033647372625">
        <ele>60.2</ele>
        <time>2016-04-08T16:43:25Z</time>
      </trkpt>
      <trkpt lat="59.319701482987" lon="18.03285570217">
        <ele>60.2</ele>
        <time>2016-04-08T16:43:31Z</time>
      </trkpt>
      <trkpt lat="59.319604923499" lon="18.032080124963">
        <ele>60.2</ele>
        <time>2016-04-08T16:43:37Z</time>
      </trkpt>
      <trkpt lat="59.319558906868" lon="18.031595734962">
        <ele>60.2</ele>
        <time>2016-04-08T16:43:41Z</time>
      </trkpt>
      <trkpt lat="59.319536778652" lon="18.031468246263">
        <ele>60.2</ele>
        <time>2016-04-08T16:43:42Z</time>
      </trkpt>
      <trkpt lat="59.319491432573" lon="18.031219722928">
        <ele>60.2</ele>
        <time>2016-04-08T16:43:44Z</time>
      </trkpt>
      <trkpt lat="59.319478775904" lon="18.031091396039">
        <ele>60.2</ele>
        <time>2016-04-08T16:43:45Z</time>
      </trkpt>
      <trkpt lat="59.319448517245" lon="18.03055235605">
        <ele>60.2</ele>
        <time>2016-04-08T16:43:49Z</time>
      </trkpt>
      <trkpt lat="59.319386323547" lon="18.030245746148">
        <ele>60.2</ele>
        <time>2016-04-08T16:43:52Z</time>
      </trkpt>
      <trkpt lat="59.319271407698" lon="18.029896304737">
        <ele>60.2</ele>
        <time>2016-04-08T16:43:56Z</time>
      </trkpt>
      <trkpt lat="59.31924441798" lon="18.029776695024">
        <ele>60.2</ele>
        <time>2016-04-08T16:43:57Z</time>
      </trkpt>
      <trkpt lat="59.319074516867" lon="18.029080913505">
        <ele>60.2</ele>
        <time>2016-04-08T16:44:03Z</time>
      </trkpt>
      <trkpt lat="59.318907381781" lon="18.028542124973">
        <ele>60.2</ele>
        <time>2016-04-08T16:44:08Z</time>
      </trkpt>
      <trkpt lat="59.318860275503" lon="18.028450762263">
        <ele>60.2</ele>
        <time>2016-04-08T16:44:09Z</time>
      </trkpt>
      <trkpt lat="59.318707892561" lon="18.028323273564">
        <ele>60.2</ele>
        <time>2016-04-08T16:44:12Z</time>
      </trkpt>
      <trkpt lat="59.318622397181" lon="18.028308605239">
        <ele>60.6</ele>
        <time>2016-04-08T16:44:14Z</time>
      </trkpt>
      <trkpt lat="59.318589456314" lon="18.028303576099">
        <ele>61</ele>
        <time>2016-04-08T16:44:15Z</time>
      </trkpt>
      <trkpt lat="59.31839197875" lon="18.028327883609">
        <ele>63.2</ele>
        <time>2016-04-08T16:44:36Z</time>
      </trkpt>
      <trkpt lat="59.318348225232" lon="18.028351855843">
        <ele>63.6</ele>
        <time>2016-04-08T16:44:37Z</time>
      </trkpt>
      <trkpt lat="59.318305309904" lon="18.028383707063">
        <ele>64</ele>
        <time>2016-04-08T16:44:38Z</time>
      </trkpt>
      <trkpt lat="59.318264825327" lon="18.028401057596">
        <ele>64.4</ele>
        <time>2016-04-08T16:44:39Z</time>
      </trkpt>
      <trkpt lat="59.318131385479" lon="18.028396782827">
        <ele>64.4</ele>
        <time>2016-04-08T16:44:43Z</time>
      </trkpt>
      <trkpt lat="59.318099953354" lon="18.028388652384">
        <ele>64.8</ele>
        <time>2016-04-08T16:44:44Z</time>
      </trkpt>
      <trkpt lat="59.318068772686" lon="18.028381863045">
        <ele>65.4</ele>
        <time>2016-04-08T16:44:45Z</time>
      </trkpt>
      <trkpt lat="59.318038597846" lon="18.028375660439">
        <ele>65.8</ele>
        <time>2016-04-08T16:44:46Z</time>
      </trkpt>
      <trkpt lat="59.318005070246" lon="18.028376750086">
        <ele>66.2</ele>
        <time>2016-04-08T16:44:47Z</time>
      </trkpt>
      <trkpt lat="59.317973135207" lon="18.028377001543">
        <ele>66.6</ele>
        <time>2016-04-08T16:44:48Z</time>
      </trkpt>
      <trkpt lat="59.317899458306" lon="18.028385467262">
        <ele>67</ele>
        <time>2016-04-08T16:44:50Z</time>
      </trkpt>
      <trkpt lat="59.317857967901" lon="18.028389406755">
        <ele>67.6</ele>
        <time>2016-04-08T16:44:51Z</time>
      </trkpt>
      <trkpt lat="59.317817399505" lon="18.028389406755">
        <ele>68</ele>
        <time>2016-04-08T16:44:52Z</time>
      </trkpt>
      <trkpt lat="59.317774819453" lon="18.028401476691">
        <ele>68.8</ele>
        <time>2016-04-08T16:44:53Z</time>
      </trkpt>
      <trkpt lat="59.31772394132" lon="18.028417821396">
        <ele>68.8</ele>
        <time>2016-04-08T16:44:54Z</time>
      </trkpt>
      <trkpt lat="59.317631321325" lon="18.02841245698">
        <ele>69.2</ele>
        <time>2016-04-08T16:44:56Z</time>
      </trkpt>
      <trkpt lat="59.317575330233" lon="18.028455372308">
        <ele>69.8</ele>
        <time>2016-04-08T16:44:57Z</time>
      </trkpt>
      <trkpt lat="59.317522691901" lon="18.028505831346">
        <ele>70.2</ele>
        <time>2016-04-08T16:44:58Z</time>
      </trkpt>
      <trkpt lat="59.317453876502" lon="18.028546651199">
        <ele>70.6</ele>
        <time>2016-04-08T16:44:59Z</time>
      </trkpt>
      <trkpt lat="59.317397298677" lon="18.028578753876">
        <ele>71</ele>
        <time>2016-04-08T16:45:00Z</time>
      </trkpt>
      <trkpt lat="59.317184314598" lon="18.028659639211">
        <ele>71.4</ele>
        <time>2016-04-08T16:45:03Z</time>
      </trkpt>
      <trkpt lat="59.317122372357" lon="18.028674726631">
        <ele>71.8</ele>
        <time>2016-04-08T16:45:04Z</time>
      </trkpt>
      <trkpt lat="59.31706260941" lon="18.028697693037">
        <ele>72.2</ele>
        <time>2016-04-08T16:45:05Z</time>
      </trkpt>
      <trkpt lat="59.317005863947" lon="18.02871504357">
        <ele>72.6</ele>
        <time>2016-04-08T16:45:06Z</time>
      </trkpt>
      <trkpt lat="59.316951213959" lon="18.028735495406">
        <ele>73</ele>
        <time>2016-04-08T16:45:07Z</time>
      </trkpt>
      <trkpt lat="59.31681450517" lon="18.028783691331">
        <ele>73</ele>
        <time>2016-04-08T16:45:10Z</time>
      </trkpt>
      <trkpt lat="59.316694811638" lon="18.028891482565">
        <ele>73</ele>
        <time>2016-04-08T16:45:13Z</time>
      </trkpt>
      <trkpt lat="59.316652483043" lon="18.028942360698">
        <ele>73</ele>
        <time>2016-04-08T16:45:14Z</time>
      </trkpt>
      <trkpt lat="59.316409910857" lon="18.029088541034">
        <ele>73</ele>
        <time>2016-04-08T16:45:18Z</time>
      </trkpt>
      <trkpt lat="59.316341598372" lon="18.029142101375">
        <ele>72.6</ele>
        <time>2016-04-08T16:45:19Z</time>
      </trkpt>
      <trkpt lat="59.316272782973" lon="18.029192392775">
        <ele>72</ele>
        <time>2016-04-08T16:45:20Z</time>
      </trkpt>
      <trkpt lat="59.316210002542" lon="18.029241343071">
        <ele>71.6</ele>
        <time>2016-04-08T16:45:21Z</time>
      </trkpt>
      <trkpt lat="59.31614898231" lon="18.029274870671">
        <ele>71.2</ele>
        <time>2016-04-08T16:45:22Z</time>
      </trkpt>
      <trkpt lat="59.316090811924" lon="18.029302530941">
        <ele>70.6</ele>
        <time>2016-04-08T16:45:23Z</time>
      </trkpt>
      <trkpt lat="59.316001712327" lon="18.02933530417">
        <ele>70.6</ele>
        <time>2016-04-08T16:45:25Z</time>
      </trkpt>
      <trkpt lat="59.3159738006" lon="18.029340249491">
        <ele>70.6</ele>
        <time>2016-04-08T16:45:26Z</time>
      </trkpt>
      <trkpt lat="59.315853352697" lon="18.02942918145">
        <ele>70.2</ele>
        <time>2016-04-08T16:45:31Z</time>
      </trkpt>
      <trkpt lat="59.315823513133" lon="18.029457260815">
        <ele>69.8</ele>
        <time>2016-04-08T16:45:32Z</time>
      </trkpt>
      <trkpt lat="59.315793673569" lon="18.029483747619">
        <ele>69.4</ele>
        <time>2016-04-08T16:45:33Z</time>
      </trkpt>
      <trkpt lat="59.315763163453" lon="18.029514090097">
        <ele>69</ele>
        <time>2016-04-08T16:45:34Z</time>
      </trkpt>
      <trkpt lat="59.315730222586" lon="18.029547533878">
        <ele>68.6</ele>
        <time>2016-04-08T16:45:35Z</time>
      </trkpt>
      <trkpt lat="59.315650343079" lon="18.029615511087">
        <ele>68.2</ele>
        <time>2016-04-08T16:45:37Z</time>
      </trkpt>
      <trkpt lat="59.315598040023" lon="18.029650798886">
        <ele>67.8</ele>
        <time>2016-04-08T16:45:38Z</time>
      </trkpt>
      <trkpt lat="59.315536013963" lon="18.029695977327">
        <ele>67.4</ele>
        <time>2016-04-08T16:45:39Z</time>
      </trkpt>
      <trkpt lat="59.315485303468" lon="18.029770492418">
        <ele>67</ele>
        <time>2016-04-08T16:45:40Z</time>
      </trkpt>
      <trkpt lat="59.315452111144" lon="18.029873170693">
        <ele>66.4</ele>
        <time>2016-04-08T16:45:41Z</time>
      </trkpt>
      <trkpt lat="59.315436436991" lon="18.029984230868">
        <ele>65.8</ele>
        <time>2016-04-08T16:45:42Z</time>
      </trkpt>
      <trkpt lat="59.315425205245" lon="18.030096296871">
        <ele>64.6</ele>
        <time>2016-04-08T16:45:43Z</time>
      </trkpt>
      <trkpt lat="59.315422020123" lon="18.030214397842">
        <ele>64</ele>
        <time>2016-04-08T16:45:44Z</time>
      </trkpt>
      <trkpt lat="59.315479519957" lon="18.03051799026">
        <ele>64</ele>
        <time>2016-04-08T16:45:46Z</time>
      </trkpt>
      <trkpt lat="59.315514304842" lon="18.030822420868">
        <ele>64</ele>
        <time>2016-04-08T16:45:48Z</time>
      </trkpt>
      <trkpt lat="59.315613546538" lon="18.031555418023">
        <ele>64</ele>
        <time>2016-04-08T16:45:53Z</time>
      </trkpt>
      <trkpt lat="59.315751931707" lon="18.032593181062">
        <ele>64</ele>
        <time>2016-04-08T16:46:00Z</time>
      </trkpt>
      <trkpt lat="59.315766432394" lon="18.032742630339">
        <ele>64.4</ele>
        <time>2016-04-08T16:46:01Z</time>
      </trkpt>
      <trkpt lat="59.315778586149" lon="18.032888810675">
        <ele>64.8</ele>
        <time>2016-04-08T16:46:02Z</time>
      </trkpt>
      <trkpt lat="59.31579023699" lon="18.033014874451">
        <ele>65.4</ele>
        <time>2016-04-08T16:46:03Z</time>
      </trkpt>
      <trkpt lat="59.315794260302" lon="18.033146637919">
        <ele>65.8</ele>
        <time>2016-04-08T16:46:04Z</time>
      </trkpt>
      <trkpt lat="59.315804067125" lon="18.033254848248">
        <ele>66.2</ele>
        <time>2016-04-08T16:46:05Z</time>
      </trkpt>
      <trkpt lat="59.31576592948" lon="18.033496833701">
        <ele>67.2</ele>
        <time>2016-04-08T16:46:08Z</time>
      </trkpt>
      <trkpt lat="59.315715721899" lon="18.033527595274">
        <ele>67.6</ele>
        <time>2016-04-08T16:46:09Z</time>
      </trkpt>
      <trkpt lat="59.315668783259" lon="18.033550645499">
        <ele>68</ele>
        <time>2016-04-08T16:46:10Z</time>
      </trkpt>
      <trkpt lat="59.31562343718" lon="18.033568750403">
        <ele>68.4</ele>
        <time>2016-04-08T16:46:11Z</time>
      </trkpt>
      <trkpt lat="59.315579599843" lon="18.03358492747">
        <ele>68.4</ele>
        <time>2016-04-08T16:46:12Z</time>
      </trkpt>
      <trkpt lat="59.315478178853" lon="18.033620466726">
        <ele>68.4</ele>
        <time>2016-04-08T16:46:15Z</time>
      </trkpt>
      <trkpt lat="59.315356138389" lon="18.033646869711">
        <ele>68.4</ele>
        <time>2016-04-08T16:46:22Z</time>
      </trkpt>
      <trkpt lat="59.315176849548" lon="18.033807131639">
        <ele>68.4</ele>
        <time>2016-04-08T16:46:26Z</time>
      </trkpt>
      <trkpt lat="59.315123456845" lon="18.033842754714">
        <ele>68.4</ele>
        <time>2016-04-08T16:46:27Z</time>
      </trkpt>
      <trkpt lat="59.314903767246" lon="18.033936799632">
        <ele>68.4</ele>
        <time>2016-04-08T16:46:31Z</time>
      </trkpt>
      <trkpt lat="59.31474669044" lon="18.033966890653">
        <ele>69</ele>
        <time>2016-04-08T16:46:34Z</time>
      </trkpt>
      <trkpt lat="59.314707882243" lon="18.033905702783">
        <ele>69.4</ele>
        <time>2016-04-08T16:46:35Z</time>
      </trkpt>
      <trkpt lat="59.314667816761" lon="18.033819704489">
        <ele>69.8</ele>
        <time>2016-04-08T16:46:36Z</time>
      </trkpt>
      <trkpt lat="59.314623392691" lon="18.033730101978">
        <ele>70.2</ele>
        <time>2016-04-08T16:46:37Z</time>
      </trkpt>
      <trkpt lat="59.314574777671" lon="18.033634632137">
        <ele>70.6</ele>
        <time>2016-04-08T16:46:38Z</time>
      </trkpt>
      <trkpt lat="59.314475284518" lon="18.033463222282">
        <ele>70.6</ele>
        <time>2016-04-08T16:46:40Z</time>
      </trkpt>
      <trkpt lat="59.314327679259" lon="18.033252585135">
        <ele>71</ele>
        <time>2016-04-08T16:46:43Z</time>
      </trkpt>
      <trkpt lat="59.314279483334" lon="18.033183685917">
        <ele>71.4</ele>
        <time>2016-04-08T16:46:44Z</time>
      </trkpt>
      <trkpt lat="59.314230616857" lon="18.033121659857">
        <ele>72</ele>
        <time>2016-04-08T16:46:45Z</time>
      </trkpt>
      <trkpt lat="59.314183175303" lon="18.033045719843">
        <ele>72.4</ele>
        <time>2016-04-08T16:46:46Z</time>
      </trkpt>
      <trkpt lat="59.314134895559" lon="18.032962906671">
        <ele>73</ele>
        <time>2016-04-08T16:46:47Z</time>
      </trkpt>
      <trkpt lat="59.313992235621" lon="18.032735505724">
        <ele>73</ele>
        <time>2016-04-08T16:46:50Z</time>
      </trkpt>
      <trkpt lat="59.313949404112" lon="18.03265369838">
        <ele>73.4</ele>
        <time>2016-04-08T16:46:51Z</time>
      </trkpt>
      <trkpt lat="59.313905063861" lon="18.032573818873">
        <ele>73.8</ele>
        <time>2016-04-08T16:46:52Z</time>
      </trkpt>
      <trkpt lat="59.313857789945" lon="18.032496537755">
        <ele>74.2</ele>
        <time>2016-04-08T16:46:53Z</time>
      </trkpt>
      <trkpt lat="59.313816634816" lon="18.032424788691">
        <ele>74.6</ele>
        <time>2016-04-08T16:46:54Z</time>
      </trkpt>
      <trkpt lat="59.313774054764" lon="18.032348345763">
        <ele>75</ele>
        <time>2016-04-08T16:46:55Z</time>
      </trkpt>
      <trkpt lat="59.31364447059" lon="18.032144581774">
        <ele>75</ele>
        <time>2016-04-08T16:46:58Z</time>
      </trkpt>
      <trkpt lat="59.313344985303" lon="18.031578049153">
        <ele>75</ele>
        <time>2016-04-08T16:47:05Z</time>
      </trkpt>
      <trkpt lat="59.312982887223" lon="18.030935073604">
        <ele>75</ele>
        <time>2016-04-08T16:47:12Z</time>
      </trkpt>
      <trkpt lat="59.312878532568" lon="18.030735752022">
        <ele>74.4</ele>
        <time>2016-04-08T16:47:14Z</time>
      </trkpt>
      <trkpt lat="59.31282472077" lon="18.030636929421">
        <ele>74</ele>
        <time>2016-04-08T16:47:15Z</time>
      </trkpt>
      <trkpt lat="59.31277107661" lon="18.030538693553">
        <ele>73.6</ele>
        <time>2016-04-08T16:47:16Z</time>
      </trkpt>
      <trkpt lat="59.312713073862" lon="18.030433081613">
        <ele>73</ele>
        <time>2016-04-08T16:47:17Z</time>
      </trkpt>
      <trkpt lat="59.312657585684" lon="18.030332414994">
        <ele>72.4</ele>
        <time>2016-04-08T16:47:18Z</time>
      </trkpt>
      <trkpt lat="59.312602684239" lon="18.030230994004">
        <ele>71.8</ele>
        <time>2016-04-08T16:47:19Z</time>
      </trkpt>
      <trkpt lat="59.312549710631" lon="18.030129237738">
        <ele>71.2</ele>
        <time>2016-04-08T16:47:20Z</time>
      </trkpt>
      <trkpt lat="59.312494306272" lon="18.030026727101">
        <ele>70.6</ele>
        <time>2016-04-08T16:47:21Z</time>
      </trkpt>
      <trkpt lat="59.312327171186" lon="18.029704191589">
        <ele>70.2</ele>
        <time>2016-04-08T16:47:24Z</time>
      </trkpt>
      <trkpt lat="59.312262798194" lon="18.029582318763">
        <ele>69.6</ele>
        <time>2016-04-08T16:47:25Z</time>
      </trkpt>
      <trkpt lat="59.312202951428" lon="18.029471007131">
        <ele>69.2</ele>
        <time>2016-04-08T16:47:26Z</time>
      </trkpt>
      <trkpt lat="59.312144529585" lon="18.029359527861">
        <ele>68.8</ele>
        <time>2016-04-08T16:47:27Z</time>
      </trkpt>
      <trkpt lat="59.312086107742" lon="18.029246791306">
        <ele>68.2</ele>
        <time>2016-04-08T16:47:28Z</time>
      </trkpt>
      <trkpt lat="59.312031122478" lon="18.02912827124">
        <ele>67.8</ele>
        <time>2016-04-08T16:47:29Z</time>
      </trkpt>
      <trkpt lat="59.311986111675" lon="18.029000782541">
        <ele>67.2</ele>
        <time>2016-04-08T16:47:30Z</time>
      </trkpt>
      <trkpt lat="59.311948309306" lon="18.0288717851">
        <ele>66.6</ele>
        <time>2016-04-08T16:47:31Z</time>
      </trkpt>
      <trkpt lat="59.31190941729" lon="18.02874857117">
        <ele>66</ele>
        <time>2016-04-08T16:47:32Z</time>
      </trkpt>
      <trkpt lat="59.311811768155" lon="18.028479009266">
        <ele>66</ele>
        <time>2016-04-08T16:47:35Z</time>
      </trkpt>
      <trkpt lat="59.311793495613" lon="18.028437351223">
        <ele>66</ele>
        <time>2016-04-08T16:47:36Z</time>
      </trkpt>
      <trkpt lat="59.311784359342" lon="18.028424443097">
        <ele>66.6</ele>
        <time>2016-04-08T16:47:37Z</time>
      </trkpt>
      <trkpt lat="59.311786370998" lon="18.028425281287">
        <ele>67</ele>
        <time>2016-04-08T16:47:38Z</time>
      </trkpt>
      <trkpt lat="59.311728703526" lon="18.028360573019">
        <ele>68.2</ele>
        <time>2016-04-08T16:47:49Z</time>
      </trkpt>
      <trkpt lat="59.311641783223" lon="18.028316735682">
        <ele>68.2</ele>
        <time>2016-04-08T16:47:51Z</time>
      </trkpt>
      <trkpt lat="59.311445311487" lon="18.028238029641">
        <ele>68.2</ele>
        <time>2016-04-08T16:47:54Z</time>
      </trkpt>
      <trkpt lat="59.311238362376" lon="18.028050107443">
        <ele>68.2</ele>
        <time>2016-04-08T16:47:57Z</time>
      </trkpt>
      <trkpt lat="59.311169546977" lon="18.027959331466">
        <ele>68.2</ele>
        <time>2016-04-08T16:47:58Z</time>
      </trkpt>
      <trkpt lat="59.310742992086" lon="18.027358433055">
        <ele>68.2</ele>
        <time>2016-04-08T16:48:04Z</time>
      </trkpt>
      <trkpt lat="59.310547190902" lon="18.027062468166">
        <ele>67.8</ele>
        <time>2016-04-08T16:48:07Z</time>
      </trkpt>
      <trkpt lat="59.310481225349" lon="18.026971021637">
        <ele>67.4</ele>
        <time>2016-04-08T16:48:08Z</time>
      </trkpt>
      <trkpt lat="59.310406458801" lon="18.026890471578">
        <ele>67</ele>
        <time>2016-04-08T16:48:09Z</time>
      </trkpt>
      <trkpt lat="59.310326579294" lon="18.026811011166">
        <ele>66.6</ele>
        <time>2016-04-08T16:48:10Z</time>
      </trkpt>
      <trkpt lat="59.310255081687" lon="18.02672098956">
        <ele>66.2</ele>
        <time>2016-04-08T16:48:11Z</time>
      </trkpt>
      <trkpt lat="59.309981245014" lon="18.026371715787">
        <ele>66.2</ele>
        <time>2016-04-08T16:48:15Z</time>
      </trkpt>
      <trkpt lat="59.309531891355" lon="18.025737457414">
        <ele>66.2</ele>
        <time>2016-04-08T16:48:22Z</time>
      </trkpt>
      <trkpt lat="59.309410437624" lon="18.025578620409">
        <ele>66.8</ele>
        <time>2016-04-08T16:48:24Z</time>
      </trkpt>
      <trkpt lat="59.309354446532" lon="18.02548801207">
        <ele>67.2</ele>
        <time>2016-04-08T16:48:25Z</time>
      </trkpt>
      <trkpt lat="59.30930851372" lon="18.025393548057">
        <ele>67.6</ele>
        <time>2016-04-08T16:48:26Z</time>
      </trkpt>
      <trkpt lat="59.309280182898" lon="18.025279805674">
        <ele>68</ele>
        <time>2016-04-08T16:48:27Z</time>
      </trkpt>
      <trkpt lat="59.309273561197" lon="18.025163883997">
        <ele>68.4</ele>
        <time>2016-04-08T16:48:28Z</time>
      </trkpt>
      <trkpt lat="59.309282194554" lon="18.024995072531">
        <ele>68.4</ele>
        <time>2016-04-08T16:48:30Z</time>
      </trkpt>
      <trkpt lat="59.309273142102" lon="18.024946792787">
        <ele>68.8</ele>
        <time>2016-04-08T16:48:32Z</time>
      </trkpt>
      <trkpt lat="59.309271884817" lon="18.024943607665">
        <ele>69.2</ele>
        <time>2016-04-08T16:48:33Z</time>
      </trkpt>
      <trkpt lat="59.309244727461" lon="18.024883341804">
        <ele>70.4</ele>
        <time>2016-04-08T16:49:08Z</time>
      </trkpt>
      <trkpt lat="59.309214887897" lon="18.024815196957">
        <ele>70.4</ele>
        <time>2016-04-08T16:49:09Z</time>
      </trkpt>
      <trkpt lat="59.309143641747" lon="18.024724756256">
        <ele>70.4</ele>
        <time>2016-04-08T16:49:11Z</time>
      </trkpt>
      <trkpt lat="59.309098379487" lon="18.024751829793">
        <ele>70.4</ele>
        <time>2016-04-08T16:49:12Z</time>
      </trkpt>
      <trkpt lat="59.308919258284" lon="18.024813520577">
        <ele>70.4</ele>
        <time>2016-04-08T16:49:15Z</time>
      </trkpt>
      <trkpt lat="59.308800486761" lon="18.024687289163">
        <ele>70.4</ele>
        <time>2016-04-08T16:49:17Z</time>
      </trkpt>
      <trkpt lat="59.308735359398" lon="18.024614198995">
        <ele>70.4</ele>
        <time>2016-04-08T16:49:18Z</time>
      </trkpt>
      <trkpt lat="59.30829681839" lon="18.024039703569">
        <ele>70.4</ele>
        <time>2016-04-08T16:49:25Z</time>
      </trkpt>
      <trkpt lat="59.307841597401" lon="18.023418101865">
        <ele>70.4</ele>
        <time>2016-04-08T16:49:32Z</time>
      </trkpt>
      <trkpt lat="59.307772362907" lon="18.023329756639">
        <ele>70.4</ele>
        <time>2016-04-08T16:49:33Z</time>
      </trkpt>
      <trkpt lat="59.307409678094" lon="18.022742520725">
        <ele>70.4</ele>
        <time>2016-04-08T16:49:39Z</time>
      </trkpt>
      <trkpt lat="59.307177415645" lon="18.022134330061">
        <ele>70.4</ele>
        <time>2016-04-08T16:49:44Z</time>
      </trkpt>
      <trkpt lat="59.307028888377" lon="18.021614233166">
        <ele>70.4</ele>
        <time>2016-04-08T16:49:48Z</time>
      </trkpt>
      <trkpt lat="59.306984799583" lon="18.02133561881">
        <ele>70.4</ele>
        <time>2016-04-08T16:49:50Z</time>
      </trkpt>
      <trkpt lat="59.306878936186" lon="18.020503212321">
        <ele>70.4</ele>
        <time>2016-04-08T16:49:56Z</time>
      </trkpt>
      <trkpt lat="59.306863345852" lon="18.020368096093">
        <ele>70.4</ele>
        <time>2016-04-08T16:49:57Z</time>
      </trkpt>
      <trkpt lat="59.306812048624" lon="18.019879179866">
        <ele>70.8</ele>
        <time>2016-04-08T16:50:01Z</time>
      </trkpt>
      <trkpt lat="59.306801152154" lon="18.01975814523">
        <ele>71.4</ele>
        <time>2016-04-08T16:50:02Z</time>
      </trkpt>
      <trkpt lat="59.306795201005" lon="18.019635434214">
        <ele>71.8</ele>
        <time>2016-04-08T16:50:03Z</time>
      </trkpt>
      <trkpt lat="59.306793524625" lon="18.019508280791">
        <ele>72.2</ele>
        <time>2016-04-08T16:50:04Z</time>
      </trkpt>
      <trkpt lat="59.306786735286" lon="18.01938934163">
        <ele>72.6</ele>
        <time>2016-04-08T16:50:05Z</time>
      </trkpt>
      <trkpt lat="59.306775419721" lon="18.019268977546">
        <ele>72.6</ele>
        <time>2016-04-08T16:50:06Z</time>
      </trkpt>
      <trkpt lat="59.306723451941" lon="18.018680735804">
        <ele>73</ele>
        <time>2016-04-08T16:50:11Z</time>
      </trkpt>
      <trkpt lat="59.306712974566" lon="18.018560120263">
        <ele>73.4</ele>
        <time>2016-04-08T16:50:12Z</time>
      </trkpt>
      <trkpt lat="59.306704173571" lon="18.018442270749">
        <ele>73.8</ele>
        <time>2016-04-08T16:50:13Z</time>
      </trkpt>
      <trkpt lat="59.30669839006" lon="18.018325091787">
        <ele>74.2</ele>
        <time>2016-04-08T16:50:14Z</time>
      </trkpt>
      <trkpt lat="59.306689756703" lon="18.01820414097">
        <ele>74.6</ele>
        <time>2016-04-08T16:50:15Z</time>
      </trkpt>
      <trkpt lat="59.30665815694" lon="18.017843467813">
        <ele>74.6</ele>
        <time>2016-04-08T16:50:18Z</time>
      </trkpt>
      <trkpt lat="59.306636447819" lon="18.017621263644">
        <ele>75</ele>
        <time>2016-04-08T16:50:20Z</time>
      </trkpt>
      <trkpt lat="59.306623120598" lon="18.017504503777">
        <ele>75.4</ele>
        <time>2016-04-08T16:50:21Z</time>
      </trkpt>
      <trkpt lat="59.306610463929" lon="18.017388833557">
        <ele>76</ele>
        <time>2016-04-08T16:50:22Z</time>
      </trkpt>
      <trkpt lat="59.30659948364" lon="18.017271319319">
        <ele>76.4</ele>
        <time>2016-04-08T16:50:23Z</time>
      </trkpt>
      <trkpt lat="59.306591017921" lon="18.017151206692">
        <ele>76.8</ele>
        <time>2016-04-08T16:50:24Z</time>
      </trkpt>
      <trkpt lat="59.306560507805" lon="18.016792880467">
        <ele>76.8</ele>
        <time>2016-04-08T16:50:27Z</time>
      </trkpt>
      <trkpt lat="59.306505354903" lon="18.016222911267">
        <ele>76.8</ele>
        <time>2016-04-08T16:50:32Z</time>
      </trkpt>
      <trkpt lat="59.30647207876" lon="18.01588067829">
        <ele>76.8</ele>
        <time>2016-04-08T16:50:35Z</time>
      </trkpt>
      <trkpt lat="59.306437545332" lon="18.015530985422">
        <ele>76.8</ele>
        <time>2016-04-08T16:50:38Z</time>
      </trkpt>
      <trkpt lat="59.306357582006" lon="18.01468877211">
        <ele>76.8</ele>
        <time>2016-04-08T16:50:45Z</time>
      </trkpt>
      <trkpt lat="59.306281893449" lon="18.01383214193">
        <ele>77.2</ele>
        <time>2016-04-08T16:50:52Z</time>
      </trkpt>
      <trkpt lat="59.306271835169" lon="18.01371982447">
        <ele>77.6</ele>
        <time>2016-04-08T16:50:53Z</time>
      </trkpt>
      <trkpt lat="59.306264040002" lon="18.013620582774">
        <ele>78</ele>
        <time>2016-04-08T16:50:54Z</time>
      </trkpt>
      <trkpt lat="59.306252640618" lon="18.013520838164">
        <ele>78.4</ele>
        <time>2016-04-08T16:50:55Z</time>
      </trkpt>
      <trkpt lat="59.306240067768" lon="18.013433247309">
        <ele>78.8</ele>
        <time>2016-04-08T16:50:56Z</time>
      </trkpt>
      <trkpt lat="59.306224896529" lon="18.013353116345">
        <ele>78.8</ele>
        <time>2016-04-08T16:50:57Z</time>
      </trkpt>
      <trkpt lat="59.30621056348" lon="18.013304166049">
        <ele>79.4</ele>
        <time>2016-04-08T16:50:59Z</time>
      </trkpt>
      <trkpt lat="59.306208635643" lon="18.013292682846">
        <ele>79.8</ele>
        <time>2016-04-08T16:51:00Z</time>
      </trkpt>
      <trkpt lat="59.306208551824" lon="18.013298382538">
        <ele>80.2</ele>
        <time>2016-04-08T16:51:01Z</time>
      </trkpt>
      <trkpt lat="59.30624073832" lon="18.013220430868">
        <ele>81</ele>
        <time>2016-04-08T16:51:11Z</time>
      </trkpt>
      <trkpt lat="59.306239397216" lon="18.013169720373">
        <ele>81</ele>
        <time>2016-04-08T16:51:12Z</time>
      </trkpt>
      <trkpt lat="59.306222717235" lon="18.01288247266">
        <ele>81</ele>
        <time>2016-04-08T16:51:16Z</time>
      </trkpt>
      <trkpt lat="59.306214167697" lon="18.012790187941">
        <ele>81</ele>
        <time>2016-04-08T16:51:17Z</time>
      </trkpt>
      <trkpt lat="59.306177622613" lon="18.012384420162">
        <ele>81</ele>
        <time>2016-04-08T16:51:21Z</time>
      </trkpt>
      <trkpt lat="59.306174102215" lon="18.012274114358">
        <ele>81</ele>
        <time>2016-04-08T16:51:22Z</time>
      </trkpt>
      <trkpt lat="59.306119116951" lon="18.011819480102">
        <ele>81</ele>
        <time>2016-04-08T16:51:26Z</time>
      </trkpt>
      <trkpt lat="59.306044518041" lon="18.011228556152">
        <ele>81</ele>
        <time>2016-04-08T16:51:31Z</time>
      </trkpt>
      <trkpt lat="59.306006296577" lon="18.010864865511">
        <ele>81.4</ele>
        <time>2016-04-08T16:51:34Z</time>
      </trkpt>
      <trkpt lat="59.305994981012" lon="18.010753134784">
        <ele>82</ele>
        <time>2016-04-08T16:51:35Z</time>
      </trkpt>
      <trkpt lat="59.305986431474" lon="18.010641320238">
        <ele>82.4</ele>
        <time>2016-04-08T16:51:36Z</time>
      </trkpt>
      <trkpt lat="59.305972852796" lon="18.010530595339">
        <ele>83</ele>
        <time>2016-04-08T16:51:37Z</time>
      </trkpt>
      <trkpt lat="59.305959274118" lon="18.010426156865">
        <ele>83.4</ele>
        <time>2016-04-08T16:51:38Z</time>
      </trkpt>
      <trkpt lat="59.305896661325" lon="18.00977362595">
        <ele>83.4</ele>
        <time>2016-04-08T16:51:44Z</time>
      </trkpt>
      <trkpt lat="59.305819799302" lon="18.00895555251">
        <ele>83.4</ele>
        <time>2016-04-08T16:51:51Z</time>
      </trkpt>
      <trkpt lat="59.305794318326" lon="18.008521956823">
        <ele>83.4</ele>
        <time>2016-04-08T16:51:55Z</time>
      </trkpt>
      <trkpt lat="59.305769507902" lon="18.008150806291">
        <ele>84</ele>
        <time>2016-04-08T16:51:58Z</time>
      </trkpt>
      <trkpt lat="59.305763724391" lon="18.008033375872">
        <ele>84.4</ele>
        <time>2016-04-08T16:51:59Z</time>
      </trkpt>
      <trkpt lat="59.305756851233" lon="18.007914269073">
        <ele>84.8</ele>
        <time>2016-04-08T16:52:00Z</time>
      </trkpt>
      <trkpt lat="59.305751402998" lon="18.007799939957">
        <ele>85.2</ele>
        <time>2016-04-08T16:52:01Z</time>
      </trkpt>
      <trkpt lat="59.305744865116" lon="18.007688376868">
        <ele>85.6</ele>
        <time>2016-04-08T16:52:02Z</time>
      </trkpt>
      <trkpt lat="59.305710415507" lon="18.007075073245">
        <ele>85.6</ele>
        <time>2016-04-08T16:52:07Z</time>
      </trkpt>
      <trkpt lat="59.305683425789" lon="18.006317684761">
        <ele>85.6</ele>
        <time>2016-04-08T16:52:13Z</time>
      </trkpt>
      <trkpt lat="59.305667751636" lon="18.005935637759">
        <ele>85.6</ele>
        <time>2016-04-08T16:52:16Z</time>
      </trkpt>
      <trkpt lat="59.305660459383" lon="18.00567403866">
        <ele>85.6</ele>
        <time>2016-04-08T16:52:18Z</time>
      </trkpt>
      <trkpt lat="59.30564394704" lon="18.00484758332">
        <ele>85.6</ele>
        <time>2016-04-08T16:52:24Z</time>
      </trkpt>
      <trkpt lat="59.305641767746" lon="18.003739160864">
        <ele>85.6</ele>
        <time>2016-04-08T16:52:32Z</time>
      </trkpt>
      <trkpt lat="59.305645707239" lon="18.003463647811">
        <ele>85.6</ele>
        <time>2016-04-08T16:52:34Z</time>
      </trkpt>
      <trkpt lat="59.30564394704" lon="18.003315120543">
        <ele>85</ele>
        <time>2016-04-08T16:52:35Z</time>
      </trkpt>
      <trkpt lat="59.30564310885" lon="18.003172125329">
        <ele>84.6</ele>
        <time>2016-04-08T16:52:36Z</time>
      </trkpt>
      <trkpt lat="59.305640091366" lon="18.003028375744">
        <ele>84</ele>
        <time>2016-04-08T16:52:37Z</time>
      </trkpt>
      <trkpt lat="59.305631038914" lon="18.002887392186">
        <ele>83.6</ele>
        <time>2016-04-08T16:52:38Z</time>
      </trkpt>
      <trkpt lat="59.305626764145" lon="18.002752527415">
        <ele>83</ele>
        <time>2016-04-08T16:52:39Z</time>
      </trkpt>
      <trkpt lat="59.305625087765" lon="18.002473745421">
        <ele>83</ele>
        <time>2016-04-08T16:52:41Z</time>
      </trkpt>
      <trkpt lat="59.305610167983" lon="18.002076946275">
        <ele>83</ele>
        <time>2016-04-08T16:52:44Z</time>
      </trkpt>
      <trkpt lat="59.30560119935" lon="18.001854993563">
        <ele>83</ele>
        <time>2016-04-08T16:52:46Z</time>
      </trkpt>
      <trkpt lat="59.305595667296" lon="18.001675537084">
        <ele>83</ele>
        <time>2016-04-08T16:52:48Z</time>
      </trkpt>
      <trkpt lat="59.305563732257" lon="18.001486357601">
        <ele>83</ele>
        <time>2016-04-08T16:52:50Z</time>
      </trkpt>
      <trkpt lat="59.30555761347" lon="18.001300530878">
        <ele>83</ele>
        <time>2016-04-08T16:52:52Z</time>
      </trkpt>
      <trkpt lat="59.305548309561" lon="18.000970200199">
        <ele>83</ele>
        <time>2016-04-08T16:52:56Z</time>
      </trkpt>
      <trkpt lat="59.305545208258" lon="18.000736512827">
        <ele>83</ele>
        <time>2016-04-08T16:52:59Z</time>
      </trkpt>
      <trkpt lat="59.30555090795" lon="18.000543812946">
        <ele>83</ele>
        <time>2016-04-08T16:53:01Z</time>
      </trkpt>
      <trkpt lat="59.305543950973" lon="18.000315154714">
        <ele>83</ele>
        <time>2016-04-08T16:53:03Z</time>
      </trkpt>
      <trkpt lat="59.305538670376" lon="18.000064200628">
        <ele>83</ele>
        <time>2016-04-08T16:53:05Z</time>
      </trkpt>
      <trkpt lat="59.30553749691" lon="17.999787346471">
        <ele>83</ele>
        <time>2016-04-08T16:53:07Z</time>
      </trkpt>
      <trkpt lat="59.305539760023" lon="17.999644351257">
        <ele>82.6</ele>
        <time>2016-04-08T16:53:08Z</time>
      </trkpt>
      <trkpt lat="59.305538418919" lon="17.999501104586">
        <ele>82</ele>
        <time>2016-04-08T16:53:09Z</time>
      </trkpt>
      <trkpt lat="59.305538586557" lon="17.999361545951">
        <ele>81.6</ele>
        <time>2016-04-08T16:53:10Z</time>
      </trkpt>
      <trkpt lat="59.305532383951" lon="17.999222993144">
        <ele>81.2</ele>
        <time>2016-04-08T16:53:11Z</time>
      </trkpt>
      <trkpt lat="59.305528863553" lon="17.999082344862">
        <ele>80.8</ele>
        <time>2016-04-08T16:53:12Z</time>
      </trkpt>
      <trkpt lat="59.305514279047" lon="17.998524948512">
        <ele>80.8</ele>
        <time>2016-04-08T16:53:16Z</time>
      </trkpt>
      <trkpt lat="59.305516374522" lon="17.998155390541">
        <ele>80.8</ele>
        <time>2016-04-08T16:53:19Z</time>
      </trkpt>
      <trkpt lat="59.305515620151" lon="17.997906448111">
        <ele>80.8</ele>
        <time>2016-04-08T16:53:21Z</time>
      </trkpt>
      <trkpt lat="59.305477733963" lon="17.997354080901">
        <ele>80.8</ele>
        <time>2016-04-08T16:53:25Z</time>
      </trkpt>
      <trkpt lat="59.305468597692" lon="17.997201781778">
        <ele>80.8</ele>
        <time>2016-04-08T16:53:26Z</time>
      </trkpt>
      <trkpt lat="59.305446301838" lon="17.996726528048">
        <ele>80.4</ele>
        <time>2016-04-08T16:53:29Z</time>
      </trkpt>
      <trkpt lat="59.305442613802" lon="17.99656961888">
        <ele>80</ele>
        <time>2016-04-08T16:53:30Z</time>
      </trkpt>
      <trkpt lat="59.305430795323" lon="17.996412709712">
        <ele>79.6</ele>
        <time>2016-04-08T16:53:31Z</time>
      </trkpt>
      <trkpt lat="59.305417551921" lon="17.996247167187">
        <ele>78.6</ele>
        <time>2016-04-08T16:53:32Z</time>
      </trkpt>
      <trkpt lat="59.305370780919" lon="17.995568484744">
        <ele>78.2</ele>
        <time>2016-04-08T16:53:37Z</time>
      </trkpt>
      <trkpt lat="59.305364578313" lon="17.995406546436">
        <ele>77.8</ele>
        <time>2016-04-08T16:53:38Z</time>
      </trkpt>
      <trkpt lat="59.305352676015" lon="17.995241590644">
        <ele>77.4</ele>
        <time>2016-04-08T16:53:39Z</time>
      </trkpt>
      <trkpt lat="59.305343120649" lon="17.995084010924">
        <ele>77</ele>
        <time>2016-04-08T16:53:40Z</time>
      </trkpt>
      <trkpt lat="59.305332056541" lon="17.994930873611">
        <ele>76.6</ele>
        <time>2016-04-08T16:53:41Z</time>
      </trkpt>
      <trkpt lat="59.305304647728" lon="17.994476909907">
        <ele>76.6</ele>
        <time>2016-04-08T16:53:44Z</time>
      </trkpt>
      <trkpt lat="59.305273215603" lon="17.993691609696">
        <ele>76.2</ele>
        <time>2016-04-08T16:53:49Z</time>
      </trkpt>
      <trkpt lat="59.305266174807" lon="17.993532772691">
        <ele>75.8</ele>
        <time>2016-04-08T16:53:50Z</time>
      </trkpt>
      <trkpt lat="59.305258882554" lon="17.993373265134">
        <ele>75.4</ele>
        <time>2016-04-08T16:53:51Z</time>
      </trkpt>
      <trkpt lat="59.30524915955" lon="17.993202525831">
        <ele>75</ele>
        <time>2016-04-08T16:53:52Z</time>
      </trkpt>
      <trkpt lat="59.305248824274" lon="17.993044527016">
        <ele>74.4</ele>
        <time>2016-04-08T16:53:53Z</time>
      </trkpt>
      <trkpt lat="59.305229545904" lon="17.992716291812">
        <ele>74.4</ele>
        <time>2016-04-08T16:53:55Z</time>
      </trkpt>
      <trkpt lat="59.305167938939" lon="17.99171566059">
        <ele>74.4</ele>
        <time>2016-04-08T16:54:01Z</time>
      </trkpt>
      <trkpt lat="59.305152097148" lon="17.991384407902">
        <ele>74</ele>
        <time>2016-04-08T16:54:03Z</time>
      </trkpt>
      <trkpt lat="59.305140111031" lon="17.991210734934">
        <ele>73.6</ele>
        <time>2016-04-08T16:54:04Z</time>
      </trkpt>
      <trkpt lat="59.30513181295" lon="17.991045779142">
        <ele>73.2</ele>
        <time>2016-04-08T16:54:05Z</time>
      </trkpt>
      <trkpt lat="59.30512091648" lon="17.99087914697">
        <ele>72.8</ele>
        <time>2016-04-08T16:54:06Z</time>
      </trkpt>
      <trkpt lat="59.305110103829" lon="17.990705390183">
        <ele>72.4</ele>
        <time>2016-04-08T16:54:07Z</time>
      </trkpt>
      <trkpt lat="59.305055118565" lon="17.989704172228">
        <ele>72.4</ele>
        <time>2016-04-08T16:54:13Z</time>
      </trkpt>
      <trkpt lat="59.305048329226" lon="17.989539132617">
        <ele>72.4</ele>
        <time>2016-04-08T16:54:14Z</time>
      </trkpt>
      <trkpt lat="59.305021507146" lon="17.989093215537">
        <ele>72.4</ele>
        <time>2016-04-08T16:54:17Z</time>
      </trkpt>
      <trkpt lat="59.304997954007" lon="17.988663475524">
        <ele>72.4</ele>
        <time>2016-04-08T16:54:20Z</time>
      </trkpt>
      <trkpt lat="59.304967276253" lon="17.988347729351">
        <ele>72</ele>
        <time>2016-04-08T16:54:22Z</time>
      </trkpt>
      <trkpt lat="59.304953865213" lon="17.988190484907">
        <ele>71.2</ele>
        <time>2016-04-08T16:54:23Z</time>
      </trkpt>
      <trkpt lat="59.30494238201" lon="17.988030558255">
        <ele>70.8</ele>
        <time>2016-04-08T16:54:24Z</time>
      </trkpt>
      <trkpt lat="59.304929557703" lon="17.987869709594">
        <ele>70.4</ele>
        <time>2016-04-08T16:54:25Z</time>
      </trkpt>
      <trkpt lat="59.304876165" lon="17.987232098461">
        <ele>70.4</ele>
        <time>2016-04-08T16:54:29Z</time>
      </trkpt>
      <trkpt lat="59.304812630198" lon="17.986269269608">
        <ele>70</ele>
        <time>2016-04-08T16:54:35Z</time>
      </trkpt>
      <trkpt lat="59.304803493927" lon="17.986114288277">
        <ele>69.6</ele>
        <time>2016-04-08T16:54:36Z</time>
      </trkpt>
      <trkpt lat="59.304792094543" lon="17.985963916991">
        <ele>69</ele>
        <time>2016-04-08T16:54:37Z</time>
      </trkpt>
      <trkpt lat="59.304786897765" lon="17.985806169633">
        <ele>68.6</ele>
        <time>2016-04-08T16:54:38Z</time>
      </trkpt>
      <trkpt lat="59.30477977315" lon="17.985655714528">
        <ele>68.2</ele>
        <time>2016-04-08T16:54:39Z</time>
      </trkpt>
      <trkpt lat="59.304755214183" lon="17.98521717352">
        <ele>68.2</ele>
        <time>2016-04-08T16:54:42Z</time>
      </trkpt>
      <trkpt lat="59.304723446782" lon="17.984305138981">
        <ele>68.2</ele>
        <time>2016-04-08T16:54:48Z</time>
      </trkpt>
      <trkpt lat="59.304676424323" lon="17.983267878856">
        <ele>68.2</ele>
        <time>2016-04-08T16:54:55Z</time>
      </trkpt>
      <trkpt lat="59.304669634984" lon="17.983122117615">
        <ele>68.2</ele>
        <time>2016-04-08T16:54:56Z</time>
      </trkpt>
      <trkpt lat="59.304629318045" lon="17.982139926573">
        <ele>68.2</ele>
        <time>2016-04-08T16:55:03Z</time>
      </trkpt>
      <trkpt lat="59.304592940599" lon="17.98136820504">
        <ele>68.2</ele>
        <time>2016-04-08T16:55:09Z</time>
      </trkpt>
      <trkpt lat="59.304584642518" lon="17.981238788504">
        <ele>68.2</ele>
        <time>2016-04-08T16:55:10Z</time>
      </trkpt>
      <trkpt lat="59.30456519651" lon="17.980997054508">
        <ele>68.6</ele>
        <time>2016-04-08T16:55:12Z</time>
      </trkpt>
      <trkpt lat="59.304553545669" lon="17.98087870208">
        <ele>69.2</ele>
        <time>2016-04-08T16:55:13Z</time>
      </trkpt>
      <trkpt lat="59.304546169597" lon="17.980750710467">
        <ele>69.6</ele>
        <time>2016-04-08T16:55:14Z</time>
      </trkpt>
      <trkpt lat="59.304545331407" lon="17.980632441858">
        <ele>70</ele>
        <time>2016-04-08T16:55:15Z</time>
      </trkpt>
      <trkpt lat="59.304546840149" lon="17.980513418878">
        <ele>70.4</ele>
        <time>2016-04-08T16:55:16Z</time>
      </trkpt>
      <trkpt lat="59.304538206792" lon="17.980398335391">
        <ele>70.4</ele>
        <time>2016-04-08T16:55:17Z</time>
      </trkpt>
      <trkpt lat="59.304522281182" lon="17.980147213667">
        <ele>70.4</ele>
        <time>2016-04-08T16:55:19Z</time>
      </trkpt>
      <trkpt lat="59.304515156567" lon="17.979896427219">
        <ele>70.8</ele>
        <time>2016-04-08T16:55:21Z</time>
      </trkpt>
      <trkpt lat="59.304513144911" lon="17.979772710375">
        <ele>71.2</ele>
        <time>2016-04-08T16:55:22Z</time>
      </trkpt>
      <trkpt lat="59.30451071416" lon="17.97964740097">
        <ele>71.6</ele>
        <time>2016-04-08T16:55:23Z</time>
      </trkpt>
      <trkpt lat="59.304497135482" lon="17.979526785429">
        <ele>72.2</ele>
        <time>2016-04-08T16:55:24Z</time>
      </trkpt>
      <trkpt lat="59.304483389166" lon="17.979401140748">
        <ele>72.6</ele>
        <time>2016-04-08T16:55:25Z</time>
      </trkpt>
      <trkpt lat="59.304475593999" lon="17.979272562402">
        <ele>72.6</ele>
        <time>2016-04-08T16:55:26Z</time>
      </trkpt>
      <trkpt lat="59.304451957041" lon="17.978896215092">
        <ele>73</ele>
        <time>2016-04-08T16:55:29Z</time>
      </trkpt>
      <trkpt lat="59.304436701983" lon="17.978771827696">
        <ele>73.4</ele>
        <time>2016-04-08T16:55:30Z</time>
      </trkpt>
      <trkpt lat="59.304413065025" lon="17.978652972354">
        <ele>73.8</ele>
        <time>2016-04-08T16:55:31Z</time>
      </trkpt>
      <trkpt lat="59.304394624845" lon="17.978540403437">
        <ele>74.4</ele>
        <time>2016-04-08T16:55:32Z</time>
      </trkpt>
      <trkpt lat="59.304376771398" lon="17.978423895027">
        <ele>74.8</ele>
        <time>2016-04-08T16:55:33Z</time>
      </trkpt>
      <trkpt lat="59.304328407835" lon="17.978198086641">
        <ele>74.8</ele>
        <time>2016-04-08T16:55:35Z</time>
      </trkpt>
      <trkpt lat="59.304292365665" lon="17.978088535208">
        <ele>75.2</ele>
        <time>2016-04-08T16:55:36Z</time>
      </trkpt>
      <trkpt lat="59.304259592436" lon="17.977978145585">
        <ele>76</ele>
        <time>2016-04-08T16:55:37Z</time>
      </trkpt>
      <trkpt lat="59.304224220818" lon="17.977860296071">
        <ele>76.4</ele>
        <time>2016-04-08T16:55:38Z</time>
      </trkpt>
      <trkpt lat="59.30418633463" lon="17.977761389651">
        <ele>76.8</ele>
        <time>2016-04-08T16:55:39Z</time>
      </trkpt>
      <trkpt lat="59.304122464552" lon="17.977588554873">
        <ele>77.4</ele>
        <time>2016-04-08T16:55:41Z</time>
      </trkpt>
      <trkpt lat="59.304105281657" lon="17.977488726444">
        <ele>78</ele>
        <time>2016-04-08T16:55:42Z</time>
      </trkpt>
      <trkpt lat="59.304088182581" lon="17.97737087693">
        <ele>78.4</ele>
        <time>2016-04-08T16:55:43Z</time>
      </trkpt>
      <trkpt lat="59.304069574763" lon="17.977267025189">
        <ele>79</ele>
        <time>2016-04-08T16:55:44Z</time>
      </trkpt>
      <trkpt lat="59.304039064647" lon="17.977174572832">
        <ele>79.6</ele>
        <time>2016-04-08T16:55:45Z</time>
      </trkpt>
      <trkpt lat="59.303969578696" lon="17.976976340897">
        <ele>79.6</ele>
        <time>2016-04-08T16:55:47Z</time>
      </trkpt>
      <trkpt lat="59.303912330319" lon="17.976760339334">
        <ele>79.6</ele>
        <time>2016-04-08T16:55:49Z</time>
      </trkpt>
      <trkpt lat="59.30382172198" lon="17.976415088873">
        <ele>79.6</ele>
        <time>2016-04-08T16:55:52Z</time>
      </trkpt>
      <trkpt lat="59.303654419256" lon="17.975642193874">
        <ele>79.6</ele>
        <time>2016-04-08T16:55:59Z</time>
      </trkpt>
      <trkpt lat="59.303520727951" lon="17.97500466656">
        <ele>79.6</ele>
        <time>2016-04-08T16:56:05Z</time>
      </trkpt>
      <trkpt lat="59.303422994997" lon="17.974608370328">
        <ele>79.6</ele>
        <time>2016-04-08T16:56:09Z</time>
      </trkpt>
      <trkpt lat="59.303357616177" lon="17.974433691532">
        <ele>79.6</ele>
        <time>2016-04-08T16:56:11Z</time>
      </trkpt>
      <trkpt lat="59.303125018452" lon="17.973952989567">
        <ele>79.6</ele>
        <time>2016-04-08T16:56:17Z</time>
      </trkpt>
      <trkpt lat="59.303041199452" lon="17.973792895277">
        <ele>80</ele>
        <time>2016-04-08T16:56:19Z</time>
      </trkpt>
      <trkpt lat="59.302998284124" lon="17.973710082105">
        <ele>80.4</ele>
        <time>2016-04-08T16:56:20Z</time>
      </trkpt>
      <trkpt lat="59.302962325773" lon="17.973637075756">
        <ele>80.8</ele>
        <time>2016-04-08T16:56:21Z</time>
      </trkpt>
      <trkpt lat="59.302922427929" lon="17.973564991416">
        <ele>81.2</ele>
        <time>2016-04-08T16:56:22Z</time>
      </trkpt>
      <trkpt lat="59.302881775714" lon="17.973495170189">
        <ele>81.6</ele>
        <time>2016-04-08T16:56:23Z</time>
      </trkpt>
      <trkpt lat="59.302841458775" lon="17.973420068365">
        <ele>81.6</ele>
        <time>2016-04-08T16:56:24Z</time>
      </trkpt>
      <trkpt lat="59.302643562116" lon="17.973033327499">
        <ele>82</ele>
        <time>2016-04-08T16:56:29Z</time>
      </trkpt>
      <trkpt lat="59.302612046172" lon="17.972962668082">
        <ele>82.4</ele>
        <time>2016-04-08T16:56:30Z</time>
      </trkpt>
      <trkpt lat="59.302574579079" lon="17.97288823681">
        <ele>82.8</ele>
        <time>2016-04-08T16:56:31Z</time>
      </trkpt>
      <trkpt lat="59.302535687063" lon="17.972806513285">
        <ele>83.2</ele>
        <time>2016-04-08T16:56:32Z</time>
      </trkpt>
      <trkpt lat="59.302493693744" lon="17.97273065709">
        <ele>83.6</ele>
        <time>2016-04-08T16:56:33Z</time>
      </trkpt>
      <trkpt lat="59.302410545296" lon="17.972571987723">
        <ele>83.6</ele>
        <time>2016-04-08T16:56:35Z</time>
      </trkpt>
      <trkpt lat="59.302243661667" lon="17.972254900446">
        <ele>83.6</ele>
        <time>2016-04-08T16:56:39Z</time>
      </trkpt>
      <trkpt lat="59.302202506538" lon="17.972175188577">
        <ele>83.6</ele>
        <time>2016-04-08T16:56:40Z</time>
      </trkpt>
      <trkpt lat="59.301935626842" lon="17.97168627235">
        <ele>83.6</ele>
        <time>2016-04-08T16:56:46Z</time>
      </trkpt>
      <trkpt lat="59.301857507534" lon="17.971500697084">
        <ele>83.6</ele>
        <time>2016-04-08T16:56:48Z</time>
      </trkpt>
      <trkpt lat="59.301783327719" lon="17.971290898127">
        <ele>84</ele>
        <time>2016-04-08T16:56:50Z</time>
      </trkpt>
      <trkpt lat="59.301747537006" lon="17.971173551527">
        <ele>84.8</ele>
        <time>2016-04-08T16:56:51Z</time>
      </trkpt>
      <trkpt lat="59.30171451232" lon="17.971061401705">
        <ele>85.2</ele>
        <time>2016-04-08T16:56:52Z</time>
      </trkpt>
      <trkpt lat="59.301682493462" lon="17.970950090073">
        <ele>85.6</ele>
        <time>2016-04-08T16:56:53Z</time>
      </trkpt>
      <trkpt lat="59.30158124011" lon="17.970495036722">
        <ele>85.6</ele>
        <time>2016-04-08T16:56:57Z</time>
      </trkpt>
      <trkpt lat="59.3013892946" lon="17.96968216006">
        <ele>85.6</ele>
        <time>2016-04-08T16:57:04Z</time>
      </trkpt>
      <trkpt lat="59.301186284982" lon="17.96883307359">
        <ele>85.6</ele>
        <time>2016-04-08T16:57:11Z</time>
      </trkpt>
      <trkpt lat="59.300960644234" lon="17.967815594749">
        <ele>85.6</ele>
        <time>2016-04-08T16:57:19Z</time>
      </trkpt>
      <trkpt lat="59.300833490811" lon="17.967064744147">
        <ele>85.6</ele>
        <time>2016-04-08T16:57:25Z</time>
      </trkpt>
      <trkpt lat="59.300818822486" lon="17.966940692027">
        <ele>86</ele>
        <time>2016-04-08T16:57:26Z</time>
      </trkpt>
      <trkpt lat="59.300800382306" lon="17.966817310459">
        <ele>86.4</ele>
        <time>2016-04-08T16:57:27Z</time>
      </trkpt>
      <trkpt lat="59.300792670958" lon="17.966693258339">
        <ele>86.8</ele>
        <time>2016-04-08T16:57:28Z</time>
      </trkpt>
      <trkpt lat="59.300779679013" lon="17.966566272554">
        <ele>87.2</ele>
        <time>2016-04-08T16:57:29Z</time>
      </trkpt>
      <trkpt lat="59.300770794199" lon="17.966443896814">
        <ele>87.6</ele>
        <time>2016-04-08T16:57:30Z</time>
      </trkpt>
      <trkpt lat="59.30075981391" lon="17.966322023988">
        <ele>87.6</ele>
        <time>2016-04-08T16:57:31Z</time>
      </trkpt>
      <trkpt lat="59.300704661008" lon="17.96586169004">
        <ele>87.6</ele>
        <time>2016-04-08T16:57:35Z</time>
      </trkpt>
      <trkpt lat="59.30065671654" lon="17.965251822996">
        <ele>88</ele>
        <time>2016-04-08T16:57:40Z</time>
      </trkpt>
      <trkpt lat="59.300649508106" lon="17.965129866351">
        <ele>88.4</ele>
        <time>2016-04-08T16:57:41Z</time>
      </trkpt>
      <trkpt lat="59.300646155346" lon="17.965000114539">
        <ele>88.8</ele>
        <time>2016-04-08T16:57:42Z</time>
      </trkpt>
      <trkpt lat="59.300640371835" lon="17.964868770166">
        <ele>89.2</ele>
        <time>2016-04-08T16:57:43Z</time>
      </trkpt>
      <trkpt lat="59.300635007419" lon="17.964734575947">
        <ele>89.6</ele>
        <time>2016-04-08T16:57:44Z</time>
      </trkpt>
      <trkpt lat="59.30058798496" lon="17.964224369694">
        <ele>89.6</ele>
        <time>2016-04-08T16:57:48Z</time>
      </trkpt>
      <trkpt lat="59.300519504837" lon="17.963296996278">
        <ele>89.6</ele>
        <time>2016-04-08T16:57:55Z</time>
      </trkpt>
      <trkpt lat="59.300473404387" lon="17.962216653187">
        <ele>89.6</ele>
        <time>2016-04-08T16:58:03Z</time>
      </trkpt>
      <trkpt lat="59.300462088822" lon="17.961934937528">
        <ele>89.6</ele>
        <time>2016-04-08T16:58:05Z</time>
      </trkpt>
      <trkpt lat="59.300476589509" lon="17.961502599126">
        <ele>89.6</ele>
        <time>2016-04-08T16:58:08Z</time>
      </trkpt>
      <trkpt lat="59.300581111802" lon="17.960639514883">
        <ele>89.2</ele>
        <time>2016-04-08T16:58:14Z</time>
      </trkpt>
      <trkpt lat="59.300609861719" lon="17.960501884085">
        <ele>88.8</ele>
        <time>2016-04-08T16:58:15Z</time>
      </trkpt>
      <trkpt lat="59.300639701283" lon="17.960365259115">
        <ele>88.4</ele>
        <time>2016-04-08T16:58:16Z</time>
      </trkpt>
      <trkpt lat="59.300667026277" lon="17.960221425711">
        <ele>88</ele>
        <time>2016-04-08T16:58:17Z</time>
      </trkpt>
      <trkpt lat="59.300697704031" lon="17.960078011402">
        <ele>87.6</ele>
        <time>2016-04-08T16:58:18Z</time>
      </trkpt>
      <trkpt lat="59.300793006234" lon="17.959648774303">
        <ele>87.6</ele>
        <time>2016-04-08T16:58:21Z</time>
      </trkpt>
      <trkpt lat="59.300968271763" lon="17.958820642583">
        <ele>87.6</ele>
        <time>2016-04-08T16:58:27Z</time>
      </trkpt>
      <trkpt lat="59.30103138747" lon="17.958428453482">
        <ele>87.6</ele>
        <time>2016-04-08T16:58:30Z</time>
      </trkpt>
      <trkpt lat="59.301052845134" lon="17.958160651777">
        <ele>87.6</ele>
        <time>2016-04-08T16:58:32Z</time>
      </trkpt>
      <trkpt lat="59.301046726347" lon="17.9580195844">
        <ele>87.6</ele>
        <time>2016-04-08T16:58:33Z</time>
      </trkpt>
      <trkpt lat="59.301054605333" lon="17.957753626713">
        <ele>87.6</ele>
        <time>2016-04-08T16:58:35Z</time>
      </trkpt>
      <trkpt lat="59.301049157098" lon="17.957517843866">
        <ele>88</ele>
        <time>2016-04-08T16:58:37Z</time>
      </trkpt>
      <trkpt lat="59.301051252573" lon="17.957411142279">
        <ele>88.4</ele>
        <time>2016-04-08T16:58:38Z</time>
      </trkpt>
      <trkpt lat="59.301051755487" lon="17.957312738773">
        <ele>88.8</ele>
        <time>2016-04-08T16:58:39Z</time>
      </trkpt>
      <trkpt lat="59.301046558709" lon="17.957233697456">
        <ele>89.2</ele>
        <time>2016-04-08T16:58:40Z</time>
      </trkpt>
      <trkpt lat="59.301022670294" lon="17.957174605061">
        <ele>89.6</ele>
        <time>2016-04-08T16:58:41Z</time>
      </trkpt>
      <trkpt lat="59.300936169086" lon="17.957174605061">
        <ele>89.6</ele>
        <time>2016-04-08T16:58:43Z</time>
      </trkpt>
      <trkpt lat="59.300831311517" lon="17.957165301152">
        <ele>89.6</ele>
        <time>2016-04-08T16:58:45Z</time>
      </trkpt>
      <trkpt lat="59.300711450347" lon="17.957148369714">
        <ele>89.6</ele>
        <time>2016-04-08T16:58:47Z</time>
      </trkpt>
      <trkpt lat="59.300582369087" lon="17.957137557063">
        <ele>89.6</ele>
        <time>2016-04-08T16:58:49Z</time>
      </trkpt>
      <trkpt lat="59.300434931466" lon="17.957109393879">
        <ele>89.6</ele>
        <time>2016-04-08T16:58:51Z</time>
      </trkpt>
      <trkpt lat="59.300039557243" lon="17.957100425246">
        <ele>89.6</ele>
        <time>2016-04-08T16:58:57Z</time>
      </trkpt>
      <trkpt lat="59.299794973401" lon="17.957002189378">
        <ele>90</ele>
        <time>2016-04-08T16:59:01Z</time>
      </trkpt>
      <trkpt lat="59.299732109151" lon="17.956974277651">
        <ele>90.4</ele>
        <time>2016-04-08T16:59:02Z</time>
      </trkpt>
      <trkpt lat="59.299669663996" lon="17.956952903806">
        <ele>91</ele>
        <time>2016-04-08T16:59:03Z</time>
      </trkpt>
      <trkpt lat="59.299606715927" lon="17.956931529961">
        <ele>91.4</ele>
        <time>2016-04-08T16:59:04Z</time>
      </trkpt>
      <trkpt lat="59.299541672383" lon="17.956902612406">
        <ele>91.8</ele>
        <time>2016-04-08T16:59:05Z</time>
      </trkpt>
      <trkpt lat="59.29917312024" lon="17.956732795112">
        <ele>91.8</ele>
        <time>2016-04-08T16:59:11Z</time>
      </trkpt>
      <trkpt lat="59.298586303421" lon="17.956586111862">
        <ele>91.8</ele>
        <time>2016-04-08T16:59:20Z</time>
      </trkpt>
      <trkpt lat="59.298141224531" lon="17.95647647661">
        <ele>92.2</ele>
        <time>2016-04-08T16:59:27Z</time>
      </trkpt>
      <trkpt lat="59.298077522091" lon="17.956462562656">
        <ele>92.6</ele>
        <time>2016-04-08T16:59:28Z</time>
      </trkpt>
      <trkpt lat="59.298017591506" lon="17.956447223779">
        <ele>93</ele>
        <time>2016-04-08T16:59:29Z</time>
      </trkpt>
      <trkpt lat="59.297954894894" lon="17.956429621789">
        <ele>93.4</ele>
        <time>2016-04-08T16:59:30Z</time>
      </trkpt>
      <trkpt lat="59.297893958481" lon="17.956413947636">
        <ele>93.8</ele>
        <time>2016-04-08T16:59:31Z</time>
      </trkpt>
      <trkpt lat="59.297628168432" lon="17.95634571897">
        <ele>93.8</ele>
        <time>2016-04-08T16:59:35Z</time>
      </trkpt>
      <trkpt lat="59.297121817853" lon="17.956108846476">
        <ele>93.8</ele>
        <time>2016-04-08T16:59:42Z</time>
      </trkpt>
      <trkpt lat="59.296934147112" lon="17.956040953086">
        <ele>94.2</ele>
        <time>2016-04-08T16:59:46Z</time>
      </trkpt>
      <trkpt lat="59.296872204871" lon="17.956014969196">
        <ele>94.6</ele>
        <time>2016-04-08T16:59:47Z</time>
      </trkpt>
      <trkpt lat="59.296812861019" lon="17.955984123804">
        <ele>95.2</ele>
        <time>2016-04-08T16:59:48Z</time>
      </trkpt>
      <trkpt lat="59.29675158933" lon="17.95595596062">
        <ele>95.6</ele>
        <time>2016-04-08T16:59:49Z</time>
      </trkpt>
      <trkpt lat="59.296688808899" lon="17.955927043065">
        <ele>96</ele>
        <time>2016-04-08T16:59:50Z</time>
      </trkpt>
      <trkpt lat="59.296554530861" lon="17.955860155503">
        <ele>96</ele>
        <time>2016-04-08T16:59:52Z</time>
      </trkpt>
      <trkpt lat="59.296055975449" lon="17.95562739014">
        <ele>96</ele>
        <time>2016-04-08T16:59:59Z</time>
      </trkpt>
      <trkpt lat="59.295491286846" lon="17.955293622882">
        <ele>96</ele>
        <time>2016-04-08T17:00:07Z</time>
      </trkpt>
      <trkpt lat="59.295018799143" lon="17.954895817908">
        <ele>96</ele>
        <time>2016-04-08T17:00:14Z</time>
      </trkpt>
      <trkpt lat="59.294552430227" lon="17.954401704903">
        <ele>96</ele>
        <time>2016-04-08T17:00:21Z</time>
      </trkpt>
      <trkpt lat="59.294280018477" lon="17.954117390855">
        <ele>96</ele>
        <time>2016-04-08T17:00:25Z</time>
      </trkpt>
      <trkpt lat="59.294208269413" lon="17.954061064487">
        <ele>96</ele>
        <time>2016-04-08T17:00:26Z</time>
      </trkpt>
      <trkpt lat="59.293858660364" lon="17.953755376594">
        <ele>96</ele>
        <time>2016-04-08T17:00:31Z</time>
      </trkpt>
      <trkpt lat="59.293363876807" lon="17.953296635207">
        <ele>95.6</ele>
        <time>2016-04-08T17:00:38Z</time>
      </trkpt>
      <trkpt lat="59.293293636485" lon="17.953236369346">
        <ele>95.2</ele>
        <time>2016-04-08T17:00:39Z</time>
      </trkpt>
      <trkpt lat="59.293224401991" lon="17.95316394973">
        <ele>94.8</ele>
        <time>2016-04-08T17:00:40Z</time>
      </trkpt>
      <trkpt lat="59.293158855533" lon="17.953089853734">
        <ele>94.4</ele>
        <time>2016-04-08T17:00:41Z</time>
      </trkpt>
      <trkpt lat="59.293091548876" lon="17.953007627295">
        <ele>94</ele>
        <time>2016-04-08T17:00:42Z</time>
      </trkpt>
      <trkpt lat="59.292887952525" lon="17.952770754801">
        <ele>94</ele>
        <time>2016-04-08T17:00:45Z</time>
      </trkpt>
      <trkpt lat="59.29241060332" lon="17.952205144189">
        <ele>94</ele>
        <time>2016-04-08T17:00:52Z</time>
      </trkpt>
      <trkpt lat="59.291947587164" lon="17.951672139168">
        <ele>94</ele>
        <time>2016-04-08T17:00:59Z</time>
      </trkpt>
      <trkpt lat="59.291598061934" lon="17.951278944239">
        <ele>93.6</ele>
        <time>2016-04-08T17:01:04Z</time>
      </trkpt>
      <trkpt lat="59.291528995078" lon="17.951195460515">
        <ele>93.2</ele>
        <time>2016-04-08T17:01:05Z</time>
      </trkpt>
      <trkpt lat="59.291460179679" lon="17.951107702022">
        <ele>92.6</ele>
        <time>2016-04-08T17:01:06Z</time>
      </trkpt>
      <trkpt lat="59.291391280461" lon="17.951023044832">
        <ele>92.2</ele>
        <time>2016-04-08T17:01:07Z</time>
      </trkpt>
      <trkpt lat="59.291318693207" lon="17.950937381814">
        <ele>91.8</ele>
        <time>2016-04-08T17:01:08Z</time>
      </trkpt>
      <trkpt lat="59.29081552775" lon="17.950362970207">
        <ele>91.8</ele>
        <time>2016-04-08T17:01:15Z</time>
      </trkpt>
      <trkpt lat="59.290604387689" lon="17.950114363053">
        <ele>91.4</ele>
        <time>2016-04-08T17:01:18Z</time>
      </trkpt>
      <trkpt lat="59.290539427964" lon="17.950021743058">
        <ele>91</ele>
        <time>2016-04-08T17:01:19Z</time>
      </trkpt>
      <trkpt lat="59.290472456583" lon="17.949936666773">
        <ele>90.6</ele>
        <time>2016-04-08T17:01:20Z</time>
      </trkpt>
      <trkpt lat="59.29040230008" lon="17.949859301836">
        <ele>90.2</ele>
        <time>2016-04-08T17:01:21Z</time>
      </trkpt>
      <trkpt lat="59.290331724482" lon="17.949782858908">
        <ele>89.6</ele>
        <time>2016-04-08T17:01:22Z</time>
      </trkpt>
      <trkpt lat="59.290137012945" lon="17.949519080515">
        <ele>89.6</ele>
        <time>2016-04-08T17:01:25Z</time>
      </trkpt>
      <trkpt lat="59.29003517286" lon="17.949293439767">
        <ele>89.6</ele>
        <time>2016-04-08T17:01:27Z</time>
      </trkpt>
      <trkpt lat="59.28980383242" lon="17.94857402129">
        <ele>89.6</ele>
        <time>2016-04-08T17:01:33Z</time>
      </trkpt>
      <trkpt lat="59.289781871842" lon="17.948458518708">
        <ele>90</ele>
        <time>2016-04-08T17:01:34Z</time>
      </trkpt>
      <trkpt lat="59.289762258196" lon="17.948344608687">
        <ele>90.6</ele>
        <time>2016-04-08T17:01:35Z</time>
      </trkpt>
      <trkpt lat="59.289747086957" lon="17.948231369218">
        <ele>91</ele>
        <time>2016-04-08T17:01:36Z</time>
      </trkpt>
      <trkpt lat="59.289735603754" lon="17.948125170545">
        <ele>91.4</ele>
        <time>2016-04-08T17:01:37Z</time>
      </trkpt>
      <trkpt lat="59.289722779447" lon="17.948017798406">
        <ele>91.8</ele>
        <time>2016-04-08T17:01:38Z</time>
      </trkpt>
      <trkpt lat="59.289705931828" lon="17.947784530129">
        <ele>91.8</ele>
        <time>2016-04-08T17:01:41Z</time>
      </trkpt>
      <trkpt lat="59.289660250473" lon="17.947079779977">
        <ele>94.6</ele>
        <time>2016-04-08T17:01:56Z</time>
      </trkpt>
      <trkpt lat="59.289616245498" lon="17.946899820584">
        <ele>94.6</ele>
        <time>2016-04-08T17:01:58Z</time>
      </trkpt>
      <trkpt lat="59.289564612994" lon="17.946844500044">
        <ele>94.6</ele>
        <time>2016-04-08T17:01:59Z</time>
      </trkpt>
      <trkpt lat="59.28943251425" lon="17.946808206417">
        <ele>94.2</ele>
        <time>2016-04-08T17:02:01Z</time>
      </trkpt>
      <trkpt lat="59.289364704679" lon="17.946825221674">
        <ele>93.8</ele>
        <time>2016-04-08T17:02:02Z</time>
      </trkpt>
      <trkpt lat="59.289292201244" lon="17.94685321722">
        <ele>93.2</ele>
        <time>2016-04-08T17:02:03Z</time>
      </trkpt>
      <trkpt lat="59.28922129037" lon="17.946893366521">
        <ele>92.8</ele>
        <time>2016-04-08T17:02:04Z</time>
      </trkpt>
      <trkpt lat="59.28914920603" lon="17.946935695116">
        <ele>92.2</ele>
        <time>2016-04-08T17:02:05Z</time>
      </trkpt>
      <trkpt lat="59.289076618776" lon="17.946984226317">
        <ele>92.2</ele>
        <time>2016-04-08T17:02:06Z</time>
      </trkpt>
      <trkpt lat="59.288824910319" lon="17.947089838257">
        <ele>92.2</ele>
        <time>2016-04-08T17:02:09Z</time>
      </trkpt>
      <trkpt lat="59.288744863174" lon="17.94715161286">
        <ele>92.2</ele>
        <time>2016-04-08T17:02:10Z</time>
      </trkpt>
      <trkpt lat="59.288516037304" lon="17.947368787889">
        <ele>92.2</ele>
        <time>2016-04-08T17:02:13Z</time>
      </trkpt>
      <trkpt lat="59.288356529747" lon="17.947523517763">
        <ele>92.2</ele>
        <time>2016-04-08T17:02:15Z</time>
      </trkpt>
      <trkpt lat="59.288280422095" lon="17.947591243515">
        <ele>92.6</ele>
        <time>2016-04-08T17:02:16Z</time>
      </trkpt>
      <trkpt lat="59.288202302787" lon="17.947659220724">
        <ele>93.2</ele>
        <time>2016-04-08T17:02:17Z</time>
      </trkpt>
      <trkpt lat="59.288118483787" lon="17.947733651996">
        <ele>93.6</ele>
        <time>2016-04-08T17:02:18Z</time>
      </trkpt>
      <trkpt lat="59.288031479665" lon="17.947807412716">
        <ele>94</ele>
        <time>2016-04-08T17:02:19Z</time>
      </trkpt>
      <trkpt lat="59.287946990113" lon="17.947883436549">
        <ele>94.4</ele>
        <time>2016-04-08T17:02:20Z</time>
      </trkpt>
      <trkpt lat="59.287865350407" lon="17.94795878983">
        <ele>94.4</ele>
        <time>2016-04-08T17:02:21Z</time>
      </trkpt>
      <trkpt lat="59.287307451143" lon="17.948472851757">
        <ele>94.4</ele>
        <time>2016-04-08T17:02:28Z</time>
      </trkpt>
      <trkpt lat="59.287156912219" lon="17.948609812003">
        <ele>94.4</ele>
        <time>2016-04-08T17:02:30Z</time>
      </trkpt>
      <trkpt lat="59.286617956049" lon="17.949109876157">
        <ele>94.4</ele>
        <time>2016-04-08T17:02:37Z</time>
      </trkpt>
      <trkpt lat="59.28653908237" lon="17.949185983809">
        <ele>94.4</ele>
        <time>2016-04-08T17:02:38Z</time>
      </trkpt>
      <trkpt lat="59.286279159651" lon="17.949360075872">
        <ele>94.4</ele>
        <time>2016-04-08T17:02:42Z</time>
      </trkpt>
      <trkpt lat="59.28611244366" lon="17.949265444221">
        <ele>94.4</ele>
        <time>2016-04-08T17:02:45Z</time>
      </trkpt>
      <trkpt lat="59.285922677444" lon="17.949310538843">
        <ele>94.4</ele>
        <time>2016-04-08T17:02:48Z</time>
      </trkpt>
      <trkpt lat="59.285719248731" lon="17.949476835739">
        <ele>94.4</ele>
        <time>2016-04-08T17:02:51Z</time>
      </trkpt>
      <trkpt lat="59.285470306301" lon="17.949352867438">
        <ele>93.8</ele>
        <time>2016-04-08T17:02:54Z</time>
      </trkpt>
      <trkpt lat="59.285392186993" lon="17.949291679568">
        <ele>93.4</ele>
        <time>2016-04-08T17:02:55Z</time>
      </trkpt>
      <trkpt lat="59.285314905875" lon="17.949217248296">
        <ele>93</ele>
        <time>2016-04-08T17:02:56Z</time>
      </trkpt>
      <trkpt lat="59.285237038024" lon="17.949134686581">
        <ele>92.4</ele>
        <time>2016-04-08T17:02:57Z</time>
      </trkpt>
      <trkpt lat="59.285162858209" lon="17.949042234224">
        <ele>92</ele>
        <time>2016-04-08T17:02:58Z</time>
      </trkpt>
      <trkpt lat="59.284903019309" lon="17.948568908331">
        <ele>91.4</ele>
        <time>2016-04-08T17:03:02Z</time>
      </trkpt>
      <trkpt lat="59.284849039873" lon="17.948427757135">
        <ele>91</ele>
        <time>2016-04-08T17:03:03Z</time>
      </trkpt>
      <trkpt lat="59.284797658826" lon="17.948276882935">
        <ele>90.6</ele>
        <time>2016-04-08T17:03:04Z</time>
      </trkpt>
      <trkpt lat="59.284750049634" lon="17.948127098382">
        <ele>90.2</ele>
        <time>2016-04-08T17:03:05Z</time>
      </trkpt>
      <trkpt lat="59.284703362451" lon="17.947974380164">
        <ele>89.8</ele>
        <time>2016-04-08T17:03:06Z</time>
      </trkpt>
      <trkpt lat="59.284660111847" lon="17.947830630579">
        <ele>89.8</ele>
        <time>2016-04-08T17:03:07Z</time>
      </trkpt>
      <trkpt lat="59.284570509336" lon="17.94736283674">
        <ele>89.8</ele>
        <time>2016-04-08T17:03:10Z</time>
      </trkpt>
      <trkpt lat="59.284556511563" lon="17.947208358323">
        <ele>89.8</ele>
        <time>2016-04-08T17:03:11Z</time>
      </trkpt>
      <trkpt lat="59.284500017557" lon="17.946772080428">
        <ele>89.8</ele>
        <time>2016-04-08T17:03:14Z</time>
      </trkpt>
      <trkpt lat="59.284391136676" lon="17.946498830488">
        <ele>89.8</ele>
        <time>2016-04-08T17:03:16Z</time>
      </trkpt>
      <trkpt lat="59.284352747574" lon="17.946336473085">
        <ele>89.8</ele>
        <time>2016-04-08T17:03:17Z</time>
      </trkpt>
      <trkpt lat="59.284320980173" lon="17.946170008551">
        <ele>89.2</ele>
        <time>2016-04-08T17:03:18Z</time>
      </trkpt>
      <trkpt lat="59.284289464229" lon="17.946006226225">
        <ele>88.8</ele>
        <time>2016-04-08T17:03:19Z</time>
      </trkpt>
      <trkpt lat="59.284260546674" lon="17.945841857166">
        <ele>88.4</ele>
        <time>2016-04-08T17:03:20Z</time>
      </trkpt>
      <trkpt lat="59.284227689626" lon="17.945678158659">
        <ele>88</ele>
        <time>2016-04-08T17:03:21Z</time>
      </trkpt>
      <trkpt lat="59.284193491474" lon="17.945514543971">
        <ele>87.4</ele>
        <time>2016-04-08T17:03:22Z</time>
      </trkpt>
      <trkpt lat="59.283952008935" lon="17.944370246983">
        <ele>87.4</ele>
        <time>2016-04-08T17:03:29Z</time>
      </trkpt>
      <trkpt lat="59.283885959563" lon="17.944033881336">
        <ele>87.4</ele>
        <time>2016-04-08T17:03:31Z</time>
      </trkpt>
      <trkpt lat="59.28367247257" lon="17.942913305125">
        <ele>87.4</ele>
        <time>2016-04-08T17:03:38Z</time>
      </trkpt>
      <trkpt lat="59.28365906153" lon="17.942745583306">
        <ele>87.4</ele>
        <time>2016-04-08T17:03:39Z</time>
      </trkpt>
      <trkpt lat="59.283666437602" lon="17.942393375868">
        <ele>87.4</ele>
        <time>2016-04-08T17:03:41Z</time>
      </trkpt>
      <trkpt lat="59.283689487827" lon="17.942225989325">
        <ele>87</ele>
        <time>2016-04-08T17:03:42Z</time>
      </trkpt>
      <trkpt lat="59.283731397327" lon="17.942063296646">
        <ele>86.6</ele>
        <time>2016-04-08T17:03:43Z</time>
      </trkpt>
      <trkpt lat="59.283781688727" lon="17.941917619224">
        <ele>86</ele>
        <time>2016-04-08T17:03:44Z</time>
      </trkpt>
      <trkpt lat="59.283832650679" lon="17.941767247938">
        <ele>85.6</ele>
        <time>2016-04-08T17:03:45Z</time>
      </trkpt>
      <trkpt lat="59.283875901283" lon="17.941613188616">
        <ele>85.2</ele>
        <time>2016-04-08T17:03:46Z</time>
      </trkpt>
      <trkpt lat="59.283990230399" lon="17.94113508504">
        <ele>85.2</ele>
        <time>2016-04-08T17:03:49Z</time>
      </trkpt>
      <trkpt lat="59.284194078207" lon="17.940013167725">
        <ele>85.2</ele>
        <time>2016-04-08T17:03:56Z</time>
      </trkpt>
      <trkpt lat="59.284371942125" lon="17.938976075238">
        <ele>85.2</ele>
        <time>2016-04-08T17:04:03Z</time>
      </trkpt>
      <trkpt lat="59.284384179699" lon="17.938818914613">
        <ele>85.2</ele>
        <time>2016-04-08T17:04:04Z</time>
      </trkpt>
      <trkpt lat="59.284422736439" lon="17.938150793364">
        <ele>85.2</ele>
        <time>2016-04-08T17:04:08Z</time>
      </trkpt>
      <trkpt lat="59.284385520803" lon="17.937345879507">
        <ele>85.2</ele>
        <time>2016-04-08T17:04:13Z</time>
      </trkpt>
      <trkpt lat="59.284251913317" lon="17.936575750535">
        <ele>85.2</ele>
        <time>2016-04-08T17:04:18Z</time>
      </trkpt>
      <trkpt lat="59.284067762974" lon="17.936025227343">
        <ele>85.2</ele>
        <time>2016-04-08T17:04:22Z</time>
      </trkpt>
      <trkpt lat="59.283744473091" lon="17.935107576931">
        <ele>85.2</ele>
        <time>2016-04-08T17:04:29Z</time>
      </trkpt>
      <trkpt lat="59.283514809031" lon="17.934219346988">
        <ele>85.2</ele>
        <time>2016-04-08T17:04:35Z</time>
      </trkpt>
      <trkpt lat="59.283436186809" lon="17.933774603374">
        <ele>85.2</ele>
        <time>2016-04-08T17:04:38Z</time>
      </trkpt>
      <trkpt lat="59.28343275023" lon="17.933611826876">
        <ele>85.2</ele>
        <time>2016-04-08T17:04:39Z</time>
      </trkpt>
      <trkpt lat="59.283388409979" lon="17.933149145996">
        <ele>85.2</ele>
        <time>2016-04-08T17:04:42Z</time>
      </trkpt>
      <trkpt lat="59.283363012822" lon="17.932995673407">
        <ele>85.2</ele>
        <time>2016-04-08T17:04:43Z</time>
      </trkpt>
      <trkpt lat="59.283207360939" lon="17.932106018541">
        <ele>85.2</ele>
        <time>2016-04-08T17:04:49Z</time>
      </trkpt>
      <trkpt lat="59.283043410975" lon="17.931151823045">
        <ele>85.2</ele>
        <time>2016-04-08T17:04:56Z</time>
      </trkpt>
      <trkpt lat="59.282865630876" lon="17.930294857589">
        <ele>85.2</ele>
        <time>2016-04-08T17:05:03Z</time>
      </trkpt>
      <trkpt lat="59.282667650398" lon="17.929698066309">
        <ele>85.2</ele>
        <time>2016-04-08T17:05:08Z</time>
      </trkpt>
      <trkpt lat="59.282287363595" lon="17.928818302085">
        <ele>85.2</ele>
        <time>2016-04-08T17:05:16Z</time>
      </trkpt>
      <trkpt lat="59.282174459402" lon="17.928649742076">
        <ele>85.2</ele>
        <time>2016-04-08T17:05:18Z</time>
      </trkpt>
      <trkpt lat="59.282002630452" lon="17.92839459704">
        <ele>85.2</ele>
        <time>2016-04-08T17:05:21Z</time>
      </trkpt>
      <trkpt lat="59.281548582929" lon="17.927859412725">
        <ele>85.2</ele>
        <time>2016-04-08T17:05:28Z</time>
      </trkpt>
      <trkpt lat="59.28135906817" lon="17.927628156104">
        <ele>85.6</ele>
        <time>2016-04-08T17:05:31Z</time>
      </trkpt>
      <trkpt lat="59.281309028227" lon="17.927531345159">
        <ele>86</ele>
        <time>2016-04-08T17:05:32Z</time>
      </trkpt>
      <trkpt lat="59.281265023252" lon="17.927427409599">
        <ele>86.4</ele>
        <time>2016-04-08T17:05:33Z</time>
      </trkpt>
      <trkpt lat="59.28121909044" lon="17.927315427415">
        <ele>86.8</ele>
        <time>2016-04-08T17:05:34Z</time>
      </trkpt>
      <trkpt lat="59.281176007474" lon="17.927202439403">
        <ele>87.2</ele>
        <time>2016-04-08T17:05:35Z</time>
      </trkpt>
      <trkpt lat="59.281042567626" lon="17.926715534832">
        <ele>87.2</ele>
        <time>2016-04-08T17:05:39Z</time>
      </trkpt>
      <trkpt lat="59.280968974544" lon="17.926075492948">
        <ele>87.2</ele>
        <time>2016-04-08T17:05:44Z</time>
      </trkpt>
      <trkpt lat="59.280899237136" lon="17.92521198961">
        <ele>87.2</ele>
        <time>2016-04-08T17:05:51Z</time>
      </trkpt>
      <trkpt lat="59.280783902192" lon="17.924616958529">
        <ele>87.2</ele>
        <time>2016-04-08T17:05:56Z</time>
      </trkpt>
      <trkpt lat="59.280593213967" lon="17.924086468078">
        <ele>87.2</ele>
        <time>2016-04-08T17:06:01Z</time>
      </trkpt>
      <trkpt lat="59.280319964027" lon="17.923476014301">
        <ele>87.8</ele>
        <time>2016-04-08T17:06:07Z</time>
      </trkpt>
      <trkpt lat="59.280268499161" lon="17.923380795917">
        <ele>88.2</ele>
        <time>2016-04-08T17:06:08Z</time>
      </trkpt>
      <trkpt lat="59.280217704847" lon="17.923274513425">
        <ele>88.6</ele>
        <time>2016-04-08T17:06:09Z</time>
      </trkpt>
      <trkpt lat="59.280168670732" lon="17.923168650028">
        <ele>89</ele>
        <time>2016-04-08T17:06:10Z</time>
      </trkpt>
      <trkpt lat="59.280120390988" lon="17.923069827427">
        <ele>89.4</ele>
        <time>2016-04-08T17:06:11Z</time>
      </trkpt>
      <trkpt lat="59.279971360806" lon="17.922796409849">
        <ele>89.4</ele>
        <time>2016-04-08T17:06:14Z</time>
      </trkpt>
      <trkpt lat="59.279794335078" lon="17.922433808855">
        <ele>89.4</ele>
        <time>2016-04-08T17:06:18Z</time>
      </trkpt>
      <trkpt lat="59.279758795822" lon="17.922334650978">
        <ele>89.4</ele>
        <time>2016-04-08T17:06:19Z</time>
      </trkpt>
      <trkpt lat="59.279674893003" lon="17.922153685757">
        <ele>89.4</ele>
        <time>2016-04-08T17:06:21Z</time>
      </trkpt>
      <trkpt lat="59.27952343207" lon="17.921898456902">
        <ele>89.4</ele>
        <time>2016-04-08T17:06:24Z</time>
      </trkpt>
      <trkpt lat="59.279475236145" lon="17.921822768345">
        <ele>90</ele>
        <time>2016-04-08T17:06:25Z</time>
      </trkpt>
      <trkpt lat="59.279425615297" lon="17.921735596585">
        <ele>90.4</ele>
        <time>2016-04-08T17:06:26Z</time>
      </trkpt>
      <trkpt lat="59.279379431028" lon="17.921643479504">
        <ele>90.8</ele>
        <time>2016-04-08T17:06:27Z</time>
      </trkpt>
      <trkpt lat="59.279330983646" lon="17.921550440414">
        <ele>91.2</ele>
        <time>2016-04-08T17:06:28Z</time>
      </trkpt>
      <trkpt lat="59.279285972843" lon="17.921455305849">
        <ele>91.8</ele>
        <time>2016-04-08T17:06:29Z</time>
      </trkpt>
      <trkpt lat="59.279245655904" lon="17.921357489076">
        <ele>91.8</ele>
        <time>2016-04-08T17:06:30Z</time>
      </trkpt>
      <trkpt lat="59.27910936621" lon="17.921069151716">
        <ele>91.8</ele>
        <time>2016-04-08T17:06:33Z</time>
      </trkpt>
      <trkpt lat="59.279022445907" lon="17.920843594787">
        <ele>91.8</ele>
        <time>2016-04-08T17:06:35Z</time>
      </trkpt>
      <trkpt lat="59.278851706604" lon="17.920403377399">
        <ele>91.8</ele>
        <time>2016-04-08T17:06:39Z</time>
      </trkpt>
      <trkpt lat="59.278643667846" lon="17.919723102395">
        <ele>91.8</ele>
        <time>2016-04-08T17:06:45Z</time>
      </trkpt>
      <trkpt lat="59.278399838375" lon="17.919085239805">
        <ele>91.8</ele>
        <time>2016-04-08T17:06:51Z</time>
      </trkpt>
      <trkpt lat="59.278145196253" lon="17.918654410145">
        <ele>91.8</ele>
        <time>2016-04-08T17:06:56Z</time>
      </trkpt>
      <trkpt lat="59.277790641883" lon="17.91826758546">
        <ele>91.8</ele>
        <time>2016-04-08T17:07:02Z</time>
      </trkpt>
      <trkpt lat="59.277372720349" lon="17.918022666342">
        <ele>91.8</ele>
        <time>2016-04-08T17:07:08Z</time>
      </trkpt>
      <trkpt lat="59.277294349584" lon="17.917997855918">
        <ele>91.4</ele>
        <time>2016-04-08T17:07:09Z</time>
      </trkpt>
      <trkpt lat="59.27721505681" lon="17.917984612516">
        <ele>90.8</ele>
        <time>2016-04-08T17:07:10Z</time>
      </trkpt>
      <trkpt lat="59.277133836199" lon="17.917976062978">
        <ele>90.4</ele>
        <time>2016-04-08T17:07:11Z</time>
      </trkpt>
      <trkpt lat="59.277052783226" lon="17.917969608915">
        <ele>90</ele>
        <time>2016-04-08T17:07:12Z</time>
      </trkpt>
      <trkpt lat="59.276972652262" lon="17.917963154852">
        <ele>89.6</ele>
        <time>2016-04-08T17:07:13Z</time>
      </trkpt>
      <trkpt lat="59.276888749443" lon="17.917965250327">
        <ele>89.6</ele>
        <time>2016-04-08T17:07:14Z</time>
      </trkpt>
      <trkpt lat="59.276459512344" lon="17.918053763191">
        <ele>89.6</ele>
        <time>2016-04-08T17:07:19Z</time>
      </trkpt>
      <trkpt lat="59.276331353093" lon="17.918129619386">
        <ele>89.6</ele>
        <time>2016-04-08T17:07:21Z</time>
      </trkpt>
      <trkpt lat="59.276261950961" lon="17.918165158642">
        <ele>89.6</ele>
        <time>2016-04-08T17:07:22Z</time>
      </trkpt>
      <trkpt lat="59.275933631938" lon="17.918316871032">
        <ele>89.6</ele>
        <time>2016-04-08T17:07:27Z</time>
      </trkpt>
      <trkpt lat="59.275780159349" lon="17.918422985886">
        <ele>89.6</ele>
        <time>2016-04-08T17:07:30Z</time>
      </trkpt>
      <trkpt lat="59.275703632602" lon="17.918535638622">
        <ele>89.6</ele>
        <time>2016-04-08T17:07:32Z</time>
      </trkpt>
      <trkpt lat="59.275614784462" lon="17.918818946842">
        <ele>89.6</ele>
        <time>2016-04-08T17:07:36Z</time>
      </trkpt>
      <trkpt lat="59.275464329357" lon="17.91900435447">
        <ele>89.6</ele>
        <time>2016-04-08T17:07:39Z</time>
      </trkpt>
      <trkpt lat="59.275343881454" lon="17.919122036346">
        <ele>89.6</ele>
        <time>2016-04-08T17:07:41Z</time>
      </trkpt>
      <trkpt lat="59.27509946525" lon="17.919367542197">
        <ele>89.6</ele>
        <time>2016-04-08T17:07:45Z</time>
      </trkpt>
      <trkpt lat="59.27475832192" lon="17.919763670791">
        <ele>89.6</ele>
        <time>2016-04-08T17:07:51Z</time>
      </trkpt>
      <trkpt lat="59.274558497424" lon="17.920061898793">
        <ele>89.6</ele>
        <time>2016-04-08T17:07:55Z</time>
      </trkpt>
      <trkpt lat="59.2744750137" lon="17.920123002844">
        <ele>89</ele>
        <time>2016-04-08T17:07:57Z</time>
      </trkpt>
      <trkpt lat="59.274292036823" lon="17.919976571051">
        <ele>87</ele>
        <time>2016-04-08T17:08:03Z</time>
      </trkpt>
      <trkpt lat="59.27426043706" lon="17.920163319783">
        <ele>87</ele>
        <time>2016-04-08T17:08:06Z</time>
      </trkpt>
      <trkpt lat="59.274185586693" lon="17.920423996873">
        <ele>87</ele>
        <time>2016-04-08T17:08:09Z</time>
      </trkpt>
      <trkpt lat="59.273991797165" lon="17.920542936034">
        <ele>87</ele>
        <time>2016-04-08T17:08:12Z</time>
      </trkpt>
      <trkpt lat="59.27379021247" lon="17.920445370718">
        <ele>86.6</ele>
        <time>2016-04-08T17:08:15Z</time>
      </trkpt>
      <trkpt lat="59.273727599677" lon="17.920383931391">
        <ele>86</ele>
        <time>2016-04-08T17:08:16Z</time>
      </trkpt>
      <trkpt lat="59.273664148694" lon="17.920309835395">
        <ele>85.6</ele>
        <time>2016-04-08T17:08:17Z</time>
      </trkpt>
      <trkpt lat="59.273606145946" lon="17.920237918693">
        <ele>85</ele>
        <time>2016-04-08T17:08:18Z</time>
      </trkpt>
      <trkpt lat="59.273550909225" lon="17.920165415258">
        <ele>84.6</ele>
        <time>2016-04-08T17:08:19Z</time>
      </trkpt>
      <trkpt lat="59.273349995082" lon="17.919852016017">
        <ele>84.6</ele>
        <time>2016-04-08T17:08:24Z</time>
      </trkpt>
      <trkpt lat="59.273312527989" lon="17.919708098794">
        <ele>84.6</ele>
        <time>2016-04-08T17:08:28Z</time>
      </trkpt>
      <trkpt lat="59.27330657684" lon="17.919371397871">
        <ele>84.6</ele>
        <time>2016-04-08T17:08:31Z</time>
      </trkpt>
      <trkpt lat="59.273281347321" lon="17.919252207253">
        <ele>84.6</ele>
        <time>2016-04-08T17:08:32Z</time>
      </trkpt>
      <trkpt lat="59.273165341825" lon="17.919154222842">
        <ele>84.6</ele>
        <time>2016-04-08T17:08:34Z</time>
      </trkpt>
      <trkpt lat="59.273042966085" lon="17.919250363235">
        <ele>84.6</ele>
        <time>2016-04-08T17:08:36Z</time>
      </trkpt>
      <trkpt lat="59.272941628914" lon="17.91960030756">
        <ele>84.6</ele>
        <time>2016-04-08T17:08:39Z</time>
      </trkpt>
      <trkpt lat="59.272720849668" lon="17.92009400147">
        <ele>84.6</ele>
        <time>2016-04-08T17:08:43Z</time>
      </trkpt>
      <trkpt lat="59.272573747323" lon="17.920302962237">
        <ele>84.2</ele>
        <time>2016-04-08T17:08:45Z</time>
      </trkpt>
      <trkpt lat="59.272500992431" lon="17.920408238901">
        <ele>83.2</ele>
        <time>2016-04-08T17:08:46Z</time>
      </trkpt>
      <trkpt lat="59.272427483168" lon="17.920515778678">
        <ele>82.8</ele>
        <time>2016-04-08T17:08:47Z</time>
      </trkpt>
      <trkpt lat="59.27235606938" lon="17.92060781194">
        <ele>82.4</ele>
        <time>2016-04-08T17:08:48Z</time>
      </trkpt>
      <trkpt lat="59.271850473172" lon="17.92124567453">
        <ele>82.4</ele>
        <time>2016-04-08T17:08:55Z</time>
      </trkpt>
      <trkpt lat="59.271620054741" lon="17.921401829327">
        <ele>82.4</ele>
        <time>2016-04-08T17:08:58Z</time>
      </trkpt>
      <trkpt lat="59.271489297101" lon="17.921617244157">
        <ele>82.4</ele>
        <time>2016-04-08T17:09:00Z</time>
      </trkpt>
      <trkpt lat="59.271414362915" lon="17.921721179717">
        <ele>82.4</ele>
        <time>2016-04-08T17:09:01Z</time>
      </trkpt>
      <trkpt lat="59.270938103357" lon="17.922260806439">
        <ele>82.4</ele>
        <time>2016-04-08T17:09:07Z</time>
      </trkpt>
      <trkpt lat="59.270414066969" lon="17.922806971043">
        <ele>82.4</ele>
        <time>2016-04-08T17:09:14Z</time>
      </trkpt>
      <trkpt lat="59.270087759602" lon="17.92295055299">
        <ele>82.4</ele>
        <time>2016-04-08T17:09:18Z</time>
      </trkpt>
      <trkpt lat="59.269905704734" lon="17.92329421089">
        <ele>82.4</ele>
        <time>2016-04-08T17:09:21Z</time>
      </trkpt>
      <trkpt lat="59.269767319565" lon="17.923499651259">
        <ele>82.4</ele>
        <time>2016-04-08T17:09:23Z</time>
      </trkpt>
      <trkpt lat="59.269522232809" lon="17.923736859029">
        <ele>82.4</ele>
        <time>2016-04-08T17:09:26Z</time>
      </trkpt>
      <trkpt lat="59.268977996042" lon="17.924260476322">
        <ele>82.4</ele>
        <time>2016-04-08T17:09:33Z</time>
      </trkpt>
      <trkpt lat="59.268842879814" lon="17.924391233962">
        <ele>83</ele>
        <time>2016-04-08T17:09:35Z</time>
      </trkpt>
      <trkpt lat="59.268770376379" lon="17.924442782647">
        <ele>83.4</ele>
        <time>2016-04-08T17:09:36Z</time>
      </trkpt>
      <trkpt lat="59.268700806609" lon="17.924508077648">
        <ele>83.8</ele>
        <time>2016-04-08T17:09:37Z</time>
      </trkpt>
      <trkpt lat="59.268631823572" lon="17.924563314369">
        <ele>84.4</ele>
        <time>2016-04-08T17:09:38Z</time>
      </trkpt>
      <trkpt lat="59.268559823051" lon="17.924628693189">
        <ele>84.8</ele>
        <time>2016-04-08T17:09:39Z</time>
      </trkpt>
      <trkpt lat="59.267992033145" lon="17.925106964403">
        <ele>84.8</ele>
        <time>2016-04-08T17:09:47Z</time>
      </trkpt>
      <trkpt lat="59.267841494221" lon="17.925208972126">
        <ele>85.2</ele>
        <time>2016-04-08T17:09:49Z</time>
      </trkpt>
      <trkpt lat="59.267683411587" lon="17.925299245189">
        <ele>86</ele>
        <time>2016-04-08T17:09:50Z</time>
      </trkpt>
      <trkpt lat="59.267611746342" lon="17.925329000934">
        <ele>86.4</ele>
        <time>2016-04-08T17:09:52Z</time>
      </trkpt>
      <trkpt lat="59.267536895975" lon="17.925330677314">
        <ele>86.8</ele>
        <time>2016-04-08T17:09:53Z</time>
      </trkpt>
      <trkpt lat="59.267387614336" lon="17.925399325075">
        <ele>86.8</ele>
        <time>2016-04-08T17:09:55Z</time>
      </trkpt>
      <trkpt lat="59.267240344353" lon="17.925513402734">
        <ele>86.8</ele>
        <time>2016-04-08T17:09:57Z</time>
      </trkpt>
      <trkpt lat="59.266812364539" lon="17.925711634669">
        <ele>86.8</ele>
        <time>2016-04-08T17:10:03Z</time>
      </trkpt>
      <trkpt lat="59.266384636182" lon="17.925872231873">
        <ele>86.8</ele>
        <time>2016-04-08T17:10:09Z</time>
      </trkpt>
      <trkpt lat="59.265954728531" lon="17.926053113275">
        <ele>86.8</ele>
        <time>2016-04-08T17:10:15Z</time>
      </trkpt>
      <trkpt lat="59.265723136634" lon="17.92604347409">
        <ele>86.4</ele>
        <time>2016-04-08T17:10:18Z</time>
      </trkpt>
      <trkpt lat="59.265648789181" lon="17.925982202401">
        <ele>85.8</ele>
        <time>2016-04-08T17:10:19Z</time>
      </trkpt>
      <trkpt lat="59.265577040117" lon="17.925921182169">
        <ele>85.4</ele>
        <time>2016-04-08T17:10:20Z</time>
      </trkpt>
      <trkpt lat="59.265500094275" lon="17.925889666225">
        <ele>84.8</ele>
        <time>2016-04-08T17:10:21Z</time>
      </trkpt>
      <trkpt lat="59.265423148433" lon="17.925916320667">
        <ele>84.4</ele>
        <time>2016-04-08T17:10:22Z</time>
      </trkpt>
      <trkpt lat="59.265357601975" lon="17.926008689205">
        <ele>84.4</ele>
        <time>2016-04-08T17:10:23Z</time>
      </trkpt>
      <trkpt lat="59.265325415479" lon="17.926307923035">
        <ele>84.4</ele>
        <time>2016-04-08T17:10:25Z</time>
      </trkpt>
      <trkpt lat="59.265393979421" lon="17.926598774965">
        <ele>84.4</ele>
        <time>2016-04-08T17:10:27Z</time>
      </trkpt>
      <trkpt lat="59.26542591446" lon="17.926738417419">
        <ele>84.4</ele>
        <time>2016-04-08T17:10:28Z</time>
      </trkpt>
      <trkpt lat="59.265441672432" lon="17.926888788705">
        <ele>84.4</ele>
        <time>2016-04-08T17:10:29Z</time>
      </trkpt>
      <trkpt lat="59.265453155635" lon="17.927203612869">
        <ele>84.4</ele>
        <time>2016-04-08T17:10:31Z</time>
      </trkpt>
      <trkpt lat="59.265425327727" lon="17.928012550038">
        <ele>84.4</ele>
        <time>2016-04-08T17:10:36Z</time>
      </trkpt>
      <trkpt lat="59.265380987476" lon="17.92848260699">
        <ele>84.4</ele>
        <time>2016-04-08T17:10:39Z</time>
      </trkpt>
      <trkpt lat="59.265288954214" lon="17.928767759228">
        <ele>84</ele>
        <time>2016-04-08T17:10:41Z</time>
      </trkpt>
      <trkpt lat="59.265243105221" lon="17.928896169936">
        <ele>83.6</ele>
        <time>2016-04-08T17:10:42Z</time>
      </trkpt>
      <trkpt lat="59.265189125785" lon="17.929019300047">
        <ele>83</ele>
        <time>2016-04-08T17:10:43Z</time>
      </trkpt>
      <trkpt lat="59.265138080014" lon="17.929142346339">
        <ele>82.6</ele>
        <time>2016-04-08T17:10:44Z</time>
      </trkpt>
      <trkpt lat="59.265092231021" lon="17.929263632432">
        <ele>82.2</ele>
        <time>2016-04-08T17:10:45Z</time>
      </trkpt>
      <trkpt lat="59.264950828368" lon="17.929652552592">
        <ele>82.2</ele>
        <time>2016-04-08T17:10:48Z</time>
      </trkpt>
      <trkpt lat="59.264904308823" lon="17.929779622196">
        <ele>83.2</ele>
        <time>2016-04-08T17:10:49Z</time>
      </trkpt>
      <trkpt lat="59.264859381839" lon="17.929904512506">
        <ele>83.6</ele>
        <time>2016-04-08T17:10:50Z</time>
      </trkpt>
      <trkpt lat="59.264809509534" lon="17.930028648445">
        <ele>84</ele>
        <time>2016-04-08T17:10:51Z</time>
      </trkpt>
      <trkpt lat="59.264758966677" lon="17.930150269814">
        <ele>84.6</ele>
        <time>2016-04-08T17:10:52Z</time>
      </trkpt>
      <trkpt lat="59.264565680063" lon="17.930677156048">
        <ele>84.6</ele>
        <time>2016-04-08T17:10:56Z</time>
      </trkpt>
      <trkpt lat="59.264303410412" lon="17.931430353582">
        <ele>84.6</ele>
        <time>2016-04-08T17:11:02Z</time>
      </trkpt>
      <trkpt lat="59.264219256136" lon="17.93167694908">
        <ele>85</ele>
        <time>2016-04-08T17:11:04Z</time>
      </trkpt>
      <trkpt lat="59.264177598093" lon="17.931792954576">
        <ele>85.4</ele>
        <time>2016-04-08T17:11:05Z</time>
      </trkpt>
      <trkpt lat="59.264132084376" lon="17.931909295348">
        <ele>85.8</ele>
        <time>2016-04-08T17:11:06Z</time>
      </trkpt>
      <trkpt lat="59.264085564831" lon="17.932024295016">
        <ele>86.2</ele>
        <time>2016-04-08T17:11:07Z</time>
      </trkpt>
      <trkpt lat="59.264043403874" lon="17.932143150358">
        <ele>86.8</ele>
        <time>2016-04-08T17:11:08Z</time>
      </trkpt>
      <trkpt lat="59.263938797762" lon="17.932346579071">
        <ele>86.8</ele>
        <time>2016-04-08T17:11:10Z</time>
      </trkpt>
      <trkpt lat="59.263832850546" lon="17.932502901506">
        <ele>86.8</ele>
        <time>2016-04-08T17:11:12Z</time>
      </trkpt>
      <trkpt lat="59.263716258317" lon="17.932633659146">
        <ele>87.6</ele>
        <time>2016-04-08T17:11:14Z</time>
      </trkpt>
      <trkpt lat="59.263647862013" lon="17.932686632754">
        <ele>88</ele>
        <time>2016-04-08T17:11:15Z</time>
      </trkpt>
      <trkpt lat="59.263584662487" lon="17.932740779828">
        <ele>88.4</ele>
        <time>2016-04-08T17:11:16Z</time>
      </trkpt>
      <trkpt lat="59.263517942563" lon="17.932809008494">
        <ele>88.8</ele>
        <time>2016-04-08T17:11:17Z</time>
      </trkpt>
      <trkpt lat="59.263385676181" lon="17.932907579638">
        <ele>89.4</ele>
        <time>2016-04-08T17:11:19Z</time>
      </trkpt>
      <trkpt lat="59.263322476655" lon="17.93295099788">
        <ele>89.8</ele>
        <time>2016-04-08T17:11:20Z</time>
      </trkpt>
      <trkpt lat="59.263261456423" lon="17.932993829389">
        <ele>90.2</ele>
        <time>2016-04-08T17:11:21Z</time>
      </trkpt>
      <trkpt lat="59.263202112571" lon="17.933038421097">
        <ele>90.8</ele>
        <time>2016-04-08T17:11:22Z</time>
      </trkpt>
      <trkpt lat="59.263145702384" lon="17.933086868479">
        <ele>91.2</ele>
        <time>2016-04-08T17:11:23Z</time>
      </trkpt>
      <trkpt lat="59.263043359385" lon="17.933159036638">
        <ele>91.8</ele>
        <time>2016-04-08T17:11:25Z</time>
      </trkpt>
      <trkpt lat="59.262994828184" lon="17.933192899514">
        <ele>92.2</ele>
        <time>2016-04-08T17:11:26Z</time>
      </trkpt>
      <trkpt lat="59.262949314467" lon="17.93322089506">
        <ele>92.8</ele>
        <time>2016-04-08T17:11:27Z</time>
      </trkpt>
      <trkpt lat="59.262904890397" lon="17.933237407403">
        <ele>93.4</ele>
        <time>2016-04-08T17:11:28Z</time>
      </trkpt>
      <trkpt lat="59.262857784119" lon="17.93325190809">
        <ele>94</ele>
        <time>2016-04-08T17:11:29Z</time>
      </trkpt>
      <trkpt lat="59.262808833823" lon="17.933270180632">
        <ele>94.6</ele>
        <time>2016-04-08T17:11:30Z</time>
      </trkpt>
      <trkpt lat="59.262766421409" lon="17.933294571961">
        <ele>95.2</ele>
        <time>2016-04-08T17:11:31Z</time>
      </trkpt>
      <trkpt lat="59.262734234913" lon="17.933321813136">
        <ele>95.8</ele>
        <time>2016-04-08T17:11:32Z</time>
      </trkpt>
      <trkpt lat="59.262684949341" lon="17.933343354619">
        <ele>96.2</ele>
        <time>2016-04-08T17:11:33Z</time>
      </trkpt>
      <trkpt lat="59.262640692909" lon="17.933381995178">
        <ele>96.6</ele>
        <time>2016-04-08T17:11:34Z</time>
      </trkpt>
      <trkpt lat="59.26259702321" lon="17.933426838343">
        <ele>97.2</ele>
        <time>2016-04-08T17:11:35Z</time>
      </trkpt>
      <trkpt lat="59.262559388479" lon="17.9334689993">
        <ele>97.6</ele>
        <time>2016-04-08T17:11:36Z</time>
      </trkpt>
      <trkpt lat="59.262519658273" lon="17.93351258518">
        <ele>98</ele>
        <time>2016-04-08T17:11:37Z</time>
      </trkpt>
      <trkpt lat="59.262432151237" lon="17.933595063076">
        <ele>98.8</ele>
        <time>2016-04-08T17:11:39Z</time>
      </trkpt>
      <trkpt lat="59.262393175402" lon="17.933628842133">
        <ele>99.4</ele>
        <time>2016-04-08T17:11:40Z</time>
      </trkpt>
      <trkpt lat="59.262353864291" lon="17.933663375561">
        <ele>99.8</ele>
        <time>2016-04-08T17:11:41Z</time>
      </trkpt>
      <trkpt lat="59.262313295895" lon="17.933701429387">
        <ele>100.2</ele>
        <time>2016-04-08T17:11:42Z</time>
      </trkpt>
      <trkpt lat="59.262223274289" lon="17.933775609202">
        <ele>100.2</ele>
        <time>2016-04-08T17:11:44Z</time>
      </trkpt>
      <trkpt lat="59.262128558819" lon="17.93385624308">
        <ele>100.2</ele>
        <time>2016-04-08T17:11:46Z</time>
      </trkpt>
      <trkpt lat="59.262044404543" lon="17.933929417067">
        <ele>100.2</ele>
        <time>2016-04-08T17:11:48Z</time>
      </trkpt>
      <trkpt lat="59.261927225581" lon="17.934037878853">
        <ele>100.2</ele>
        <time>2016-04-08T17:11:51Z</time>
      </trkpt>
      <trkpt lat="59.261881795683" lon="17.934086074778">
        <ele>100.2</ele>
        <time>2016-04-08T17:11:52Z</time>
      </trkpt>
      <trkpt lat="59.261644923189" lon="17.934309284775">
        <ele>100.2</ele>
        <time>2016-04-08T17:11:57Z</time>
      </trkpt>
      <trkpt lat="59.261557835248" lon="17.934380195649">
        <ele>100.6</ele>
        <time>2016-04-08T17:11:59Z</time>
      </trkpt>
      <trkpt lat="59.261510058418" lon="17.934410873403">
        <ele>101</ele>
        <time>2016-04-08T17:12:00Z</time>
      </trkpt>
      <trkpt lat="59.261459934656" lon="17.934439288044">
        <ele>101.4</ele>
        <time>2016-04-08T17:12:01Z</time>
      </trkpt>
      <trkpt lat="59.26140511703" lon="17.934468540875">
        <ele>102</ele>
        <time>2016-04-08T17:12:02Z</time>
      </trkpt>
      <trkpt lat="59.261341582228" lon="17.934497039335">
        <ele>102.4</ele>
        <time>2016-04-08T17:12:03Z</time>
      </trkpt>
      <trkpt lat="59.261222223972" lon="17.934558478662">
        <ele>102.4</ele>
        <time>2016-04-08T17:12:05Z</time>
      </trkpt>
      <trkpt lat="59.261108481589" lon="17.934629808631">
        <ele>102.4</ele>
        <time>2016-04-08T17:12:07Z</time>
      </trkpt>
      <trkpt lat="59.261052909592" lon="17.93466258186">
        <ele>102</ele>
        <time>2016-04-08T17:12:08Z</time>
      </trkpt>
      <trkpt lat="59.260998427242" lon="17.934707425025">
        <ele>101.4</ele>
        <time>2016-04-08T17:12:09Z</time>
      </trkpt>
      <trkpt lat="59.260944363987" lon="17.934761572099">
        <ele>101</ele>
        <time>2016-04-08T17:12:10Z</time>
      </trkpt>
      <trkpt lat="59.260889965456" lon="17.934819658666">
        <ele>100.6</ele>
        <time>2016-04-08T17:12:11Z</time>
      </trkpt>
      <trkpt lat="59.260840512246" lon="17.934876404129">
        <ele>100</ele>
        <time>2016-04-08T17:12:12Z</time>
      </trkpt>
      <trkpt lat="59.260745377681" lon="17.935002551724">
        <ele>100</ele>
        <time>2016-04-08T17:12:14Z</time>
      </trkpt>
      <trkpt lat="59.26069936105" lon="17.935088717656">
        <ele>100</ele>
        <time>2016-04-08T17:12:15Z</time>
      </trkpt>
      <trkpt lat="59.260655272256" lon="17.935187875533">
        <ele>100</ele>
        <time>2016-04-08T17:12:16Z</time>
      </trkpt>
      <trkpt lat="59.260503056952" lon="17.935514601995">
        <ele>100</ele>
        <time>2016-04-08T17:12:19Z</time>
      </trkpt>
      <trkpt lat="59.260460644538" lon="17.935631361862">
        <ele>100</ele>
        <time>2016-04-08T17:12:20Z</time>
      </trkpt>
      <trkpt lat="59.260421249608" lon="17.935759940208">
        <ele>99.6</ele>
        <time>2016-04-08T17:12:21Z</time>
      </trkpt>
      <trkpt lat="59.260374897701" lon="17.935897403368">
        <ele>99.2</ele>
        <time>2016-04-08T17:12:22Z</time>
      </trkpt>
      <trkpt lat="59.260319409523" lon="17.936035201804">
        <ele>98.8</ele>
        <time>2016-04-08T17:12:23Z</time>
      </trkpt>
      <trkpt lat="59.260259981852" lon="17.936170318032">
        <ele>98.4</ele>
        <time>2016-04-08T17:12:24Z</time>
      </trkpt>
      <trkpt lat="59.260206253873" lon="17.936307529735">
        <ele>98</ele>
        <time>2016-04-08T17:12:25Z</time>
      </trkpt>
      <trkpt lat="59.260156633025" lon="17.936440047574">
        <ele>97.4</ele>
        <time>2016-04-08T17:12:26Z</time>
      </trkpt>
      <trkpt lat="59.260105838711" lon="17.936588155747">
        <ele>96.8</ele>
        <time>2016-04-08T17:12:27Z</time>
      </trkpt>
      <trkpt lat="59.260058397157" lon="17.93672872021">
        <ele>96.4</ele>
        <time>2016-04-08T17:12:28Z</time>
      </trkpt>
      <trkpt lat="59.260010955603" lon="17.936867356836">
        <ele>95.8</ele>
        <time>2016-04-08T17:12:29Z</time>
      </trkpt>
      <trkpt lat="59.259917665056" lon="17.937159214594">
        <ele>95.8</ele>
        <time>2016-04-08T17:12:31Z</time>
      </trkpt>
      <trkpt lat="59.259577359916" lon="17.938212065053">
        <ele>95.8</ele>
        <time>2016-04-08T17:12:38Z</time>
      </trkpt>
      <trkpt lat="59.259422462404" lon="17.938681367634">
        <ele>95.4</ele>
        <time>2016-04-08T17:12:41Z</time>
      </trkpt>
      <trkpt lat="59.2593708299" lon="17.938838947354">
        <ele>95</ele>
        <time>2016-04-08T17:12:42Z</time>
      </trkpt>
      <trkpt lat="59.259315760817" lon="17.938986720251">
        <ele>94.6</ele>
        <time>2016-04-08T17:12:43Z</time>
      </trkpt>
      <trkpt lat="59.259253399481" lon="17.939113706036">
        <ele>94.2</ele>
        <time>2016-04-08T17:12:44Z</time>
      </trkpt>
      <trkpt lat="59.259190954326" lon="17.939227113143">
        <ele>93.8</ele>
        <time>2016-04-08T17:12:45Z</time>
      </trkpt>
      <trkpt lat="59.25906237598" lon="17.939415454436">
        <ele>93.8</ele>
        <time>2016-04-08T17:12:47Z</time>
      </trkpt>
      <trkpt lat="59.258630121397" lon="17.939998331762">
        <ele>93.8</ele>
        <time>2016-04-08T17:12:53Z</time>
      </trkpt>
      <trkpt lat="59.258419819526" lon="17.940288680778">
        <ele>94.2</ele>
        <time>2016-04-08T17:12:56Z</time>
      </trkpt>
      <trkpt lat="59.258355195077" lon="17.940391107596">
        <ele>94.6</ele>
        <time>2016-04-08T17:12:57Z</time>
      </trkpt>
      <trkpt lat="59.258291073542" lon="17.94049470788">
        <ele>95</ele>
        <time>2016-04-08T17:12:58Z</time>
      </trkpt>
      <trkpt lat="59.258230472405" lon="17.940608617901">
        <ele>95.4</ele>
        <time>2016-04-08T17:12:59Z</time>
      </trkpt>
      <trkpt lat="59.258173391666" lon="17.940728395252">
        <ele>95.8</ele>
        <time>2016-04-08T17:13:00Z</time>
      </trkpt>
      <trkpt lat="59.258009190245" lon="17.941111364263">
        <ele>95.8</ele>
        <time>2016-04-08T17:13:03Z</time>
      </trkpt>
      <trkpt lat="59.257899471174" lon="17.941382099633">
        <ele>95.4</ele>
        <time>2016-04-08T17:13:05Z</time>
      </trkpt>
      <trkpt lat="59.257840965512" lon="17.941521825906">
        <ele>94.8</ele>
        <time>2016-04-08T17:13:06Z</time>
      </trkpt>
      <trkpt lat="59.257776089606" lon="17.941662222731">
        <ele>94.4</ele>
        <time>2016-04-08T17:13:07Z</time>
      </trkpt>
      <trkpt lat="59.257709621139" lon="17.94180563704">
        <ele>94</ele>
        <time>2016-04-08T17:13:08Z</time>
      </trkpt>
      <trkpt lat="59.257640554283" lon="17.94194896753">
        <ele>93.4</ele>
        <time>2016-04-08T17:13:09Z</time>
      </trkpt>
      <trkpt lat="59.257571822703" lon="17.942097075703">
        <ele>92.8</ele>
        <time>2016-04-08T17:13:10Z</time>
      </trkpt>
      <trkpt lat="59.257502085295" lon="17.942259014011">
        <ele>92.2</ele>
        <time>2016-04-08T17:13:11Z</time>
      </trkpt>
      <trkpt lat="59.257435868285" lon="17.942423802165">
        <ele>91.4</ele>
        <time>2016-04-08T17:13:12Z</time>
      </trkpt>
      <trkpt lat="59.257366885248" lon="17.942596720762">
        <ele>90.8</ele>
        <time>2016-04-08T17:13:13Z</time>
      </trkpt>
      <trkpt lat="59.257293543623" lon="17.942771399558">
        <ele>90</ele>
        <time>2016-04-08T17:13:14Z</time>
      </trkpt>
      <trkpt lat="59.257219782903" lon="17.942947838553">
        <ele>89</ele>
        <time>2016-04-08T17:13:15Z</time>
      </trkpt>
      <trkpt lat="59.257152476246" lon="17.943126540661">
        <ele>88.2</ele>
        <time>2016-04-08T17:13:16Z</time>
      </trkpt>
      <trkpt lat="59.257093802946" lon="17.943303734027">
        <ele>87.4</ele>
        <time>2016-04-08T17:13:17Z</time>
      </trkpt>
      <trkpt lat="59.257036135474" lon="17.943487800551">
        <ele>85.6</ele>
        <time>2016-04-08T17:13:18Z</time>
      </trkpt>
      <trkpt lat="59.256811332916" lon="17.944193556531">
        <ele>85.6</ele>
        <time>2016-04-08T17:13:22Z</time>
      </trkpt>
      <trkpt lat="59.256688202805" lon="17.944542830304">
        <ele>85</ele>
        <time>2016-04-08T17:13:24Z</time>
      </trkpt>
      <trkpt lat="59.256625254736" lon="17.944717760557">
        <ele>84.6</ele>
        <time>2016-04-08T17:13:25Z</time>
      </trkpt>
      <trkpt lat="59.256563228676" lon="17.944888667498">
        <ele>84.2</ele>
        <time>2016-04-08T17:13:26Z</time>
      </trkpt>
      <trkpt lat="59.256503968643" lon="17.945064603579">
        <ele>83.6</ele>
        <time>2016-04-08T17:13:27Z</time>
      </trkpt>
      <trkpt lat="59.25644889956" lon="17.945252777234">
        <ele>83.2</ele>
        <time>2016-04-08T17:13:28Z</time>
      </trkpt>
      <trkpt lat="59.256343874353" lon="17.945626442336">
        <ele>82.8</ele>
        <time>2016-04-08T17:13:30Z</time>
      </trkpt>
      <trkpt lat="59.256292241849" lon="17.945804054797">
        <ele>82.4</ele>
        <time>2016-04-08T17:13:31Z</time>
      </trkpt>
      <trkpt lat="59.256235664024" lon="17.945992982823">
        <ele>82</ele>
        <time>2016-04-08T17:13:32Z</time>
      </trkpt>
      <trkpt lat="59.256183780063" lon="17.94616171047">
        <ele>81.6</ele>
        <time>2016-04-08T17:13:33Z</time>
      </trkpt>
      <trkpt lat="59.256132231378" lon="17.946330102841">
        <ele>81</ele>
        <time>2016-04-08T17:13:34Z</time>
      </trkpt>
      <trkpt lat="59.255907847915" lon="17.947035523545">
        <ele>81.6</ele>
        <time>2016-04-08T17:13:38Z</time>
      </trkpt>
      <trkpt lat="59.255857640334" lon="17.947203832097">
        <ele>82</ele>
        <time>2016-04-08T17:13:39Z</time>
      </trkpt>
      <trkpt lat="59.255803241803" lon="17.947386138422">
        <ele>82.4</ele>
        <time>2016-04-08T17:13:40Z</time>
      </trkpt>
      <trkpt lat="59.255752112213" lon="17.947559559933">
        <ele>83</ele>
        <time>2016-04-08T17:13:41Z</time>
      </trkpt>
      <trkpt lat="59.255702491365" lon="17.94773331672">
        <ele>83.4</ele>
        <time>2016-04-08T17:13:42Z</time>
      </trkpt>
      <trkpt lat="59.255441227542" lon="17.948596736239">
        <ele>83.4</ele>
        <time>2016-04-08T17:13:47Z</time>
      </trkpt>
      <trkpt lat="59.255114668718" lon="17.949639863694">
        <ele>83.4</ele>
        <time>2016-04-08T17:13:53Z</time>
      </trkpt>
      <trkpt lat="59.255011487529" lon="17.949991568218">
        <ele>83</ele>
        <time>2016-04-08T17:13:55Z</time>
      </trkpt>
      <trkpt lat="59.254957675731" lon="17.950160044408">
        <ele>82.6</ele>
        <time>2016-04-08T17:13:56Z</time>
      </trkpt>
      <trkpt lat="59.25490243901" lon="17.950326341304">
        <ele>82.2</ele>
        <time>2016-04-08T17:13:57Z</time>
      </trkpt>
      <trkpt lat="59.254845693547" lon="17.950492554381">
        <ele>81.8</ele>
        <time>2016-04-08T17:13:58Z</time>
      </trkpt>
      <trkpt lat="59.254787690799" lon="17.950654995603">
        <ele>81.2</ele>
        <time>2016-04-08T17:13:59Z</time>
      </trkpt>
      <trkpt lat="59.254666739982" lon="17.950963198066">
        <ele>81.2</ele>
        <time>2016-04-08T17:14:01Z</time>
      </trkpt>
      <trkpt lat="59.254317633847" lon="17.951880010288">
        <ele>81.2</ele>
        <time>2016-04-08T17:14:07Z</time>
      </trkpt>
      <trkpt lat="59.254259379642" lon="17.952031303583">
        <ele>81.8</ele>
        <time>2016-04-08T17:14:08Z</time>
      </trkpt>
      <trkpt lat="59.254200538704" lon="17.952193912443">
        <ele>82.2</ele>
        <time>2016-04-08T17:14:09Z</time>
      </trkpt>
      <trkpt lat="59.254141949223" lon="17.952344870462">
        <ele>82.6</ele>
        <time>2016-04-08T17:14:10Z</time>
      </trkpt>
      <trkpt lat="59.254084281751" lon="17.952494571196">
        <ele>83</ele>
        <time>2016-04-08T17:14:11Z</time>
      </trkpt>
      <trkpt lat="59.254028542116" lon="17.952638320781">
        <ele>83.4</ele>
        <time>2016-04-08T17:14:12Z</time>
      </trkpt>
      <trkpt lat="59.253971042282" lon="17.952777627959">
        <ele>83.4</ele>
        <time>2016-04-08T17:14:13Z</time>
      </trkpt>
      <trkpt lat="59.253737522548" lon="17.953290600239">
        <ele>83.4</ele>
        <time>2016-04-08T17:14:17Z</time>
      </trkpt>
      <trkpt lat="59.25367868161" lon="17.953408533572">
        <ele>83.4</ele>
        <time>2016-04-08T17:14:18Z</time>
      </trkpt>
      <trkpt lat="59.253440970926" lon="17.954034410045">
        <ele>83.4</ele>
        <time>2016-04-08T17:14:23Z</time>
      </trkpt>
      <trkpt lat="59.253135199214" lon="17.954760198766">
        <ele>83.4</ele>
        <time>2016-04-08T17:14:29Z</time>
      </trkpt>
      <trkpt lat="59.252719456974" lon="17.955425973083">
        <ele>83.4</ele>
        <time>2016-04-08T17:14:36Z</time>
      </trkpt>
      <trkpt lat="59.252391976141" lon="17.95595176967">
        <ele>83.4</ele>
        <time>2016-04-08T17:14:42Z</time>
      </trkpt>
      <trkpt lat="59.252290303694" lon="17.955992421885">
        <ele>83.4</ele>
        <time>2016-04-08T17:14:44Z</time>
      </trkpt>
      <trkpt lat="59.252247723642" lon="17.955884630651">
        <ele>83.4</ele>
        <time>2016-04-08T17:14:46Z</time>
      </trkpt>
      <trkpt lat="59.252245460529" lon="17.955798967633">
        <ele>83.4</ele>
        <time>2016-04-08T17:14:47Z</time>
      </trkpt>
      <trkpt lat="59.252228696729" lon="17.955527226435">
        <ele>83.4</ele>
        <time>2016-04-08T17:14:50Z</time>
      </trkpt>
      <trkpt lat="59.252155019828" lon="17.954965387678">
        <ele>83.4</ele>
        <time>2016-04-08T17:14:56Z</time>
      </trkpt>
      <trkpt lat="59.252132137241" lon="17.954863044679">
        <ele>83.4</ele>
        <time>2016-04-08T17:14:57Z</time>
      </trkpt>
      <trkpt lat="59.252030632432" lon="17.954459959108">
        <ele>83.4</ele>
        <time>2016-04-08T17:15:01Z</time>
      </trkpt>
      <trkpt lat="59.25181706162" lon="17.953847409856">
        <ele>83.4</ele>
        <time>2016-04-08T17:15:07Z</time>
      </trkpt>
      <trkpt lat="59.25157231014" lon="17.953304681831">
        <ele>83.4</ele>
        <time>2016-04-08T17:15:13Z</time>
      </trkpt>
      <trkpt lat="59.251325295547" lon="17.95284459934">
        <ele>84</ele>
        <time>2016-04-08T17:15:19Z</time>
      </trkpt>
      <trkpt lat="59.251293276689" lon="17.952775532484">
        <ele>84.4</ele>
        <time>2016-04-08T17:15:20Z</time>
      </trkpt>
      <trkpt lat="59.25126469441" lon="17.952704956886">
        <ele>84.8</ele>
        <time>2016-04-08T17:15:21Z</time>
      </trkpt>
      <trkpt lat="59.251241141271" lon="17.95263505184">
        <ele>85.8</ele>
        <time>2016-04-08T17:15:22Z</time>
      </trkpt>
      <trkpt lat="59.251219264512" lon="17.952565314432">
        <ele>86.2</ele>
        <time>2016-04-08T17:15:23Z</time>
      </trkpt>
      <trkpt lat="59.251198561219" lon="17.952492978635">
        <ele>86.8</ele>
        <time>2016-04-08T17:15:24Z</time>
      </trkpt>
      <trkpt lat="59.251177438831" lon="17.952411590386">
        <ele>87.2</ele>
        <time>2016-04-08T17:15:25Z</time>
      </trkpt>
      <trkpt lat="59.251157070814" lon="17.952334476906">
        <ele>87.8</ele>
        <time>2016-04-08T17:15:26Z</time>
      </trkpt>
      <trkpt lat="59.251121196282" lon="17.952169521114">
        <ele>87.8</ele>
        <time>2016-04-08T17:15:28Z</time>
      </trkpt>
      <trkpt lat="59.251104013387" lon="17.952083019906">
        <ele>88.2</ele>
        <time>2016-04-08T17:15:29Z</time>
      </trkpt>
      <trkpt lat="59.251083896827" lon="17.951994507042">
        <ele>88.6</ele>
        <time>2016-04-08T17:15:30Z</time>
      </trkpt>
      <trkpt lat="59.251065540466" lon="17.951906245635">
        <ele>89</ele>
        <time>2016-04-08T17:15:31Z</time>
      </trkpt>
      <trkpt lat="59.25105011777" lon="17.951814966744">
        <ele>89.4</ele>
        <time>2016-04-08T17:15:32Z</time>
      </trkpt>
      <trkpt lat="59.251035365626" lon="17.951726872975">
        <ele>90</ele>
        <time>2016-04-08T17:15:33Z</time>
      </trkpt>
      <trkpt lat="59.251017512179" lon="17.951643305432">
        <ele>90</ele>
        <time>2016-04-08T17:15:34Z</time>
      </trkpt>
      <trkpt lat="59.250976776145" lon="17.951485809531">
        <ele>90</ele>
        <time>2016-04-08T17:15:36Z</time>
      </trkpt>
      <trkpt lat="59.25079530801" lon="17.951030085628">
        <ele>90</ele>
        <time>2016-04-08T17:15:42Z</time>
      </trkpt>
      <trkpt lat="59.250705789318" lon="17.950807713821">
        <ele>90.4</ele>
        <time>2016-04-08T17:15:45Z</time>
      </trkpt>
      <trkpt lat="59.250675865935" lon="17.950732611997">
        <ele>90.8</ele>
        <time>2016-04-08T17:15:46Z</time>
      </trkpt>
      <trkpt lat="59.250646026371" lon="17.950656420526">
        <ele>91.6</ele>
        <time>2016-04-08T17:15:47Z</time>
      </trkpt>
      <trkpt lat="59.250615264798" lon="17.950574026449">
        <ele>92</ele>
        <time>2016-04-08T17:15:48Z</time>
      </trkpt>
      <trkpt lat="59.250578049162" lon="17.950433042891">
        <ele>92</ele>
        <time>2016-04-08T17:15:50Z</time>
      </trkpt>
      <trkpt lat="59.25056815852" lon="17.950361377646">
        <ele>92.6</ele>
        <time>2016-04-08T17:15:51Z</time>
      </trkpt>
      <trkpt lat="59.250554244566" lon="17.950277642465">
        <ele>93</ele>
        <time>2016-04-08T17:15:52Z</time>
      </trkpt>
      <trkpt lat="59.2505363073" lon="17.950193572008">
        <ele>93.4</ele>
        <time>2016-04-08T17:15:53Z</time>
      </trkpt>
      <trkpt lat="59.250517112749" lon="17.950108160447">
        <ele>93.8</ele>
        <time>2016-04-08T17:15:54Z</time>
      </trkpt>
      <trkpt lat="59.250501522415" lon="17.9500148699">
        <ele>94.4</ele>
        <time>2016-04-08T17:15:55Z</time>
      </trkpt>
      <trkpt lat="59.250487357004" lon="17.949923591009">
        <ele>94.4</ele>
        <time>2016-04-08T17:15:56Z</time>
      </trkpt>
      <trkpt lat="59.250435137767" lon="17.949661237539">
        <ele>94.4</ele>
        <time>2016-04-08T17:15:59Z</time>
      </trkpt>
      <trkpt lat="59.250340422297" lon="17.949425706149">
        <ele>94.4</ele>
        <time>2016-04-08T17:16:02Z</time>
      </trkpt>
      <trkpt lat="59.250232379606" lon="17.949215823373">
        <ele>94.4</ele>
        <time>2016-04-08T17:16:05Z</time>
      </trkpt>
      <trkpt lat="59.250156523411" lon="17.949092441805">
        <ele>94.8</ele>
        <time>2016-04-08T17:16:07Z</time>
      </trkpt>
      <trkpt lat="59.250117463757" lon="17.949030499564">
        <ele>95.2</ele>
        <time>2016-04-08T17:16:08Z</time>
      </trkpt>
      <trkpt lat="59.250083349424" lon="17.948971742445">
        <ele>95.6</ele>
        <time>2016-04-08T17:16:09Z</time>
      </trkpt>
      <trkpt lat="59.250047139616" lon="17.948913404421">
        <ele>96.2</ele>
        <time>2016-04-08T17:16:10Z</time>
      </trkpt>
      <trkpt lat="59.250013192921" lon="17.948847355049">
        <ele>96.6</ele>
        <time>2016-04-08T17:16:11Z</time>
      </trkpt>
      <trkpt lat="59.24998058733" lon="17.948775689804">
        <ele>96.6</ele>
        <time>2016-04-08T17:16:12Z</time>
      </trkpt>
      <trkpt lat="59.249860558522" lon="17.948472013567">
        <ele>97</ele>
        <time>2016-04-08T17:16:16Z</time>
      </trkpt>
      <trkpt lat="59.249835245184" lon="17.948391128232">
        <ele>97.4</ele>
        <time>2016-04-08T17:16:17Z</time>
      </trkpt>
      <trkpt lat="59.24981127295" lon="17.948303202101">
        <ele>97.8</ele>
        <time>2016-04-08T17:16:18Z</time>
      </trkpt>
      <trkpt lat="59.249792413675" lon="17.948218041997">
        <ele>98.2</ele>
        <time>2016-04-08T17:16:19Z</time>
      </trkpt>
      <trkpt lat="59.249773219124" lon="17.948132462798">
        <ele>98.6</ele>
        <time>2016-04-08T17:16:20Z</time>
      </trkpt>
      <trkpt lat="59.249753605478" lon="17.94804763797">
        <ele>99</ele>
        <time>2016-04-08T17:16:21Z</time>
      </trkpt>
      <trkpt lat="59.24973415947" lon="17.947965746807">
        <ele>99.4</ele>
        <time>2016-04-08T17:16:22Z</time>
      </trkpt>
      <trkpt lat="59.249710354874" lon="17.947884861472">
        <ele>99.8</ele>
        <time>2016-04-08T17:16:23Z</time>
      </trkpt>
      <trkpt lat="59.249689232486" lon="17.947806825983">
        <ele>100.4</ele>
        <time>2016-04-08T17:16:24Z</time>
      </trkpt>
      <trkpt lat="59.249666182261" lon="17.947730885969">
        <ele>100.8</ele>
        <time>2016-04-08T17:16:25Z</time>
      </trkpt>
      <trkpt lat="59.249602647459" lon="17.947562745055">
        <ele>100.8</ele>
        <time>2016-04-08T17:16:27Z</time>
      </trkpt>
      <trkpt lat="59.249518912278" lon="17.947382534205">
        <ele>100.8</ele>
        <time>2016-04-08T17:16:29Z</time>
      </trkpt>
      <trkpt lat="59.249310957339" lon="17.947048347852">
        <ele>100.8</ele>
        <time>2016-04-08T17:16:33Z</time>
      </trkpt>
      <trkpt lat="59.249253625143" lon="17.946975173865">
        <ele>100.8</ele>
        <time>2016-04-08T17:16:34Z</time>
      </trkpt>
      <trkpt lat="59.24898984675" lon="17.946544176567">
        <ele>100.8</ele>
        <time>2016-04-08T17:16:39Z</time>
      </trkpt>
      <trkpt lat="59.248875936729" lon="17.946373101988">
        <ele>100.8</ele>
        <time>2016-04-08T17:16:41Z</time>
      </trkpt>
      <trkpt lat="59.248745765822" lon="17.946241673796">
        <ele>100.8</ele>
        <time>2016-04-08T17:16:43Z</time>
      </trkpt>
      <trkpt lat="59.248622384254" lon="17.946125919757">
        <ele>100.8</ele>
        <time>2016-04-08T17:16:45Z</time>
      </trkpt>
      <trkpt lat="59.248507384586" lon="17.9460418493">
        <ele>100.8</ele>
        <time>2016-04-08T17:16:47Z</time>
      </trkpt>
      <trkpt lat="59.248287611168" lon="17.945904805235">
        <ele>100.8</ele>
        <time>2016-04-08T17:16:51Z</time>
      </trkpt>
      <trkpt lat="59.248196332277" lon="17.945836241293">
        <ele>101.2</ele>
        <time>2016-04-08T17:16:53Z</time>
      </trkpt>
      <trkpt lat="59.248156602071" lon="17.945796008173">
        <ele>101.6</ele>
        <time>2016-04-08T17:16:54Z</time>
      </trkpt>
      <trkpt lat="59.248117123322" lon="17.945733479199">
        <ele>102</ele>
        <time>2016-04-08T17:16:55Z</time>
      </trkpt>
      <trkpt lat="59.248081919342" lon="17.945659047927">
        <ele>102.4</ele>
        <time>2016-04-08T17:16:56Z</time>
      </trkpt>
      <trkpt lat="59.248054510529" lon="17.945581599171">
        <ele>102.8</ele>
        <time>2016-04-08T17:16:57Z</time>
      </trkpt>
      <trkpt lat="59.248014528866" lon="17.945397616466">
        <ele>103.2</ele>
        <time>2016-04-08T17:16:59Z</time>
      </trkpt>
      <trkpt lat="59.247996926876" lon="17.94529250744">
        <ele>103.6</ele>
        <time>2016-04-08T17:17:00Z</time>
      </trkpt>
      <trkpt lat="59.247977229411" lon="17.94517348446">
        <ele>104.4</ele>
        <time>2016-04-08T17:17:01Z</time>
      </trkpt>
      <trkpt lat="59.247963483095" lon="17.945059658258">
        <ele>104.8</ele>
        <time>2016-04-08T17:17:02Z</time>
      </trkpt>
      <trkpt lat="59.247950742607" lon="17.94495136411">
        <ele>104.8</ele>
        <time>2016-04-08T17:17:03Z</time>
      </trkpt>
      <trkpt lat="59.247931380418" lon="17.944746342836">
        <ele>104.8</ele>
        <time>2016-04-08T17:17:05Z</time>
      </trkpt>
      <trkpt lat="59.247905396528" lon="17.94453143092">
        <ele>104.8</ele>
        <time>2016-04-08T17:17:07Z</time>
      </trkpt>
      <trkpt lat="59.247880837561" lon="17.944425986618">
        <ele>104.8</ele>
        <time>2016-04-08T17:17:08Z</time>
      </trkpt>
      <trkpt lat="59.247786876462" lon="17.944141337294">
        <ele>104.8</ele>
        <time>2016-04-08T17:17:11Z</time>
      </trkpt>
      <trkpt lat="59.247754522328" lon="17.944050226041">
        <ele>104.8</ele>
        <time>2016-04-08T17:17:12Z</time>
      </trkpt>
      <trkpt lat="59.247693837372" lon="17.943845204767">
        <ele>104.8</ele>
        <time>2016-04-08T17:17:14Z</time>
      </trkpt>
      <trkpt lat="59.247618400272" lon="17.943512443337">
        <ele>104.8</ele>
        <time>2016-04-08T17:17:17Z</time>
      </trkpt>
      <trkpt lat="59.247536760566" lon="17.943010032251">
        <ele>104.8</ele>
        <time>2016-04-08T17:17:21Z</time>
      </trkpt>
      <trkpt lat="59.247537850213" lon="17.942876340946">
        <ele>104.8</ele>
        <time>2016-04-08T17:17:22Z</time>
      </trkpt>
      <trkpt lat="59.247573221831" lon="17.942488510433">
        <ele>104.8</ele>
        <time>2016-04-08T17:17:25Z</time>
      </trkpt>
      <trkpt lat="59.247598032255" lon="17.94236554796">
        <ele>104.8</ele>
        <time>2016-04-08T17:17:26Z</time>
      </trkpt>
      <trkpt lat="59.247664919817" lon="17.941974364687">
        <ele>104.4</ele>
        <time>2016-04-08T17:17:29Z</time>
      </trkpt>
      <trkpt lat="59.247683024721" lon="17.941845115789">
        <ele>104</ele>
        <time>2016-04-08T17:17:30Z</time>
      </trkpt>
      <trkpt lat="59.247697776865" lon="17.94171092157">
        <ele>103.6</ele>
        <time>2016-04-08T17:17:31Z</time>
      </trkpt>
      <trkpt lat="59.247704985299" lon="17.941574212781">
        <ele>103.2</ele>
        <time>2016-04-08T17:17:32Z</time>
      </trkpt>
      <trkpt lat="59.247703979471" lon="17.941437252535">
        <ele>102.8</ele>
        <time>2016-04-08T17:17:33Z</time>
      </trkpt>
      <trkpt lat="59.247695010838" lon="17.941294592597">
        <ele>102.8</ele>
        <time>2016-04-08T17:17:34Z</time>
      </trkpt>
      <trkpt lat="59.247663494894" lon="17.941036849172">
        <ele>102.8</ele>
        <time>2016-04-08T17:17:36Z</time>
      </trkpt>
      <trkpt lat="59.247604653956" lon="17.940799138488">
        <ele>102.8</ele>
        <time>2016-04-08T17:17:38Z</time>
      </trkpt>
      <trkpt lat="59.247508932658" lon="17.940463191936">
        <ele>102.8</ele>
        <time>2016-04-08T17:17:41Z</time>
      </trkpt>
      <trkpt lat="59.247482362035" lon="17.940336122332">
        <ele>102.8</ele>
        <time>2016-04-08T17:17:42Z</time>
      </trkpt>
      <trkpt lat="59.247378175018" lon="17.939800854198">
        <ele>102.8</ele>
        <time>2016-04-08T17:17:46Z</time>
      </trkpt>
      <trkpt lat="59.247215230882" lon="17.939330713427">
        <ele>102.8</ele>
        <time>2016-04-08T17:17:50Z</time>
      </trkpt>
      <trkpt lat="59.247162508731" lon="17.939231387912">
        <ele>102.8</ele>
        <time>2016-04-08T17:17:51Z</time>
      </trkpt>
      <trkpt lat="59.247005180468" lon="17.938910864056">
        <ele>102.8</ele>
        <time>2016-04-08T17:17:54Z</time>
      </trkpt>
      <trkpt lat="59.246942567675" lon="17.938651695708">
        <ele>102.8</ele>
        <time>2016-04-08T17:17:56Z</time>
      </trkpt>
      <trkpt lat="59.246938460544" lon="17.938241066427">
        <ele>102.8</ele>
        <time>2016-04-08T17:17:59Z</time>
      </trkpt>
      <trkpt lat="59.24694131039" lon="17.938098741765">
        <ele>102.8</ele>
        <time>2016-04-08T17:18:00Z</time>
      </trkpt>
      <trkpt lat="59.246937370897" lon="17.937952729067">
        <ele>102.8</ele>
        <time>2016-04-08T17:18:01Z</time>
      </trkpt>
      <trkpt lat="59.24691197374" lon="17.937534556076">
        <ele>102.8</ele>
        <time>2016-04-08T17:18:04Z</time>
      </trkpt>
      <trkpt lat="59.246887079497" lon="17.937132895428">
        <ele>102.8</ele>
        <time>2016-04-08T17:18:07Z</time>
      </trkpt>
      <trkpt lat="59.246864951281" lon="17.936860232221">
        <ele>102.8</ele>
        <time>2016-04-08T17:18:09Z</time>
      </trkpt>
      <trkpt lat="59.246826394541" lon="17.936596956742">
        <ele>102.8</ele>
        <time>2016-04-08T17:18:11Z</time>
      </trkpt>
      <trkpt lat="59.246758668789" lon="17.936337117842">
        <ele>102.8</ele>
        <time>2016-04-08T17:18:13Z</time>
      </trkpt>
      <trkpt lat="59.24668985339" lon="17.936083816824">
        <ele>102.8</ele>
        <time>2016-04-08T17:18:15Z</time>
      </trkpt>
      <trkpt lat="59.246633610841" lon="17.935818110594">
        <ele>102.8</ele>
        <time>2016-04-08T17:18:17Z</time>
      </trkpt>
      <trkpt lat="59.246551132945" lon="17.935233137793">
        <ele>102.8</ele>
        <time>2016-04-08T17:18:21Z</time>
      </trkpt>
      <trkpt lat="59.24652640634" lon="17.935093495339">
        <ele>102.8</ele>
        <time>2016-04-08T17:18:22Z</time>
      </trkpt>
      <trkpt lat="59.24638559042" lon="17.934590665158">
        <ele>102.8</ele>
        <time>2016-04-08T17:18:26Z</time>
      </trkpt>
      <trkpt lat="59.246337310676" lon="17.934476168404">
        <ele>102.8</ele>
        <time>2016-04-08T17:18:27Z</time>
      </trkpt>
      <trkpt lat="59.246161123138" lon="17.934153465254">
        <ele>102.8</ele>
        <time>2016-04-08T17:18:30Z</time>
      </trkpt>
      <trkpt lat="59.246096917784" lon="17.934073921023">
        <ele>102.8</ele>
        <time>2016-04-08T17:18:31Z</time>
      </trkpt>
      <trkpt lat="59.246027431833" lon="17.933995634077">
        <ele>102.2</ele>
        <time>2016-04-08T17:18:32Z</time>
      </trkpt>
      <trkpt lat="59.245955515131" lon="17.933916425122">
        <ele>101.8</ele>
        <time>2016-04-08T17:18:33Z</time>
      </trkpt>
      <trkpt lat="59.245874797434" lon="17.933835875063">
        <ele>101.4</ele>
        <time>2016-04-08T17:18:34Z</time>
      </trkpt>
      <trkpt lat="59.245793409185" lon="17.933745015267">
        <ele>100.8</ele>
        <time>2016-04-08T17:18:35Z</time>
      </trkpt>
      <trkpt lat="59.245714703144" lon="17.933635463834">
        <ele>100.2</ele>
        <time>2016-04-08T17:18:36Z</time>
      </trkpt>
      <trkpt lat="59.245628788669" lon="17.933509651515">
        <ele>99.6</ele>
        <time>2016-04-08T17:18:37Z</time>
      </trkpt>
      <trkpt lat="59.245559637994" lon="17.933363554998">
        <ele>98.8</ele>
        <time>2016-04-08T17:18:38Z</time>
      </trkpt>
      <trkpt lat="59.245496857563" lon="17.933219386318">
        <ele>98.2</ele>
        <time>2016-04-08T17:18:39Z</time>
      </trkpt>
      <trkpt lat="59.245438938634" lon="17.933075972009">
        <ele>96.8</ele>
        <time>2016-04-08T17:18:40Z</time>
      </trkpt>
      <trkpt lat="59.245382360809" lon="17.932926522732">
        <ele>96</ele>
        <time>2016-04-08T17:18:41Z</time>
      </trkpt>
      <trkpt lat="59.245230061686" lon="17.932513965614">
        <ele>96</ele>
        <time>2016-04-08T17:18:44Z</time>
      </trkpt>
      <trkpt lat="59.245022442023" lon="17.932084812334">
        <ele>96</ele>
        <time>2016-04-08T17:18:48Z</time>
      </trkpt>
      <trkpt lat="59.244964942189" lon="17.93198205024">
        <ele>96</ele>
        <time>2016-04-08T17:18:49Z</time>
      </trkpt>
      <trkpt lat="59.244685405824" lon="17.931575276633">
        <ele>96</ele>
        <time>2016-04-08T17:18:53Z</time>
      </trkpt>
      <trkpt lat="59.244310902532" lon="17.931178393668">
        <ele>95.6</ele>
        <time>2016-04-08T17:18:58Z</time>
      </trkpt>
      <trkpt lat="59.24424233859" lon="17.931113936857">
        <ele>95.2</ele>
        <time>2016-04-08T17:18:59Z</time>
      </trkpt>
      <trkpt lat="59.244167320585" lon="17.931050150598">
        <ele>94.8</ele>
        <time>2016-04-08T17:19:00Z</time>
      </trkpt>
      <trkpt lat="59.244094230417" lon="17.930984268864">
        <ele>94.4</ele>
        <time>2016-04-08T17:19:01Z</time>
      </trkpt>
      <trkpt lat="59.244019631507" lon="17.930894331077">
        <ele>93.8</ele>
        <time>2016-04-08T17:19:02Z</time>
      </trkpt>
      <trkpt lat="59.243945200235" lon="17.930795592295">
        <ele>93.8</ele>
        <time>2016-04-08T17:19:03Z</time>
      </trkpt>
      <trkpt lat="59.243617551764" lon="17.930244985284">
        <ele>93.8</ele>
        <time>2016-04-08T17:19:08Z</time>
      </trkpt>
      <trkpt lat="59.243366849135" lon="17.929624054132">
        <ele>93.8</ele>
        <time>2016-04-08T17:19:13Z</time>
      </trkpt>
      <trkpt lat="59.243331561336" lon="17.929487010067">
        <ele>93.8</ele>
        <time>2016-04-08T17:19:14Z</time>
      </trkpt>
      <trkpt lat="59.243185548638" lon="17.929140418502">
        <ele>93.4</ele>
        <time>2016-04-08T17:19:17Z</time>
      </trkpt>
      <trkpt lat="59.243124612225" lon="17.929040087159">
        <ele>93</ele>
        <time>2016-04-08T17:19:18Z</time>
      </trkpt>
      <trkpt lat="59.243062586165" lon="17.9289343914">
        <ele>92.6</ele>
        <time>2016-04-08T17:19:19Z</time>
      </trkpt>
      <trkpt lat="59.243001314476" lon="17.928818385904">
        <ele>92.2</ele>
        <time>2016-04-08T17:19:20Z</time>
      </trkpt>
      <trkpt lat="59.242943395547" lon="17.928687209169">
        <ele>91.8</ele>
        <time>2016-04-08T17:19:21Z</time>
      </trkpt>
      <trkpt lat="59.242883213505" lon="17.928540861195">
        <ele>91.2</ele>
        <time>2016-04-08T17:19:22Z</time>
      </trkpt>
      <trkpt lat="59.242825965128" lon="17.928400548189">
        <ele>90.6</ele>
        <time>2016-04-08T17:19:23Z</time>
      </trkpt>
      <trkpt lat="59.242769303484" lon="17.92826300121">
        <ele>90</ele>
        <time>2016-04-08T17:19:24Z</time>
      </trkpt>
      <trkpt lat="59.242712306564" lon="17.928130148095">
        <ele>89.4</ele>
        <time>2016-04-08T17:19:25Z</time>
      </trkpt>
      <trkpt lat="59.242656650748" lon="17.928000061007">
        <ele>88.8</ele>
        <time>2016-04-08T17:19:26Z</time>
      </trkpt>
      <trkpt lat="59.242549613885" lon="17.92774583798">
        <ele>88.8</ele>
        <time>2016-04-08T17:19:28Z</time>
      </trkpt>
      <trkpt lat="59.242309807726" lon="17.92707193322">
        <ele>88.8</ele>
        <time>2016-04-08T17:19:33Z</time>
      </trkpt>
      <trkpt lat="59.242049465912" lon="17.926441530521">
        <ele>88.4</ele>
        <time>2016-04-08T17:19:38Z</time>
      </trkpt>
      <trkpt lat="59.241998923055" lon="17.92631253308">
        <ele>88</ele>
        <time>2016-04-08T17:19:39Z</time>
      </trkpt>
      <trkpt lat="59.241945278895" lon="17.926184709105">
        <ele>87.6</ele>
        <time>2016-04-08T17:19:40Z</time>
      </trkpt>
      <trkpt lat="59.241892389106" lon="17.926060656985">
        <ele>87.2</ele>
        <time>2016-04-08T17:19:41Z</time>
      </trkpt>
      <trkpt lat="59.241839583136" lon="17.925936018132">
        <ele>86.8</ele>
        <time>2016-04-08T17:19:42Z</time>
      </trkpt>
      <trkpt lat="59.241788453546" lon="17.925812636564">
        <ele>86.4</ele>
        <time>2016-04-08T17:19:43Z</time>
      </trkpt>
      <trkpt lat="59.241738916517" lon="17.925696547249">
        <ele>86</ele>
        <time>2016-04-08T17:19:44Z</time>
      </trkpt>
      <trkpt lat="59.241690469135" lon="17.925571656939">
        <ele>85.6</ele>
        <time>2016-04-08T17:19:45Z</time>
      </trkpt>
      <trkpt lat="59.241642943762" lon="17.925451125217">
        <ele>85</ele>
        <time>2016-04-08T17:19:46Z</time>
      </trkpt>
      <trkpt lat="59.241595250751" lon="17.925333610979">
        <ele>84.6</ele>
        <time>2016-04-08T17:19:47Z</time>
      </trkpt>
      <trkpt lat="59.241496260512" lon="17.925102857272">
        <ele>84.6</ele>
        <time>2016-04-08T17:19:49Z</time>
      </trkpt>
      <trkpt lat="59.241401125947" lon="17.924864476036">
        <ele>84.6</ele>
        <time>2016-04-08T17:19:51Z</time>
      </trkpt>
      <trkpt lat="59.241029221044" lon="17.923971887505">
        <ele>84.6</ele>
        <time>2016-04-08T17:20:00Z</time>
      </trkpt>
      <trkpt lat="59.240787822324" lon="17.923386914704">
        <ele>84.6</ele>
        <time>2016-04-08T17:20:06Z</time>
      </trkpt>
      <trkpt lat="59.240555895151" lon="17.922924233824">
        <ele>84.6</ele>
        <time>2016-04-08T17:20:11Z</time>
      </trkpt>
      <trkpt lat="59.240499401145" lon="17.922864387058">
        <ele>84.6</ele>
        <time>2016-04-08T17:20:12Z</time>
      </trkpt>
      <trkpt lat="59.240391442273" lon="17.922891963509">
        <ele>84.6</ele>
        <time>2016-04-08T17:20:14Z</time>
      </trkpt>
      <trkpt lat="59.240332517516" lon="17.923049040315">
        <ele>84.6</ele>
        <time>2016-04-08T17:20:16Z</time>
      </trkpt>
      <trkpt lat="59.240347940212" lon="17.923388339627">
        <ele>84.6</ele>
        <time>2016-04-08T17:20:19Z</time>
      </trkpt>
      <trkpt lat="59.240399069802" lon="17.923741217617">
        <ele>84.6</ele>
        <time>2016-04-08T17:20:22Z</time>
      </trkpt>
      <trkpt lat="59.240454977075" lon="17.923977671016">
        <ele>85</ele>
        <time>2016-04-08T17:20:24Z</time>
      </trkpt>
      <trkpt lat="59.240482134431" lon="17.924099627661">
        <ele>85.6</ele>
        <time>2016-04-08T17:20:25Z</time>
      </trkpt>
      <trkpt lat="59.240506441941" lon="17.924229798568">
        <ele>86</ele>
        <time>2016-04-08T17:20:26Z</time>
      </trkpt>
      <trkpt lat="59.240533850754" lon="17.924364663339">
        <ele>86.4</ele>
        <time>2016-04-08T17:20:27Z</time>
      </trkpt>
      <trkpt lat="59.24056268449" lon="17.924501288309">
        <ele>87</ele>
        <time>2016-04-08T17:20:28Z</time>
      </trkpt>
      <trkpt lat="59.240590596217" lon="17.924640427849">
        <ele>87</ele>
        <time>2016-04-08T17:20:29Z</time>
      </trkpt>
      <trkpt lat="59.240737111829" lon="17.925533770751">
        <ele>86.6</ele>
        <time>2016-04-08T17:20:35Z</time>
      </trkpt>
      <trkpt lat="59.240761251701" lon="17.925682633295">
        <ele>86</ele>
        <time>2016-04-08T17:20:36Z</time>
      </trkpt>
      <trkpt lat="59.24078564303" lon="17.925826801975">
        <ele>85.6</ele>
        <time>2016-04-08T17:20:37Z</time>
      </trkpt>
      <trkpt lat="59.240815650232" lon="17.925972311759">
        <ele>85.2</ele>
        <time>2016-04-08T17:20:38Z</time>
      </trkpt>
      <trkpt lat="59.240844986882" lon="17.926119414104">
        <ele>84.8</ele>
        <time>2016-04-08T17:20:39Z</time>
      </trkpt>
      <trkpt lat="59.240936601049" lon="17.926558206569">
        <ele>84.8</ele>
        <time>2016-04-08T17:20:42Z</time>
      </trkpt>
      <trkpt lat="59.241054534382" lon="17.927302016375">
        <ele>84.8</ele>
        <time>2016-04-08T17:20:47Z</time>
      </trkpt>
      <trkpt lat="59.241223681124" lon="17.928341539613">
        <ele>84.8</ele>
        <time>2016-04-08T17:20:54Z</time>
      </trkpt>
      <trkpt lat="59.241402969965" lon="17.92939874866">
        <ele>84.8</ele>
        <time>2016-04-08T17:21:01Z</time>
      </trkpt>
      <trkpt lat="59.241589215783" lon="17.930487976565">
        <ele>84.8</ele>
        <time>2016-04-08T17:21:08Z</time>
      </trkpt>
      <trkpt lat="59.241644955418" lon="17.930806991679">
        <ele>84.8</ele>
        <time>2016-04-08T17:21:10Z</time>
      </trkpt>
      <trkpt lat="59.241671442222" lon="17.930959039345">
        <ele>84.4</ele>
        <time>2016-04-08T17:21:11Z</time>
      </trkpt>
      <trkpt lat="59.241692648429" lon="17.931112679572">
        <ele>84</ele>
        <time>2016-04-08T17:21:12Z</time>
      </trkpt>
      <trkpt lat="59.241716201568" lon="17.93126539779">
        <ele>83.6</ele>
        <time>2016-04-08T17:21:13Z</time>
      </trkpt>
      <trkpt lat="59.241739000336" lon="17.931415601438">
        <ele>83.2</ele>
        <time>2016-04-08T17:21:14Z</time>
      </trkpt>
      <trkpt lat="59.241758362525" lon="17.931567732923">
        <ele>82.6</ele>
        <time>2016-04-08T17:21:15Z</time>
      </trkpt>
      <trkpt lat="59.241776718886" lon="17.931887502408">
        <ele>82.6</ele>
        <time>2016-04-08T17:21:17Z</time>
      </trkpt>
      <trkpt lat="59.24178057456" lon="17.932047261422">
        <ele>82.6</ele>
        <time>2016-04-08T17:21:18Z</time>
      </trkpt>
      <trkpt lat="59.241792057763" lon="17.933155600059">
        <ele>82.6</ele>
        <time>2016-04-08T17:21:25Z</time>
      </trkpt>
      <trkpt lat="59.241792728315" lon="17.933308988829">
        <ele>82.6</ele>
        <time>2016-04-08T17:21:26Z</time>
      </trkpt>
      <trkpt lat="59.241801277853" lon="17.933779716333">
        <ele>82.6</ele>
        <time>2016-04-08T17:21:30Z</time>
      </trkpt>
      <trkpt lat="59.241818879843" lon="17.934050367884">
        <ele>82.6</ele>
        <time>2016-04-08T17:21:34Z</time>
      </trkpt>
      <trkpt lat="59.241821897327" lon="17.934142484965">
        <ele>82.6</ele>
        <time>2016-04-08T17:21:35Z</time>
      </trkpt>
      <trkpt lat="59.241824411897" lon="17.934344572574">
        <ele>82.6</ele>
        <time>2016-04-08T17:21:37Z</time>
      </trkpt>
      <trkpt lat="59.24182164587" lon="17.934470552531">
        <ele>82.6</ele>
        <time>2016-04-08T17:21:38Z</time>
      </trkpt>
      <trkpt lat="59.241825920639" lon="17.934866848763">
        <ele>82.6</ele>
        <time>2016-04-08T17:21:41Z</time>
      </trkpt>
      <trkpt lat="59.241810162667" lon="17.935134650468">
        <ele>82.6</ele>
        <time>2016-04-08T17:21:43Z</time>
      </trkpt>
      <trkpt lat="59.241677141914" lon="17.935637815925">
        <ele>82.6</ele>
        <time>2016-04-08T17:21:47Z</time>
      </trkpt>
      <trkpt lat="59.241622911021" lon="17.935736470888">
        <ele>82.6</ele>
        <time>2016-04-08T17:21:48Z</time>
      </trkpt>
      <trkpt lat="59.241332813462" lon="17.936183645253">
        <ele>82.6</ele>
        <time>2016-04-08T17:21:53Z</time>
      </trkpt>
      <trkpt lat="59.241092588208" lon="17.936549179912">
        <ele>82.2</ele>
        <time>2016-04-08T17:21:57Z</time>
      </trkpt>
      <trkpt lat="59.24103374727" lon="17.936640123527">
        <ele>81.8</ele>
        <time>2016-04-08T17:21:58Z</time>
      </trkpt>
      <trkpt lat="59.240975660703" lon="17.936729139305">
        <ele>81</ele>
        <time>2016-04-08T17:21:59Z</time>
      </trkpt>
      <trkpt lat="59.240915897756" lon="17.936820418196">
        <ele>80.6</ele>
        <time>2016-04-08T17:22:00Z</time>
      </trkpt>
      <trkpt lat="59.240854709886" lon="17.936908763422">
        <ele>80.6</ele>
        <time>2016-04-08T17:22:01Z</time>
      </trkpt>
      <trkpt lat="59.24042522133" lon="17.937559701776">
        <ele>80.6</ele>
        <time>2016-04-08T17:22:08Z</time>
      </trkpt>
      <trkpt lat="59.240091705529" lon="17.93811843923">
        <ele>80.6</ele>
        <time>2016-04-08T17:22:14Z</time>
      </trkpt>
      <trkpt lat="59.240041078853" lon="17.938231259604">
        <ele>80.6</ele>
        <time>2016-04-08T17:22:15Z</time>
      </trkpt>
      <trkpt lat="59.239998331163" lon="17.938354724991">
        <ele>80.2</ele>
        <time>2016-04-08T17:22:16Z</time>
      </trkpt>
      <trkpt lat="59.23996170226" lon="17.938489589762">
        <ele>79.8</ele>
        <time>2016-04-08T17:22:17Z</time>
      </trkpt>
      <trkpt lat="59.239935969827" lon="17.938622275239">
        <ele>79.2</ele>
        <time>2016-04-08T17:22:18Z</time>
      </trkpt>
      <trkpt lat="59.239913673973" lon="17.93875881639">
        <ele>78.8</ele>
        <time>2016-04-08T17:22:19Z</time>
      </trkpt>
      <trkpt lat="59.239894982336" lon="17.93889963231">
        <ele>78.4</ele>
        <time>2016-04-08T17:22:20Z</time>
      </trkpt>
      <trkpt lat="59.239843014556" lon="17.939475552659">
        <ele>78.4</ele>
        <time>2016-04-08T17:22:24Z</time>
      </trkpt>
      <trkpt lat="59.239781239953" lon="17.940369398475">
        <ele>78.8</ele>
        <time>2016-04-08T17:22:30Z</time>
      </trkpt>
      <trkpt lat="59.239769840569" lon="17.940518847752">
        <ele>79.2</ele>
        <time>2016-04-08T17:22:31Z</time>
      </trkpt>
      <trkpt lat="59.239758441185" lon="17.940675337825">
        <ele>79.6</ele>
        <time>2016-04-08T17:22:32Z</time>
      </trkpt>
      <trkpt lat="59.239745365421" lon="17.940820009419">
        <ele>80</ele>
        <time>2016-04-08T17:22:33Z</time>
      </trkpt>
      <trkpt lat="59.239730948553" lon="17.940964513375">
        <ele>80.4</ele>
        <time>2016-04-08T17:22:34Z</time>
      </trkpt>
      <trkpt lat="59.239611255021" lon="17.941797925692">
        <ele>80.4</ele>
        <time>2016-04-08T17:22:40Z</time>
      </trkpt>
      <trkpt lat="59.239449400532" lon="17.942227833343">
        <ele>80.4</ele>
        <time>2016-04-08T17:22:44Z</time>
      </trkpt>
      <trkpt lat="59.239278493591" lon="17.942446600933">
        <ele>80.8</ele>
        <time>2016-04-08T17:22:47Z</time>
      </trkpt>
      <trkpt lat="59.239218898282" lon="17.942499071627">
        <ele>81.2</ele>
        <time>2016-04-08T17:22:48Z</time>
      </trkpt>
      <trkpt lat="59.239161649905" lon="17.942546177905">
        <ele>82.2</ele>
        <time>2016-04-08T17:22:49Z</time>
      </trkpt>
      <trkpt lat="59.239103060424" lon="17.942586662482">
        <ele>82.6</ele>
        <time>2016-04-08T17:22:50Z</time>
      </trkpt>
      <trkpt lat="59.23898353453" lon="17.942657824813">
        <ele>82.6</ele>
        <time>2016-04-08T17:22:52Z</time>
      </trkpt>
      <trkpt lat="59.238919748271" lon="17.942692022965">
        <ele>82.6</ele>
        <time>2016-04-08T17:22:53Z</time>
      </trkpt>
      <trkpt lat="59.238677259904" lon="17.942864103372">
        <ele>82.6</ele>
        <time>2016-04-08T17:22:57Z</time>
      </trkpt>
      <trkpt lat="59.238627555237" lon="17.942938115549">
        <ele>82.6</ele>
        <time>2016-04-08T17:22:58Z</time>
      </trkpt>
      <trkpt lat="59.238533175043" lon="17.943094437984">
        <ele>82.6</ele>
        <time>2016-04-08T17:23:00Z</time>
      </trkpt>
      <trkpt lat="59.238460084875" lon="17.943286886408">
        <ele>83</ele>
        <time>2016-04-08T17:23:02Z</time>
      </trkpt>
      <trkpt lat="59.238416247538" lon="17.943377746204">
        <ele>83.4</ele>
        <time>2016-04-08T17:23:03Z</time>
      </trkpt>
      <trkpt lat="59.238374421857" lon="17.943473383683">
        <ele>83.8</ele>
        <time>2016-04-08T17:23:04Z</time>
      </trkpt>
      <trkpt lat="59.23833980461" lon="17.943591987568">
        <ele>84.4</ele>
        <time>2016-04-08T17:23:05Z</time>
      </trkpt>
      <trkpt lat="59.238300912594" lon="17.943706316684">
        <ele>84.8</ele>
        <time>2016-04-08T17:23:06Z</time>
      </trkpt>
      <trkpt lat="59.238235198498" lon="17.943955762028">
        <ele>84.8</ele>
        <time>2016-04-08T17:23:08Z</time>
      </trkpt>
      <trkpt lat="59.238186332021" lon="17.944194227083">
        <ele>84.8</ele>
        <time>2016-04-08T17:23:10Z</time>
      </trkpt>
      <trkpt lat="59.238140985942" lon="17.944548278539">
        <ele>85.2</ele>
        <time>2016-04-08T17:23:13Z</time>
      </trkpt>
      <trkpt lat="59.238123132495" lon="17.94466302675">
        <ele>85.6</ele>
        <time>2016-04-08T17:23:14Z</time>
      </trkpt>
      <trkpt lat="59.238103937944" lon="17.944775260391">
        <ele>86.2</ele>
        <time>2016-04-08T17:23:15Z</time>
      </trkpt>
      <trkpt lat="59.238085413945" lon="17.94488598529">
        <ele>86.6</ele>
        <time>2016-04-08T17:23:16Z</time>
      </trkpt>
      <trkpt lat="59.238068398688" lon="17.945004840632">
        <ele>87</ele>
        <time>2016-04-08T17:23:17Z</time>
      </trkpt>
      <trkpt lat="59.238030344862" lon="17.94523383414">
        <ele>87</ele>
        <time>2016-04-08T17:23:19Z</time>
      </trkpt>
      <trkpt lat="59.237988854457" lon="17.945456122128">
        <ele>87</ele>
        <time>2016-04-08T17:23:21Z</time>
      </trkpt>
      <trkpt lat="59.237831442375" lon="17.946020307817">
        <ele>87</ele>
        <time>2016-04-08T17:23:26Z</time>
      </trkpt>
      <trkpt lat="59.237695907052" lon="17.946488772208">
        <ele>86.6</ele>
        <time>2016-04-08T17:23:30Z</time>
      </trkpt>
      <trkpt lat="59.237661625081" lon="17.946601089668">
        <ele>86</ele>
        <time>2016-04-08T17:23:31Z</time>
      </trkpt>
      <trkpt lat="59.237620050857" lon="17.946711898386">
        <ele>85.6</ele>
        <time>2016-04-08T17:23:32Z</time>
      </trkpt>
      <trkpt lat="59.237578895728" lon="17.946821868914">
        <ele>85.2</ele>
        <time>2016-04-08T17:23:33Z</time>
      </trkpt>
      <trkpt lat="59.23753681859" lon="17.94692781613">
        <ele>84.8</ele>
        <time>2016-04-08T17:23:34Z</time>
      </trkpt>
      <trkpt lat="59.237333892791" lon="17.947399130367">
        <ele>84.8</ele>
        <time>2016-04-08T17:23:39Z</time>
      </trkpt>
      <trkpt lat="59.237233896724" lon="17.947534581871">
        <ele>84.8</ele>
        <time>2016-04-08T17:23:41Z</time>
      </trkpt>
      <trkpt lat="59.237176648347" lon="17.947510861094">
        <ele>84.8</ele>
        <time>2016-04-08T17:23:42Z</time>
      </trkpt>
      <trkpt lat="59.236954947092" lon="17.947268540365">
        <ele>84.8</ele>
        <time>2016-04-08T17:23:46Z</time>
      </trkpt>
      <trkpt lat="59.236774317147" lon="17.947046671472">
        <ele>84.8</ele>
        <time>2016-04-08T17:23:49Z</time>
      </trkpt>
      <trkpt lat="59.236642721317" lon="17.946942568274">
        <ele>84.8</ele>
        <time>2016-04-08T17:23:51Z</time>
      </trkpt>
      <trkpt lat="59.236381541313" lon="17.946863778414">
        <ele>84.8</ele>
        <time>2016-04-08T17:23:55Z</time>
      </trkpt>
      <trkpt lat="59.236252543872" lon="17.946890432856">
        <ele>84.8</ele>
        <time>2016-04-08T17:23:57Z</time>
      </trkpt>
      <trkpt lat="59.236063532027" lon="17.946979700091">
        <ele>84.8</ele>
        <time>2016-04-08T17:24:00Z</time>
      </trkpt>
      <trkpt lat="59.235942078296" lon="17.947081037262">
        <ele>84.8</ele>
        <time>2016-04-08T17:24:02Z</time>
      </trkpt>
      <trkpt lat="59.235825486067" lon="17.947219422431">
        <ele>84.8</ele>
        <time>2016-04-08T17:24:04Z</time>
      </trkpt>
      <trkpt lat="59.235769830251" lon="17.947303744345">
        <ele>84.8</ele>
        <time>2016-04-08T17:24:05Z</time>
      </trkpt>
      <trkpt lat="59.235581488958" lon="17.947557380639">
        <ele>84.2</ele>
        <time>2016-04-08T17:24:08Z</time>
      </trkpt>
      <trkpt lat="59.235509739894" lon="17.947618736147">
        <ele>83.8</ele>
        <time>2016-04-08T17:24:09Z</time>
      </trkpt>
      <trkpt lat="59.235433464604" lon="17.947670620108">
        <ele>83.2</ele>
        <time>2016-04-08T17:24:10Z</time>
      </trkpt>
      <trkpt lat="59.235353082183" lon="17.947707835744">
        <ele>82.6</ele>
        <time>2016-04-08T17:24:11Z</time>
      </trkpt>
      <trkpt lat="59.235269011726" lon="17.947721833517">
        <ele>82</ele>
        <time>2016-04-08T17:24:12Z</time>
      </trkpt>
      <trkpt lat="59.235182678156" lon="17.947730383055">
        <ele>81.4</ele>
        <time>2016-04-08T17:24:13Z</time>
      </trkpt>
      <trkpt lat="59.235096176948" lon="17.947743291181">
        <ele>80.6</ele>
        <time>2016-04-08T17:24:14Z</time>
      </trkpt>
      <trkpt lat="59.235009005188" lon="17.947756618402">
        <ele>79.8</ele>
        <time>2016-04-08T17:24:15Z</time>
      </trkpt>
      <trkpt lat="59.234922336342" lon="17.947770532356">
        <ele>79.2</ele>
        <time>2016-04-08T17:24:16Z</time>
      </trkpt>
      <trkpt lat="59.234833069107" lon="17.947789559269">
        <ele>78.4</ele>
        <time>2016-04-08T17:24:17Z</time>
      </trkpt>
      <trkpt lat="59.234747573727" lon="17.947804143775">
        <ele>77.6</ele>
        <time>2016-04-08T17:24:18Z</time>
      </trkpt>
      <trkpt lat="59.234493183062" lon="17.947867678577">
        <ele>77.6</ele>
        <time>2016-04-08T17:24:21Z</time>
      </trkpt>
      <trkpt lat="59.234062856316" lon="17.947881089617">
        <ele>77.6</ele>
        <time>2016-04-08T17:24:26Z</time>
      </trkpt>
      <trkpt lat="59.233812069868" lon="17.947861224514">
        <ele>77.2</ele>
        <time>2016-04-08T17:24:29Z</time>
      </trkpt>
      <trkpt lat="59.233728418506" lon="17.947862062704">
        <ele>76.8</ele>
        <time>2016-04-08T17:24:30Z</time>
      </trkpt>
      <trkpt lat="59.233646359705" lon="17.947869522595">
        <ele>76.4</ele>
        <time>2016-04-08T17:24:31Z</time>
      </trkpt>
      <trkpt lat="59.233560780506" lon="17.947877904495">
        <ele>76</ele>
        <time>2016-04-08T17:24:32Z</time>
      </trkpt>
      <trkpt lat="59.233480146628" lon="17.94788419092">
        <ele>75.4</ele>
        <time>2016-04-08T17:24:33Z</time>
      </trkpt>
      <trkpt lat="59.232935574585" lon="17.94804428521">
        <ele>75.4</ele>
        <time>2016-04-08T17:24:40Z</time>
      </trkpt>
      <trkpt lat="59.232667521423" lon="17.948215359789">
        <ele>75.4</ele>
        <time>2016-04-08T17:24:44Z</time>
      </trkpt>
      <trkpt lat="59.232600214766" lon="17.948257436927">
        <ele>75.4</ele>
        <time>2016-04-08T17:24:45Z</time>
      </trkpt>
      <trkpt lat="59.232214479728" lon="17.948566896675">
        <ele>75.4</ele>
        <time>2016-04-08T17:24:51Z</time>
      </trkpt>
      <trkpt lat="59.231702848552" lon="17.948903681417">
        <ele>75.4</ele>
        <time>2016-04-08T17:24:59Z</time>
      </trkpt>
      <trkpt lat="59.23122021875" lon="17.949151618019">
        <ele>75.4</ele>
        <time>2016-04-08T17:25:06Z</time>
      </trkpt>
      <trkpt lat="59.231150816618" lon="17.949165196697">
        <ele>75.4</ele>
        <time>2016-04-08T17:25:07Z</time>
      </trkpt>
      <trkpt lat="59.231010252155" lon="17.949120856446">
        <ele>75.4</ele>
        <time>2016-04-08T17:25:09Z</time>
      </trkpt>
      <trkpt lat="59.230893743745" lon="17.948923378882">
        <ele>75.4</ele>
        <time>2016-04-08T17:25:11Z</time>
      </trkpt>
      <trkpt lat="59.230778827896" lon="17.94848684953">
        <ele>75.4</ele>
        <time>2016-04-08T17:25:14Z</time>
      </trkpt>
      <trkpt lat="59.230648237894" lon="17.947815375521">
        <ele>75.4</ele>
        <time>2016-04-08T17:25:19Z</time>
      </trkpt>
      <trkpt lat="59.230586630929" lon="17.947209280332">
        <ele>75.4</ele>
        <time>2016-04-08T17:25:24Z</time>
      </trkpt>
      <trkpt lat="59.230583697264" lon="17.947079696158">
        <ele>76</ele>
        <time>2016-04-08T17:25:25Z</time>
      </trkpt>
      <trkpt lat="59.23058235616" lon="17.946948016509">
        <ele>76.4</ele>
        <time>2016-04-08T17:25:26Z</time>
      </trkpt>
      <trkpt lat="59.230584367816" lon="17.946808625512">
        <ele>76.8</ele>
        <time>2016-04-08T17:25:27Z</time>
      </trkpt>
      <trkpt lat="59.230585625101" lon="17.946676442949">
        <ele>77.2</ele>
        <time>2016-04-08T17:25:28Z</time>
      </trkpt>
      <trkpt lat="59.230588055852" lon="17.946546691137">
        <ele>77.6</ele>
        <time>2016-04-08T17:25:29Z</time>
      </trkpt>
      <trkpt lat="59.230619320339" lon="17.945507335537">
        <ele>77.6</ele>
        <time>2016-04-08T17:25:37Z</time>
      </trkpt>
      <trkpt lat="59.230629881533" lon="17.945128892752">
        <ele>78</ele>
        <time>2016-04-08T17:25:40Z</time>
      </trkpt>
      <trkpt lat="59.230635078311" lon="17.945004505356">
        <ele>78.6</ele>
        <time>2016-04-08T17:25:41Z</time>
      </trkpt>
      <trkpt lat="59.230639855994" lon="17.944872406612">
        <ele>79.4</ele>
        <time>2016-04-08T17:25:42Z</time>
      </trkpt>
      <trkpt lat="59.230643795487" lon="17.944744247361">
        <ele>79.8</ele>
        <time>2016-04-08T17:25:43Z</time>
      </trkpt>
      <trkpt lat="59.230651758292" lon="17.944480552787">
        <ele>79.8</ele>
        <time>2016-04-08T17:25:45Z</time>
      </trkpt>
      <trkpt lat="59.230662738581" lon="17.944088782781">
        <ele>80.2</ele>
        <time>2016-04-08T17:25:48Z</time>
      </trkpt>
      <trkpt lat="59.230669360282" lon="17.943963557195">
        <ele>80.6</ele>
        <time>2016-04-08T17:25:49Z</time>
      </trkpt>
      <trkpt lat="59.230673635051" lon="17.943825423483">
        <ele>81</ele>
        <time>2016-04-08T17:25:50Z</time>
      </trkpt>
      <trkpt lat="59.230676484897" lon="17.943692905644">
        <ele>81.4</ele>
        <time>2016-04-08T17:25:51Z</time>
      </trkpt>
      <trkpt lat="59.230681933132" lon="17.943561896547">
        <ele>81.8</ele>
        <time>2016-04-08T17:25:52Z</time>
      </trkpt>
      <trkpt lat="59.230688387195" lon="17.943432312373">
        <ele>81.4</ele>
        <time>2016-04-08T17:25:53Z</time>
      </trkpt>
      <trkpt lat="59.230691069403" lon="17.94330599714">
        <ele>81</ele>
        <time>2016-04-08T17:25:54Z</time>
      </trkpt>
      <trkpt lat="59.23069299724" lon="17.943179514269">
        <ele>80.6</ele>
        <time>2016-04-08T17:25:55Z</time>
      </trkpt>
      <trkpt lat="59.230695763267" lon="17.943048756629">
        <ele>80</ele>
        <time>2016-04-08T17:25:56Z</time>
      </trkpt>
      <trkpt lat="59.230698361656" lon="17.942911461107">
        <ele>79.6</ele>
        <time>2016-04-08T17:25:57Z</time>
      </trkpt>
      <trkpt lat="59.230707078832" lon="17.942649610551">
        <ele>79.6</ele>
        <time>2016-04-08T17:25:59Z</time>
      </trkpt>
      <trkpt lat="59.23072736303" lon="17.941531800367">
        <ele>79.6</ele>
        <time>2016-04-08T17:26:07Z</time>
      </trkpt>
      <trkpt lat="59.23078687452" lon="17.940768963648">
        <ele>79.6</ele>
        <time>2016-04-08T17:26:12Z</time>
      </trkpt>
      <trkpt lat="59.230849319675" lon="17.939846200277">
        <ele>79.6</ele>
        <time>2016-04-08T17:26:18Z</time>
      </trkpt>
      <trkpt lat="59.230874213918" lon="17.938894519351">
        <ele>79.6</ele>
        <time>2016-04-08T17:26:24Z</time>
      </trkpt>
      <trkpt lat="59.230898437609" lon="17.938164455861">
        <ele>79.6</ele>
        <time>2016-04-08T17:26:30Z</time>
      </trkpt>
      <trkpt lat="59.230903718206" lon="17.938087174743">
        <ele>79.6</ele>
        <time>2016-04-08T17:26:33Z</time>
      </trkpt>
      <trkpt lat="59.230903466749" lon="17.938088515847">
        <ele>79.6</ele>
        <time>2016-04-08T17:26:34Z</time>
      </trkpt>
      <trkpt lat="59.230929283001" lon="17.937988603599">
        <ele>79.6</ele>
        <time>2016-04-08T17:28:09Z</time>
      </trkpt>
      <trkpt lat="59.230934479779" lon="17.937918782372">
        <ele>79.6</ele>
        <time>2016-04-08T17:28:10Z</time>
      </trkpt>
      <trkpt lat="59.23094696881" lon="17.937633797772">
        <ele>79.6</ele>
        <time>2016-04-08T17:28:15Z</time>
      </trkpt>
      <trkpt lat="59.230923583309" lon="17.937626924614">
        <ele>79.6</ele>
        <time>2016-04-08T17:28:18Z</time>
      </trkpt>
      <trkpt lat="59.230825347441" lon="17.937665397535">
        <ele>79.6</ele>
        <time>2016-04-08T17:29:15Z</time>
      </trkpt>
      <trkpt lat="59.23078519814" lon="17.937690627054">
        <ele>79.6</ele>
        <time>2016-04-08T17:29:16Z</time>
      </trkpt>
      <trkpt lat="59.230676820173" lon="17.937714683107">
        <ele>79.6</ele>
        <time>2016-04-08T17:29:18Z</time>
      </trkpt>
      <trkpt lat="59.230607753317" lon="17.937699763325">
        <ele>79.6</ele>
        <time>2016-04-08T17:29:19Z</time>
      </trkpt>
      <trkpt lat="59.230401055663" lon="17.937634384505">
        <ele>79.2</ele>
        <time>2016-04-08T17:29:22Z</time>
      </trkpt>
      <trkpt lat="59.230328803685" lon="17.937612591565">
        <ele>78.8</ele>
        <time>2016-04-08T17:29:23Z</time>
      </trkpt>
      <trkpt lat="59.230254288594" lon="17.937593648471">
        <ele>78</ele>
        <time>2016-04-08T17:29:24Z</time>
      </trkpt>
      <trkpt lat="59.230178180942" lon="17.937567161667">
        <ele>77.6</ele>
        <time>2016-04-08T17:29:25Z</time>
      </trkpt>
      <trkpt lat="59.230026803828" lon="17.937511002937">
        <ele>77.2</ele>
        <time>2016-04-08T17:29:27Z</time>
      </trkpt>
      <trkpt lat="59.229946253769" lon="17.937480828097">
        <ele>76.8</ele>
        <time>2016-04-08T17:29:28Z</time>
      </trkpt>
      <trkpt lat="59.22986905647" lon="17.93745207818">
        <ele>76.4</ele>
        <time>2016-04-08T17:29:29Z</time>
      </trkpt>
      <trkpt lat="59.229792194447" lon="17.937420646055">
        <ele>76</ele>
        <time>2016-04-08T17:29:30Z</time>
      </trkpt>
      <trkpt lat="59.229713236949" lon="17.937393153423">
        <ele>75.4</ele>
        <time>2016-04-08T17:29:31Z</time>
      </trkpt>
      <trkpt lat="59.229554064668" lon="17.93733892253">
        <ele>75.4</ele>
        <time>2016-04-08T17:29:33Z</time>
      </trkpt>
      <trkpt lat="59.229095490919" lon="17.937184947027">
        <ele>76</ele>
        <time>2016-04-08T17:29:39Z</time>
      </trkpt>
      <trkpt lat="59.229025166778" lon="17.9371570353">
        <ele>76.4</ele>
        <time>2016-04-08T17:29:40Z</time>
      </trkpt>
      <trkpt lat="59.228954004447" lon="17.937127111917">
        <ele>76.8</ele>
        <time>2016-04-08T17:29:41Z</time>
      </trkpt>
      <trkpt lat="59.228877812976" lon="17.937095763611">
        <ele>77.2</ele>
        <time>2016-04-08T17:29:42Z</time>
      </trkpt>
      <trkpt lat="59.228803884618" lon="17.937067768065">
        <ele>77.8</ele>
        <time>2016-04-08T17:29:43Z</time>
      </trkpt>
      <trkpt lat="59.228732051735" lon="17.93704052689">
        <ele>78.4</ele>
        <time>2016-04-08T17:29:44Z</time>
      </trkpt>
      <trkpt lat="59.22866038649" lon="17.937014878276">
        <ele>78.8</ele>
        <time>2016-04-08T17:29:45Z</time>
      </trkpt>
      <trkpt lat="59.228589307978" lon="17.936987637101">
        <ele>79.4</ele>
        <time>2016-04-08T17:29:46Z</time>
      </trkpt>
      <trkpt lat="59.228523090968" lon="17.936961401754">
        <ele>80</ele>
        <time>2016-04-08T17:29:47Z</time>
      </trkpt>
      <trkpt lat="59.228401721056" lon="17.936908260508">
        <ele>80.8</ele>
        <time>2016-04-08T17:29:49Z</time>
      </trkpt>
      <trkpt lat="59.228342293385" lon="17.936879007677">
        <ele>81.2</ele>
        <time>2016-04-08T17:29:50Z</time>
      </trkpt>
      <trkpt lat="59.228287894854" lon="17.93684774319">
        <ele>82</ele>
        <time>2016-04-08T17:29:51Z</time>
      </trkpt>
      <trkpt lat="59.22823290959" lon="17.936814550866">
        <ele>82.6</ele>
        <time>2016-04-08T17:29:52Z</time>
      </trkpt>
      <trkpt lat="59.228178259602" lon="17.936780268895">
        <ele>83.2</ele>
        <time>2016-04-08T17:29:53Z</time>
      </trkpt>
      <trkpt lat="59.22812394489" lon="17.936749255865">
        <ele>83.8</ele>
        <time>2016-04-08T17:29:54Z</time>
      </trkpt>
      <trkpt lat="59.228069546359" lon="17.936716398817">
        <ele>84.4</ele>
        <time>2016-04-08T17:29:55Z</time>
      </trkpt>
      <trkpt lat="59.227912134277" lon="17.936600728597">
        <ele>84.4</ele>
        <time>2016-04-08T17:29:58Z</time>
      </trkpt>
      <trkpt lat="59.227865447094" lon="17.936563512961">
        <ele>85</ele>
        <time>2016-04-08T17:29:59Z</time>
      </trkpt>
      <trkpt lat="59.22782052011" lon="17.9365283928">
        <ele>85.4</ele>
        <time>2016-04-08T17:30:00Z</time>
      </trkpt>
      <trkpt lat="59.227777688601" lon="17.936490255155">
        <ele>85.8</ele>
        <time>2016-04-08T17:30:01Z</time>
      </trkpt>
      <trkpt lat="59.227737623119" lon="17.93645127932">
        <ele>86.2</ele>
        <time>2016-04-08T17:30:02Z</time>
      </trkpt>
      <trkpt lat="59.227694623972" lon="17.936412638761">
        <ele>86.8</ele>
        <time>2016-04-08T17:30:03Z</time>
      </trkpt>
      <trkpt lat="59.227652546834" lon="17.93636746032">
        <ele>86.8</ele>
        <time>2016-04-08T17:30:04Z</time>
      </trkpt>
      <trkpt lat="59.227404023499" lon="17.936133018577">
        <ele>87.2</ele>
        <time>2016-04-08T17:30:10Z</time>
      </trkpt>
      <trkpt lat="59.227366388768" lon="17.936095719122">
        <ele>87.6</ele>
        <time>2016-04-08T17:30:11Z</time>
      </trkpt>
      <trkpt lat="59.227330095141" lon="17.936053558165">
        <ele>88</ele>
        <time>2016-04-08T17:30:12Z</time>
      </trkpt>
      <trkpt lat="59.227290616392" lon="17.93601122957">
        <ele>88.4</ele>
        <time>2016-04-08T17:30:13Z</time>
      </trkpt>
      <trkpt lat="59.227249964177" lon="17.935970912631">
        <ele>88.8</ele>
        <time>2016-04-08T17:30:14Z</time>
      </trkpt>
      <trkpt lat="59.227089702249" lon="17.935776871646">
        <ele>88.8</ele>
        <time>2016-04-08T17:30:18Z</time>
      </trkpt>
      <trkpt lat="59.227049217672" lon="17.935719958545">
        <ele>88.8</ele>
        <time>2016-04-08T17:30:19Z</time>
      </trkpt>
      <trkpt lat="59.227011582941" lon="17.935663632177">
        <ele>89.2</ele>
        <time>2016-04-08T17:30:20Z</time>
      </trkpt>
      <trkpt lat="59.226975289314" lon="17.935603953049">
        <ele>89.6</ele>
        <time>2016-04-08T17:30:21Z</time>
      </trkpt>
      <trkpt lat="59.226939330963" lon="17.935542094627">
        <ele>90</ele>
        <time>2016-04-08T17:30:22Z</time>
      </trkpt>
      <trkpt lat="59.226903791707" lon="17.935484510974">
        <ele>90.4</ele>
        <time>2016-04-08T17:30:23Z</time>
      </trkpt>
      <trkpt lat="59.226873533048" lon="17.935423909837">
        <ele>90.8</ele>
        <time>2016-04-08T17:30:24Z</time>
      </trkpt>
      <trkpt lat="59.22681217754" lon="17.935299354803">
        <ele>90.8</ele>
        <time>2016-04-08T17:30:26Z</time>
      </trkpt>
      <trkpt lat="59.226778314664" lon="17.935237831657">
        <ele>91.2</ele>
        <time>2016-04-08T17:30:27Z</time>
      </trkpt>
      <trkpt lat="59.226747972186" lon="17.935174464493">
        <ele>91.6</ele>
        <time>2016-04-08T17:30:28Z</time>
      </trkpt>
      <trkpt lat="59.22672081483" lon="17.935109504768">
        <ele>92</ele>
        <time>2016-04-08T17:30:29Z</time>
      </trkpt>
      <trkpt lat="59.226693489836" lon="17.935047478708">
        <ele>92.4</ele>
        <time>2016-04-08T17:30:30Z</time>
      </trkpt>
      <trkpt lat="59.22666633248" lon="17.934988302494">
        <ele>92.8</ele>
        <time>2016-04-08T17:30:31Z</time>
      </trkpt>
      <trkpt lat="59.226643785169" lon="17.93492828809">
        <ele>92.8</ele>
        <time>2016-04-08T17:30:32Z</time>
      </trkpt>
      <trkpt lat="59.226623249514" lon="17.934868944238">
        <ele>92.8</ele>
        <time>2016-04-08T17:30:33Z</time>
      </trkpt>
      <trkpt lat="59.226602210945" lon="17.934811947318">
        <ele>93.4</ele>
        <time>2016-04-08T17:30:34Z</time>
      </trkpt>
      <trkpt lat="59.226582597299" lon="17.93474891543">
        <ele>93.8</ele>
        <time>2016-04-08T17:30:35Z</time>
      </trkpt>
      <trkpt lat="59.226558038332" lon="17.934682866058">
        <ele>94.2</ele>
        <time>2016-04-08T17:30:36Z</time>
      </trkpt>
      <trkpt lat="59.226534904288" lon="17.934612541917">
        <ele>94.6</ele>
        <time>2016-04-08T17:30:37Z</time>
      </trkpt>
      <trkpt lat="59.226511518787" lon="17.9345418825">
        <ele>95</ele>
        <time>2016-04-08T17:30:38Z</time>
      </trkpt>
      <trkpt lat="59.226488887657" lon="17.934464349925">
        <ele>95</ele>
        <time>2016-04-08T17:30:39Z</time>
      </trkpt>
      <trkpt lat="59.226342455864" lon="17.933830762104">
        <ele>95</ele>
        <time>2016-04-08T17:30:47Z</time>
      </trkpt>
      <trkpt lat="59.226315047051" lon="17.933676702782">
        <ele>95.6</ele>
        <time>2016-04-08T17:30:49Z</time>
      </trkpt>
      <trkpt lat="59.226301049278" lon="17.933595314533">
        <ele>96</ele>
        <time>2016-04-08T17:30:50Z</time>
      </trkpt>
      <trkpt lat="59.226286800048" lon="17.933514848293">
        <ele>96.4</ele>
        <time>2016-04-08T17:30:51Z</time>
      </trkpt>
      <trkpt lat="59.226272969913" lon="17.933434717329">
        <ele>96.8</ele>
        <time>2016-04-08T17:30:52Z</time>
      </trkpt>
      <trkpt lat="59.226261067615" lon="17.933350311596">
        <ele>97.4</ele>
        <time>2016-04-08T17:30:53Z</time>
      </trkpt>
      <trkpt lat="59.226219744848" lon="17.933092484352">
        <ele>97.4</ele>
        <time>2016-04-08T17:30:56Z</time>
      </trkpt>
      <trkpt lat="59.226183115945" lon="17.932831220529">
        <ele>97.8</ele>
        <time>2016-04-08T17:30:59Z</time>
      </trkpt>
      <trkpt lat="59.226172051837" lon="17.932745976606">
        <ele>98.2</ele>
        <time>2016-04-08T17:31:00Z</time>
      </trkpt>
      <trkpt lat="59.226161658281" lon="17.932666097099">
        <ele>98.6</ele>
        <time>2016-04-08T17:31:01Z</time>
      </trkpt>
      <trkpt lat="59.226148414879" lon="17.932589067438">
        <ele>99.2</ele>
        <time>2016-04-08T17:31:02Z</time>
      </trkpt>
      <trkpt lat="59.226137183133" lon="17.932504661705">
        <ele>99.6</ele>
        <time>2016-04-08T17:31:03Z</time>
      </trkpt>
      <trkpt lat="59.226125951387" lon="17.932416148841">
        <ele>99.6</ele>
        <time>2016-04-08T17:31:04Z</time>
      </trkpt>
      <trkpt lat="59.226107930302" lon="17.932244487529">
        <ele>100</ele>
        <time>2016-04-08T17:31:06Z</time>
      </trkpt>
      <trkpt lat="59.226102901162" lon="17.932162177271">
        <ele>100.4</ele>
        <time>2016-04-08T17:31:07Z</time>
      </trkpt>
      <trkpt lat="59.226094267805" lon="17.932080453746">
        <ele>100.8</ele>
        <time>2016-04-08T17:31:08Z</time>
      </trkpt>
      <trkpt lat="59.226084209525" lon="17.931992527615">
        <ele>101.2</ele>
        <time>2016-04-08T17:31:09Z</time>
      </trkpt>
      <trkpt lat="59.226072726322" lon="17.931905272036">
        <ele>101.6</ele>
        <time>2016-04-08T17:31:10Z</time>
      </trkpt>
      <trkpt lat="59.226060991662" lon="17.93181692681">
        <ele>101.6</ele>
        <time>2016-04-08T17:31:11Z</time>
      </trkpt>
      <trkpt lat="59.225978429947" lon="17.931169341216">
        <ele>101.6</ele>
        <time>2016-04-08T17:31:18Z</time>
      </trkpt>
      <trkpt lat="59.225944986166" lon="17.930871867585">
        <ele>102</ele>
        <time>2016-04-08T17:31:21Z</time>
      </trkpt>
      <trkpt lat="59.225933670601" lon="17.93077505664">
        <ele>102.4</ele>
        <time>2016-04-08T17:31:22Z</time>
      </trkpt>
      <trkpt lat="59.225925875434" lon="17.930680760265">
        <ele>102.8</ele>
        <time>2016-04-08T17:31:23Z</time>
      </trkpt>
      <trkpt lat="59.225918164086" lon="17.930582189121">
        <ele>103.4</ele>
        <time>2016-04-08T17:31:24Z</time>
      </trkpt>
      <trkpt lat="59.225910788014" lon="17.930482360692">
        <ele>103.8</ele>
        <time>2016-04-08T17:31:25Z</time>
      </trkpt>
      <trkpt lat="59.225910788014" lon="17.930286140413">
        <ele>103.8</ele>
        <time>2016-04-08T17:31:27Z</time>
      </trkpt>
      <trkpt lat="59.225892766929" lon="17.92956387209">
        <ele>103.8</ele>
        <time>2016-04-08T17:31:34Z</time>
      </trkpt>
      <trkpt lat="59.225897628431" lon="17.928840011206">
        <ele>103.8</ele>
        <time>2016-04-08T17:31:41Z</time>
      </trkpt>
      <trkpt lat="59.225896538784" lon="17.9287332258">
        <ele>104.2</ele>
        <time>2016-04-08T17:31:42Z</time>
      </trkpt>
      <trkpt lat="59.225891761101" lon="17.928621662711">
        <ele>104.6</ele>
        <time>2016-04-08T17:31:43Z</time>
      </trkpt>
      <trkpt lat="59.225886145228" lon="17.928517140418">
        <ele>105</ele>
        <time>2016-04-08T17:31:44Z</time>
      </trkpt>
      <trkpt lat="59.225882038097" lon="17.928413121039">
        <ele>105.6</ele>
        <time>2016-04-08T17:31:45Z</time>
      </trkpt>
      <trkpt lat="59.225872901826" lon="17.928309185479">
        <ele>106</ele>
        <time>2016-04-08T17:31:46Z</time>
      </trkpt>
      <trkpt lat="59.225865441935" lon="17.928204244091">
        <ele>106</ele>
        <time>2016-04-08T17:31:47Z</time>
      </trkpt>
      <trkpt lat="59.225773827768" lon="17.927596221065">
        <ele>106</ele>
        <time>2016-04-08T17:31:53Z</time>
      </trkpt>
      <trkpt lat="59.225707526939" lon="17.927312829026">
        <ele>106.4</ele>
        <time>2016-04-08T17:31:56Z</time>
      </trkpt>
      <trkpt lat="59.225677771194" lon="17.927218281194">
        <ele>106.8</ele>
        <time>2016-04-08T17:31:57Z</time>
      </trkpt>
      <trkpt lat="59.225641896662" lon="17.927109987046">
        <ele>107.2</ele>
        <time>2016-04-08T17:31:58Z</time>
      </trkpt>
      <trkpt lat="59.225603088465" lon="17.92700152526">
        <ele>107.6</ele>
        <time>2016-04-08T17:31:59Z</time>
      </trkpt>
      <trkpt lat="59.225558664395" lon="17.926888621067">
        <ele>108</ele>
        <time>2016-04-08T17:32:00Z</time>
      </trkpt>
      <trkpt lat="59.22546185345" lon="17.92664529451">
        <ele>107.4</ele>
        <time>2016-04-08T17:32:02Z</time>
      </trkpt>
      <trkpt lat="59.225413573706" lon="17.926511351748">
        <ele>107</ele>
        <time>2016-04-08T17:32:03Z</time>
      </trkpt>
      <trkpt lat="59.225358336985" lon="17.926362405385">
        <ele>106.4</ele>
        <time>2016-04-08T17:32:04Z</time>
      </trkpt>
      <trkpt lat="59.225299160771" lon="17.926198958335">
        <ele>105.8</ele>
        <time>2016-04-08T17:32:05Z</time>
      </trkpt>
      <trkpt lat="59.225243002041" lon="17.926034002543">
        <ele>105.2</ele>
        <time>2016-04-08T17:32:06Z</time>
      </trkpt>
      <trkpt lat="59.225184999293" lon="17.925866867457">
        <ele>104.6</ele>
        <time>2016-04-08T17:32:07Z</time>
      </trkpt>
      <trkpt lat="59.225126661269" lon="17.925699480914">
        <ele>103.8</ele>
        <time>2016-04-08T17:32:08Z</time>
      </trkpt>
      <trkpt lat="59.225067401236" lon="17.925536033864">
        <ele>103</ele>
        <time>2016-04-08T17:32:09Z</time>
      </trkpt>
      <trkpt lat="59.22500671628" lon="17.925369736968">
        <ele>102.2</ele>
        <time>2016-04-08T17:32:10Z</time>
      </trkpt>
      <trkpt lat="59.224948210618" lon="17.925205451728">
        <ele>101.4</ele>
        <time>2016-04-08T17:32:11Z</time>
      </trkpt>
      <trkpt lat="59.224886184558" lon="17.925031527303">
        <ele>100.6</ele>
        <time>2016-04-08T17:32:12Z</time>
      </trkpt>
      <trkpt lat="59.224828517086" lon="17.924863470208">
        <ele>100.2</ele>
        <time>2016-04-08T17:32:13Z</time>
      </trkpt>
      <trkpt lat="59.22478124317" lon="17.924698682054">
        <ele>99.8</ele>
        <time>2016-04-08T17:32:14Z</time>
      </trkpt>
      <trkpt lat="59.224732795788" lon="17.924527858932">
        <ele>99.4</ele>
        <time>2016-04-08T17:32:15Z</time>
      </trkpt>
      <trkpt lat="59.224688874632" lon="17.924353012498">
        <ele>99</ele>
        <time>2016-04-08T17:32:16Z</time>
      </trkpt>
      <trkpt lat="59.224648641512" lon="17.924177998426">
        <ele>98.6</ele>
        <time>2016-04-08T17:32:17Z</time>
      </trkpt>
      <trkpt lat="59.224446889179" lon="17.923297982745">
        <ele>98.6</ele>
        <time>2016-04-08T17:32:22Z</time>
      </trkpt>
      <trkpt lat="59.224174225972" lon="17.922296178057">
        <ele>98.6</ele>
        <time>2016-04-08T17:32:28Z</time>
      </trkpt>
      <trkpt lat="59.224126449142" lon="17.922134407387">
        <ele>98.6</ele>
        <time>2016-04-08T17:32:29Z</time>
      </trkpt>
      <trkpt lat="59.223865688233" lon="17.921146265196">
        <ele>98.6</ele>
        <time>2016-04-08T17:32:35Z</time>
      </trkpt>
      <trkpt lat="59.2237812825" lon="17.920807049703">
        <ele>98.6</ele>
        <time>2016-04-08T17:32:37Z</time>
      </trkpt>
      <trkpt lat="59.223601742202" lon="17.919970619902">
        <ele>98.6</ele>
        <time>2016-04-08T17:32:42Z</time>
      </trkpt>
      <trkpt lat="59.223424465017" lon="17.918924642601">
        <ele>98.6</ele>
        <time>2016-04-08T17:32:48Z</time>
      </trkpt>
      <trkpt lat="59.223391607969" lon="17.918738983516">
        <ele>98.6</ele>
        <time>2016-04-08T17:32:49Z</time>
      </trkpt>
      <trkpt lat="59.223200249192" lon="17.917829715004">
        <ele>98.2</ele>
        <time>2016-04-08T17:32:54Z</time>
      </trkpt>
      <trkpt lat="59.22316353647" lon="17.917651348172">
        <ele>97.8</ele>
        <time>2016-04-08T17:32:55Z</time>
      </trkpt>
      <trkpt lat="59.223129673594" lon="17.917486308561">
        <ele>97.4</ele>
        <time>2016-04-08T17:32:56Z</time>
      </trkpt>
      <trkpt lat="59.223096397451" lon="17.917321771864">
        <ele>97</ele>
        <time>2016-04-08T17:32:57Z</time>
      </trkpt>
      <trkpt lat="59.223061361109" lon="17.91716452742">
        <ele>96.4</ele>
        <time>2016-04-08T17:32:58Z</time>
      </trkpt>
      <trkpt lat="59.222863548269" lon="17.916396158647">
        <ele>96.4</ele>
        <time>2016-04-08T17:33:03Z</time>
      </trkpt>
      <trkpt lat="59.222632207829" lon="17.915879163055">
        <ele>96.4</ele>
        <time>2016-04-08T17:33:07Z</time>
      </trkpt>
      <trkpt lat="59.222564649715" lon="17.91575636822">
        <ele>96.4</ele>
        <time>2016-04-08T17:33:08Z</time>
      </trkpt>
      <trkpt lat="59.222431126048" lon="17.915502061374">
        <ele>96</ele>
        <time>2016-04-08T17:33:10Z</time>
      </trkpt>
      <trkpt lat="59.22235887407" lon="17.915370046449">
        <ele>95.6</ele>
        <time>2016-04-08T17:33:11Z</time>
      </trkpt>
      <trkpt lat="59.222289220481" lon="17.915237025696">
        <ele>95</ele>
        <time>2016-04-08T17:33:12Z</time>
      </trkpt>
      <trkpt lat="59.222222332919" lon="17.915101993287">
        <ele>94.4</ele>
        <time>2016-04-08T17:33:13Z</time>
      </trkpt>
      <trkpt lat="59.222152763149" lon="17.914965368317">
        <ele>93.8</ele>
        <time>2016-04-08T17:33:14Z</time>
      </trkpt>
      <trkpt lat="59.222086378501" lon="17.914839975093">
        <ele>93.2</ele>
        <time>2016-04-08T17:33:15Z</time>
      </trkpt>
      <trkpt lat="59.222019993853" lon="17.914714917145">
        <ele>92.6</ele>
        <time>2016-04-08T17:33:16Z</time>
      </trkpt>
      <trkpt lat="59.221956710508" lon="17.914595055975">
        <ele>92</ele>
        <time>2016-04-08T17:33:17Z</time>
      </trkpt>
      <trkpt lat="59.221675833039" lon="17.913980578886">
        <ele>92</ele>
        <time>2016-04-08T17:33:22Z</time>
      </trkpt>
      <trkpt lat="59.221454802336" lon="17.913534158892">
        <ele>92</ele>
        <time>2016-04-08T17:33:26Z</time>
      </trkpt>
      <trkpt lat="59.221388082412" lon="17.913432151169">
        <ele>92</ele>
        <time>2016-04-08T17:33:27Z</time>
      </trkpt>
      <trkpt lat="59.221332678053" lon="17.913315642759">
        <ele>91.6</ele>
        <time>2016-04-08T17:33:28Z</time>
      </trkpt>
      <trkpt lat="59.221277525151" lon="17.91317390483">
        <ele>91.2</ele>
        <time>2016-04-08T17:33:29Z</time>
      </trkpt>
      <trkpt lat="59.221220360593" lon="17.913032502177">
        <ele>90.8</ele>
        <time>2016-04-08T17:33:30Z</time>
      </trkpt>
      <trkpt lat="59.221166464976" lon="17.912884561642">
        <ele>90</ele>
        <time>2016-04-08T17:33:31Z</time>
      </trkpt>
      <trkpt lat="59.220975692932" lon="17.912439315114">
        <ele>89.6</ele>
        <time>2016-04-08T17:33:34Z</time>
      </trkpt>
      <trkpt lat="59.220908553913" lon="17.912251812011">
        <ele>89.2</ele>
        <time>2016-04-08T17:33:35Z</time>
      </trkpt>
      <trkpt lat="59.220839067962" lon="17.912065063279">
        <ele>88.8</ele>
        <time>2016-04-08T17:33:36Z</time>
      </trkpt>
      <trkpt lat="59.220760697197" lon="17.911878649823">
        <ele>88.4</ele>
        <time>2016-04-08T17:33:37Z</time>
      </trkpt>
      <trkpt lat="59.220680650052" lon="17.91170371957">
        <ele>88</ele>
        <time>2016-04-08T17:33:38Z</time>
      </trkpt>
      <trkpt lat="59.220598926527" lon="17.911513953354">
        <ele>87.4</ele>
        <time>2016-04-08T17:33:39Z</time>
      </trkpt>
      <trkpt lat="59.220518879382" lon="17.911311781926">
        <ele>87</ele>
        <time>2016-04-08T17:33:40Z</time>
      </trkpt>
      <trkpt lat="59.220445370119" lon="17.911120758425">
        <ele>86.6</ele>
        <time>2016-04-08T17:33:41Z</time>
      </trkpt>
      <trkpt lat="59.220382757326" lon="17.910930321657">
        <ele>86.2</ele>
        <time>2016-04-08T17:33:42Z</time>
      </trkpt>
      <trkpt lat="59.220314361022" lon="17.910753966481">
        <ele>85.8</ele>
        <time>2016-04-08T17:33:43Z</time>
      </trkpt>
      <trkpt lat="59.220119733304" lon="17.910262200408">
        <ele>85.8</ele>
        <time>2016-04-08T17:33:46Z</time>
      </trkpt>
      <trkpt lat="59.219917897152" lon="17.909746378282">
        <ele>85.8</ele>
        <time>2016-04-08T17:33:50Z</time>
      </trkpt>
      <trkpt lat="59.219881435887" lon="17.909640431066">
        <ele>85.8</ele>
        <time>2016-04-08T17:33:51Z</time>
      </trkpt>
      <trkpt lat="59.219895936574" lon="17.909411353739">
        <ele>86.2</ele>
        <time>2016-04-08T17:33:53Z</time>
      </trkpt>
      <trkpt lat="59.219932565477" lon="17.909334240259">
        <ele>86.8</ele>
        <time>2016-04-08T17:33:54Z</time>
      </trkpt>
      <trkpt lat="59.219977073366" lon="17.90926877762">
        <ele>87.4</ele>
        <time>2016-04-08T17:33:55Z</time>
      </trkpt>
      <trkpt lat="59.220024347282" lon="17.909204656085">
        <ele>88.4</ele>
        <time>2016-04-08T17:33:56Z</time>
      </trkpt>
      <trkpt lat="59.220071705017" lon="17.909139947817">
        <ele>88.4</ele>
        <time>2016-04-08T17:33:57Z</time>
      </trkpt>
      <trkpt lat="59.220304386561" lon="17.908804587998">
        <ele>88.4</ele>
        <time>2016-04-08T17:34:02Z</time>
      </trkpt>
      <trkpt lat="59.220381080946" lon="17.90865270797">
        <ele>88.4</ele>
        <time>2016-04-08T17:34:04Z</time>
      </trkpt>
      <trkpt lat="59.220362556947" lon="17.908455984777">
        <ele>88.4</ele>
        <time>2016-04-08T17:34:06Z</time>
      </trkpt>
      <trkpt lat="59.220262477061" lon="17.908259932136">
        <ele>88.4</ele>
        <time>2016-04-08T17:34:09Z</time>
      </trkpt>
      <trkpt lat="59.219993418071" lon="17.907686945452">
        <ele>88.4</ele>
        <time>2016-04-08T17:34:17Z</time>
      </trkpt>
      <trkpt lat="59.219875568557" lon="17.90739374659">
        <ele>88.4</ele>
        <time>2016-04-08T17:34:21Z</time>
      </trkpt>
    </trkseg>
  </trk>
</gpx>